LiveATC.Net - Listen to live air traffic control over the Internet!

Find LiveATC Audio Streams


Airport/ARTCC Code

Frequency Search
(e.g., 124.400, 128.75)
Site-wide search
 


Browse LiveATC Feeds
Top 50 LiveATC Feeds
LiveATC Feed Map
Bad Weather Areas

LiveATC FAQ
Offer LiveATC feed
Contact LiveATC.net
Press Inquiries

LiveATC on iPhone
LiveATC on Android

Windows Phone
Windows 8/10

LiveATC Mobile
(Mobile browser)

ATC Audio Archives
Interesting Recordings

LiveATC Forums

Home Page
About LiveATC.net
Make a Donation
Terms of Use
Privacy Policy

Canadian Air Freqs

AIRMETs/SIGMETs

FAA Airport Status
Nat'l Airspace Status
Arrival Demand Charts


Server Software By:
Icecast.org
Liquidsoap

Select an area of interest:
U.S. Feeds: Class B Airports | Class C Airports | Class D/Other Airports | ARTCC (Centers)
International Feeds: Canada | Europe | Oceania | Asia | South America | North/Central America | Africa
Misc Feeds: HF Feeds
Search by ICAO/IATA airport code:   (e.g., kbos, kjfk, lax, eham, etc.)


Currently Available Live Feeds: 2383
Status Updated: Thu Mar 21 2019 22:40:01 UTC


NOTICE

Unauthorized use prohibited. See LiveATC.net Terms of Service

U.S. Class B Airport Feeds

 

KDAL App/Dep (East Side North Low) (Archives)
Dallas, Texas, United States

Feed Status: UP
Listen in your browser - HTML5 player(in browser, HTML5)
Click here to listen with your own player(launches your MP3 player)

KDFW 212153Z 33007G16KT 300V360 10SM BKN250 24/M01 A3011 RMK AO2 SLP193 T02441006

KDFW Airport Info (Airnav.com)

KDFW Flight Activity (Flightaware)

Listeners: 0 out of 1349 total

Regional Approach/Departure (East Side/North Low): 124.300

KAPA App/Dep (Archives)
Denver, Colorado, United States

Feed Status: UP
Listen in your browser - HTML5 player(in browser, HTML5)
Click here to listen with your own player(launches your MP3 player)

KAPA 212153Z 16016G30KT 10SM SCT110 OVC200 13/M07 A3004 RMK AO2 PK WND 16030/2148 SLP165 T01281067

KAPA Airport Info (Airnav.com)

KAPA Flight Activity (Flightaware)

Listeners: 1 out of 1349 total

Denver Approach/Departure: 132.750

KAPA Gnd/Twr/Denver App (Archives)
Denver, Colorado, United States

Feed Status: UP
Listen in your browser - HTML5 player(in browser, HTML5)
Click here to listen with your own player(launches your MP3 player)

KAPA 212153Z 16016G30KT 10SM SCT110 OVC200 13/M07 A3004 RMK AO2 PK WND 16030/2148 SLP165 T01281067

KAPA Airport Info (Airnav.com)

KAPA Flight Activity (Flightaware)

Listeners: 5 out of 1349 total

Centennial Ground: 121.800
Centennial Tower: 118.900
Centennial Tower (17R/35L): 123.700
Denver Approach: 132.750

KATL Approach (Center Final/South Sat) (Archives)
Atlanta, Georgia, United States

Feed Status: UP
Listen in your browser - HTML5 player(in browser, HTML5)
Click here to listen with your own player(launches your MP3 player)

KCCO 212215Z AUTO 31007G17KT 10SM SCT070 17/01 A2993 RMK AO2 T01670010

KCCO Airport Info (Airnav.com)

KCCO Flight Activity (Flightaware)

Listeners: 1 out of 1349 total

Atlanta Approach (ATL Center Final, Rwy 27L/9R): 124.600
Atlanta Approach (South Satellite): 119.800

KATL Approach (Final) (Archives)
Atlanta, Georgia, United States

Feed Status: UP
Listen in your browser - HTML5 player(in browser, HTML5)
Click here to listen with your own player(launches your MP3 player)

KATL 212152Z 31014G22KT 10SM FEW050 BKN070 15/01 A2991 RMK AO2 PK WND 28027/2113 SLP129 T01500011

KATL Airport Info (Airnav.com)

KATL Flight Activity (Flightaware)

Listeners: 1 out of 1349 total

Atlanta Approach (ATL Center Final, Rwy 27L/9R): 124.600
Atlanta Approach (Final Rwy 10/28): 118.350
Atlanta Approach (Final Rwy 26R/8L): 127.250

KATL Arrival ATIS (Archives)
Atlanta, Georgia, United States

Feed Status: UP
Listen in your browser - HTML5 player(in browser, HTML5)
Click here to listen with your own player(launches your MP3 player)

KATL 212152Z 31014G22KT 10SM FEW050 BKN070 15/01 A2991 RMK AO2 PK WND 28027/2113 SLP129 T01500011

KATL Airport Info (Airnav.com)

KATL Flight Activity (Flightaware)

Listeners: 0 out of 1349 total

Atlanta Arrival ATIS: 119.650

KATL Clearance Delivery (Archives)
Atlanta, Georgia, United States

Feed Status: UP
Listen in your browser - HTML5 player(in browser, HTML5)
Click here to listen with your own player(launches your MP3 player)

KATL 212152Z 31014G22KT 10SM FEW050 BKN070 15/01 A2991 RMK AO2 PK WND 28027/2113 SLP129 T01500011

KATL Airport Info (Airnav.com)

KATL Flight Activity (Flightaware)

Listeners: 2 out of 1349 total

Atlanta Clearance Delivery: 118.100

KATL Departure (Rwys 8/26) (Archives)
Atlanta, Georgia, United States

Feed Status: UP
Listen in your browser - HTML5 player(in browser, HTML5)
Click here to listen with your own player(launches your MP3 player)

KATL 212152Z 31014G22KT 10SM FEW050 BKN070 15/01 A2991 RMK AO2 PK WND 28027/2113 SLP129 T01500011

KATL Airport Info (Airnav.com)

KATL Flight Activity (Flightaware)

Listeners: 1 out of 1349 total

Atlanta Departure (North,Rwys 8/26): 125.700

KATL Departure (Rwys 9/27) (Archives)
Atlanta, Georgia, United States

Feed Status: UP
Listen in your browser - HTML5 player(in browser, HTML5)
Click here to listen with your own player(launches your MP3 player)

KATL 212152Z 31014G22KT 10SM FEW050 BKN070 15/01 A2991 RMK AO2 PK WND 28027/2113 SLP129 T01500011

KATL Airport Info (Airnav.com)

KATL Flight Activity (Flightaware)

Listeners: 1 out of 1349 total

Atlanta Approach: 128.525
Atlanta Approach (North Satellite): 121.000
Atlanta Approach (SW Satellite/Approach): 119.800
Atlanta Departure: 125.650
Atlanta Departure: 135.700

KATL Departure ATIS (Archives)
Atlanta, Georgia, United States

Feed Status: UP
Listen in your browser - HTML5 player(in browser, HTML5)
Click here to listen with your own player(launches your MP3 player)

KATL 212152Z 31014G22KT 10SM FEW050 BKN070 15/01 A2991 RMK AO2 PK WND 28027/2113 SLP129 T01500011

KATL Airport Info (Airnav.com)

KATL Flight Activity (Flightaware)

Listeners: 0 out of 1349 total

Atlanta Departure ATIS: 125.550

KATL Ground (Archives)
Atlanta, Georgia, United States

Feed Status: UP
Listen in your browser - HTML5 player(in browser, HTML5)
Click here to listen with your own player(launches your MP3 player)

KATL 212152Z 31014G22KT 10SM FEW050 BKN070 15/01 A2991 RMK AO2 PK WND 28027/2113 SLP129 T01500011

KATL Airport Info (Airnav.com)

KATL Flight Activity (Flightaware)

Listeners: 2 out of 1349 total

Atlanta Ground (Rwy 10/28): 121.650
Atlanta Ground (Rwy 8/26): 121.900
Atlanta Ground (Rwy 9/27): 121.750

KATL Ground (Rwys 8/26 9/27) (Archives)
Atlanta, Georgia, United States

Feed Status: UP
Listen in your browser - HTML5 player(in browser, HTML5)
Click here to listen with your own player(launches your MP3 player)

KATL 212152Z 31014G22KT 10SM FEW050 BKN070 15/01 A2991 RMK AO2 PK WND 28027/2113 SLP129 T01500011

KATL Airport Info (Airnav.com)

KATL Flight Activity (Flightaware)

Listeners: 0 out of 1349 total

Atlanta Ground (Rwys 8/26): 121.900
Atlanta Ground (Rwys 9/27): 121.750

KATL Ground (Rwys 8/26) (Archives)
Atlanta, Georgia, United States

Feed Status: UP
Listen in your browser - HTML5 player(in browser, HTML5)
Click here to listen with your own player(launches your MP3 player)

KATL 212152Z 31014G22KT 10SM FEW050 BKN070 15/01 A2991 RMK AO2 PK WND 28027/2113 SLP129 T01500011

KATL Airport Info (Airnav.com)

KATL Flight Activity (Flightaware)

Listeners: 0 out of 1349 total

Atlanta Ground (Rwys 8/26): 121.900

KATL Ground (Rwys 9/27) (Archives)
Atlanta, Georgia, United States

Feed Status: UP
Listen in your browser - HTML5 player(in browser, HTML5)
Click here to listen with your own player(launches your MP3 player)

KATL 212152Z 31014G22KT 10SM FEW050 BKN070 15/01 A2991 RMK AO2 PK WND 28027/2113 SLP129 T01500011

KATL Airport Info (Airnav.com)

KATL Flight Activity (Flightaware)

Listeners: 0 out of 1349 total

Atlanta Ground (Rwys 9/27): 121.750

KATL Ramp (Archives)
Atlanta, Georgia, United States

Feed Status: UP
Listen in your browser - HTML5 player(in browser, HTML5)
Click here to listen with your own player(launches your MP3 player)

KATL 212152Z 31014G22KT 10SM FEW050 BKN070 15/01 A2991 RMK AO2 PK WND 28027/2113 SLP129 T01500011

KATL Airport Info (Airnav.com)

KATL Flight Activity (Flightaware)

Listeners: 2 out of 1349 total

Ramp: 128.975
Ramp: 131.875
Ramp 1: 131.450
Ramp 2: 131.850
Ramp 3: 129.275
Ramp 4: 130.075
Ramp 5: 129.375
Ramp 6: 131.375

KATL Tower (Archives)
Atlanta, Georgia, United States

Feed Status: UP
Listen in your browser - HTML5 player(in browser, HTML5)
Click here to listen with your own player(launches your MP3 player)

KATL 212152Z 31014G22KT 10SM FEW050 BKN070 15/01 A2991 RMK AO2 PK WND 28027/2113 SLP129 T01500011

KATL Airport Info (Airnav.com)

KATL Flight Activity (Flightaware)

Listeners: 7 out of 1349 total

Atlanta Tower (Rwy 10/28): 119.500
Atlanta Tower (Rwy 8L/26R): 119.100
Atlanta Tower (Rwy 8R/26L): 125.325
Atlanta Tower (Rwy 9L/27R): 123.850
Atlanta Tower (Rwy 9R/27L): 119.300

KATL Tower (Rwy 10/28) (Archives)
Atlanta, Georgia, United States

Feed Status: UP
Listen in your browser - HTML5 player(in browser, HTML5)
Click here to listen with your own player(launches your MP3 player)

KATL 212152Z 31014G22KT 10SM FEW050 BKN070 15/01 A2991 RMK AO2 PK WND 28027/2113 SLP129 T01500011

KATL Airport Info (Airnav.com)

KATL Flight Activity (Flightaware)

Listeners: 0 out of 1349 total

Atlanta Tower (Runway 10/28): 119.500

KATL Tower (Rwy 8L/26R) (Archives)
Atlanta, Georgia, United States

Feed Status: UP
Listen in your browser - HTML5 player(in browser, HTML5)
Click here to listen with your own player(launches your MP3 player)

KATL 212152Z 31014G22KT 10SM FEW050 BKN070 15/01 A2991 RMK AO2 PK WND 28027/2113 SLP129 T01500011

KATL Airport Info (Airnav.com)

KATL Flight Activity (Flightaware)

Listeners: 0 out of 1349 total

Atlanta Tower (Runway 08L/26R): 119.100

KATL Tower (Rwy 8R/26L) (Archives)
Atlanta, Georgia, United States

Feed Status: UP
Listen in your browser - HTML5 player(in browser, HTML5)
Click here to listen with your own player(launches your MP3 player)

KATL 212152Z 31014G22KT 10SM FEW050 BKN070 15/01 A2991 RMK AO2 PK WND 28027/2113 SLP129 T01500011

KATL Airport Info (Airnav.com)

KATL Flight Activity (Flightaware)

Listeners: 1 out of 1349 total

Atlanta Tower (Runway 08R/26L): 125.325

KATL Tower (Rwy 8R/8L/26L/26R) (Archives)
Atlanta, Georgia, United States

Feed Status: UP
Listen in your browser - HTML5 player(in browser, HTML5)
Click here to listen with your own player(launches your MP3 player)

KATL 212152Z 31014G22KT 10SM FEW050 BKN070 15/01 A2991 RMK AO2 PK WND 28027/2113 SLP129 T01500011

KATL Airport Info (Airnav.com)

KATL Flight Activity (Flightaware)

Listeners: 0 out of 1349 total

Atlanta Tower (Runway 08L/26R): 119.100
Atlanta Tower (Rwy 8R/26L): 125.325

KATL Tower (Rwy 9L/27R) (Archives)
Atlanta, Georgia, United States

Feed Status: UP
Listen in your browser - HTML5 player(in browser, HTML5)
Click here to listen with your own player(launches your MP3 player)

KATL 212152Z 31014G22KT 10SM FEW050 BKN070 15/01 A2991 RMK AO2 PK WND 28027/2113 SLP129 T01500011

KATL Airport Info (Airnav.com)

KATL Flight Activity (Flightaware)

Listeners: 1 out of 1349 total

Atlanta Tower (Runway 09L/27R): 123.850

KATL Tower (Rwy 9R/27L) (Archives)
Atlanta, Georgia, United States

Feed Status: UP
Listen in your browser - HTML5 player(in browser, HTML5)
Click here to listen with your own player(launches your MP3 player)

KATL 212152Z 31014G22KT 10SM FEW050 BKN070 15/01 A2991 RMK AO2 PK WND 28027/2113 SLP129 T01500011

KATL Airport Info (Airnav.com)

KATL Flight Activity (Flightaware)

Listeners: 0 out of 1349 total

Atlanta Tower (Runway 09R/27L): 119.300

NORCAL Approach (Elk Horn) (Archives)
Auburn, California, United States

Feed Status: UP
Listen in your browser - HTML5 player(in browser, HTML5)
Click here to listen with your own player(launches your MP3 player)

KAUN 212215Z AUTO 20007G12KT 10SM FEW041 15/05 A3006 RMK A01

KAUN Airport Info (Airnav.com)

KAUN Flight Activity (Flightaware)

Listeners: 0 out of 1349 total

NORCAL Approach (Elk Horn Sector): 125.100

NORCAL Approach (Expo) (Archives)
Auburn, California, United States

Feed Status: UP
Listen in your browser - HTML5 player(in browser, HTML5)
Click here to listen with your own player(launches your MP3 player)

KAUN 212215Z AUTO 20007G12KT 10SM FEW041 15/05 A3006 RMK A01

KAUN Airport Info (Airnav.com)

KAUN Flight Activity (Flightaware)

Listeners: 0 out of 1349 total

NORCAL Approach (EXPO Sector): 127.400

KBDR Del/Gnd/Twr/App (Archives)
Bridgeport, Connecticut, United States

Feed Status: UP
Listen in your browser - HTML5 player(in browser, HTML5)
Click here to listen with your own player(launches your MP3 player)

KBDR 212152Z 06019KT 10SM SCT060 BKN075 OVC110 06/03 A2990 RMK AO2 RAE35 PRESFR SLP125 P0000 T00610028

KBDR Airport Info (Airnav.com)

KBDR Flight Activity (Flightaware)

Listeners: 0 out of 1349 total

Bridgeport Clearance/Ground: 121.750
Bridgeport Tower: 120.900
New York Approach (LOVES Sector): 124.075
Sikorsky Heliport: 133.600

Sponsored by LiveATC.net and Three Wing Aviation

New York Approach (LOVES Sector) (Archives)
Bridgeport, Connecticut, United States

Feed Status: UP
Listen in your browser - HTML5 player(in browser, HTML5)
Click here to listen with your own player(launches your MP3 player)

KBDR 212152Z 06019KT 10SM SCT060 BKN075 OVC110 06/03 A2990 RMK AO2 RAE35 PRESFR SLP125 P0000 T00610028

KBDR Airport Info (Airnav.com)

KBDR Flight Activity (Flightaware)

Listeners: 0 out of 1349 total

New York Approach (LOVES Sector): 124.075

Sponsored by LiveATC.net and Three Wing Aviation

Boston App/Dep (North Sat) #2 (Archives)
Bedford, Massachusetts, United States

Feed Status: UP
Listen in your browser - HTML5 player(in browser, HTML5)
Click here to listen with your own player(launches your MP3 player)

KBED 212156Z 16008KT 10SM BKN060 OVC220 09/M04 A3002 RMK AO2 SLP180 T00891044

KBED Airport Info (Airnav.com)

KBED Flight Activity (Flightaware)

Listeners: 0 out of 1349 total

Boston Approach (North Satellites, SFC-3500'): 124.400

KBOS App (Final Vector) (Archives)
Boston, Massachusetts, United States

Feed Status: UP
Listen in your browser - HTML5 player(in browser, HTML5)
Click here to listen with your own player(launches your MP3 player)

KBOS 212154Z 11012KT 10SM SCT055 OVC150 07/02 A3004 RMK AO2 SLP172 T00670017

KBOS Airport Info (Airnav.com)

KBOS Flight Activity (Flightaware)

Listeners: 5 out of 1349 total

Boston Approach (Final One): 126.500
Boston Approach (Final Two): 119.650

Sponsored by LiveATC.net

KBOS App (North/Rockport) (Archives)
Boston, Massachusetts, United States

Feed Status: UP
Listen in your browser - HTML5 player(in browser, HTML5)
Click here to listen with your own player(launches your MP3 player)

KBOS 212154Z 11012KT 10SM SCT055 OVC150 07/02 A3004 RMK AO2 SLP172 T00670017

KBOS Airport Info (Airnav.com)

KBOS Flight Activity (Flightaware)

Listeners: 0 out of 1349 total

Boston Approach (backup frequency): 126.150
Boston Approach (Rockport Sector, North): 118.250

Sponsored by LiveATC.net

KBOS App (South/Plymouth) (Archives)
Boston, Massachusetts, United States

Feed Status: UP
Listen in your browser - HTML5 player(in browser, HTML5)
Click here to listen with your own player(launches your MP3 player)

KBOS 212154Z 11012KT 10SM SCT055 OVC150 07/02 A3004 RMK AO2 SLP172 T00670017

KBOS Airport Info (Airnav.com)

KBOS Flight Activity (Flightaware)

Listeners: 0 out of 1349 total

Boston Approach (Plymouth Sector, South): 120.600
Boston Approach (South Satellite): 124.100

Sponsored by LiveATC.net

KBOS Area Heli/Air-to-Air (Archives)
Boston, Massachusetts, United States

Feed Status: UP
Listen in your browser - HTML5 player(in browser, HTML5)
Click here to listen with your own player(launches your MP3 player)

KBOS 212154Z 11012KT 10SM SCT055 OVC150 07/02 A3004 RMK AO2 SLP172 T00670017

KBOS Airport Info (Airnav.com)

KBOS Flight Activity (Flightaware)

Listeners: 1 out of 1349 total

Aircraft Air-to-Air: 122.750
Helicopter Air-to-Air: 123.025
Helicopter Air-to-Air: 123.075
KBOS Tower (Skyways): 124.725

KBOS Del/Gnd (Archives)
Boston, Massachusetts, United States

Feed Status: UP
Listen in your browser - HTML5 player(in browser, HTML5)
Click here to listen with your own player(launches your MP3 player)

KBOS 212154Z 11012KT 10SM SCT055 OVC150 07/02 A3004 RMK AO2 SLP172 T00670017

KBOS Airport Info (Airnav.com)

KBOS Flight Activity (Flightaware)

Listeners: 0 out of 1349 total

Boston Ground: 121.900
Boston Ground: 121.750

Sponsored by LiveATC.net

KBOS Dep (ID/Lincoln) (Archives)
Boston, Massachusetts, United States

Feed Status: UP
Listen in your browser - HTML5 player(in browser, HTML5)
Click here to listen with your own player(launches your MP3 player)

KBOS 212154Z 11012KT 10SM SCT055 OVC150 07/02 A3004 RMK AO2 SLP172 T00670017

KBOS Airport Info (Airnav.com)

KBOS Flight Activity (Flightaware)

Listeners: 0 out of 1349 total

Boston Approach/Dep (Lincoln Sector/SW): 127.200
Boston Initial Departure (ID): 133.000

Sponsored by LiveATC.net

KBOS Ramp (Archives)
Boston, Massachusetts, United States

Feed Status: UP
Listen in your browser - HTML5 player(in browser, HTML5)
Click here to listen with your own player(launches your MP3 player)

KBOS 212154Z 11012KT 10SM SCT055 OVC150 07/02 A3004 RMK AO2 SLP172 T00670017

KBOS Airport Info (Airnav.com)

KBOS Flight Activity (Flightaware)

Listeners: 0 out of 1349 total

ARINC Long-Range Oceanic VHF: 129.400
ARINC Long-Range Oceanic VHF: 129.900
Bridgeport Flight Service (FSS): 122.200
Delta Ramp: 131.850
Massport Gate Control: 131.100
Ramp Control: 134.050
UNICOM: 122.950

Sponsored by LiveATC.net

KBOS Tower (Archives)
Boston, Massachusetts, United States

Feed Status: UP
Listen in your browser - HTML5 player(in browser, HTML5)
Click here to listen with your own player(launches your MP3 player)

KBOS 212154Z 11012KT 10SM SCT055 OVC150 07/02 A3004 RMK AO2 SLP172 T00670017

KBOS Airport Info (Airnav.com)

KBOS Flight Activity (Flightaware)

Listeners: 7 out of 1349 total

Boston Tower (East): 132.225
Boston Tower (West): 128.800

Sponsored by LiveATC.net

KBWI ATIS (Archives)
Baltimore, Maryland, United States

Feed Status: UP
Listen in your browser - HTML5 player(in browser, HTML5)
Click here to listen with your own player(launches your MP3 player)

KBWI 212225Z 06015KT 1 1/2SM -RA BR BKN007 OVC012 10/09 A2956 RMK AO2 P0003 T01000094

KBWI Airport Info (Airnav.com)

KBWI Flight Activity (Flightaware)

Listeners: 0 out of 1349 total

Baltimore ATIS: 127.800

KBWI Del/Gnd/FBO (Archives)
Baltimore, Maryland, United States

Feed Status: UP
Listen in your browser - HTML5 player(in browser, HTML5)
Click here to listen with your own player(launches your MP3 player)

KBWI 212225Z 06015KT 1 1/2SM -RA BR BKN007 OVC012 10/09 A2956 RMK AO2 P0003 T01000094

KBWI Airport Info (Airnav.com)

KBWI Flight Activity (Flightaware)

Listeners: 0 out of 1349 total

Baltimore Clearance Delivery: 118.050
Baltimore Ground: 121.900
Baltimore Ground (alt): 120.200
Signature De-Ice: 131.075
Signature De-Ice: 130.175
Signature Flight Service: 129.000

KBWI Tower (Archives)
Baltimore, Maryland, United States

Feed Status: UP
Listen in your browser - HTML5 player(in browser, HTML5)
Click here to listen with your own player(launches your MP3 player)

KBWI 212225Z 06015KT 1 1/2SM -RA BR BKN007 OVC012 10/09 A2956 RMK AO2 P0003 T01000094

KBWI Airport Info (Airnav.com)

KBWI Flight Activity (Flightaware)

Listeners: 3 out of 1349 total

Baltimore Tower: 119.400
Baltimore Tower: 123.750

Potomac App (BELAY/BUFFR) (Archives)
Baltimore, Maryland, United States

Feed Status: UP
Listen in your browser - HTML5 player(in browser, HTML5)
Click here to listen with your own player(launches your MP3 player)

KBWI 212225Z 06015KT 1 1/2SM -RA BR BKN007 OVC012 10/09 A2956 RMK AO2 P0003 T01000094

KBWI Airport Info (Airnav.com)

KBWI Flight Activity (Flightaware)

Listeners: 0 out of 1349 total

Potomac Approach (BELAY Sector): 125.525
Potomac Approach (BUFFR Sector): 133.850
Potomac Approach (spare): 126.750

Potomac App (DC ADIZ) (Archives)
Baltimore, Maryland, United States

Feed Status: UP
Listen in your browser - HTML5 player(in browser, HTML5)
Click here to listen with your own player(launches your MP3 player)

KBWI 212225Z 06015KT 1 1/2SM -RA BR BKN007 OVC012 10/09 A2956 RMK AO2 P0003 T01000094

KBWI Airport Info (Airnav.com)

KBWI Flight Activity (Flightaware)

Listeners: 0 out of 1349 total

ADIZ East Sector: 132.775
Emergency/Guard: 121.500

Potomac App (Final) (Archives)
Baltimore, Maryland, United States

Feed Status: UP
Listen in your browser - HTML5 player(in browser, HTML5)
Click here to listen with your own player(launches your MP3 player)

KBWI 212225Z 06015KT 1 1/2SM -RA BR BKN007 OVC012 10/09 A2956 RMK AO2 P0003 T01000094

KBWI Airport Info (Airnav.com)

KBWI Flight Activity (Flightaware)

Listeners: 2 out of 1349 total

Potomac Approach (BWI Final North): 119.000
Potomac Approach (BWI Final South): 119.700

Potomac App (GRACO/PALEO) (Archives)
Baltimore, Maryland, United States

Feed Status: UP
Listen in your browser - HTML5 player(in browser, HTML5)
Click here to listen with your own player(launches your MP3 player)

KBWI 212225Z 06015KT 1 1/2SM -RA BR BKN007 OVC012 10/09 A2956 RMK AO2 P0003 T01000094

KBWI Airport Info (Airnav.com)

KBWI Flight Activity (Flightaware)

Listeners: 0 out of 1349 total

Potomac Approach (GRACO Sector): 124.550
Potomac Approach (PALEO Sector): 133.750

Potomac App (WOOLY) #1 (Archives)
Baltimore, Maryland, United States

Feed Status: UP
Listen in your browser - HTML5 player(in browser, HTML5)
Click here to listen with your own player(launches your MP3 player)

KBWI 212225Z 06015KT 1 1/2SM -RA BR BKN007 OVC012 10/09 A2956 RMK AO2 P0003 T01000094

KBWI Airport Info (Airnav.com)

KBWI Flight Activity (Flightaware)

Listeners: 0 out of 1349 total

Potomac Approach/Departure (WOOLY Sector): 128.700

NOTE: Initial Departure

Potomac App (WOOLY) #2 (Archives)
Baltimore, Maryland, United States

Feed Status: UP
Listen in your browser - HTML5 player(in browser, HTML5)
Click here to listen with your own player(launches your MP3 player)

KBWI 212225Z 06015KT 1 1/2SM -RA BR BKN007 OVC012 10/09 A2956 RMK AO2 P0003 T01000094

KBWI Airport Info (Airnav.com)

KBWI Flight Activity (Flightaware)

Listeners: 0 out of 1349 total

Potomac Approach/Departure (WOOLY Sector): 128.700

Potomac App/Dep (BUFFR) (Archives)
Baltimore, Maryland, United States

Feed Status: UP
Listen in your browser - HTML5 player(in browser, HTML5)
Click here to listen with your own player(launches your MP3 player)

KMRB 212153Z 34008KT 2 1/2SM RA BR FEW008 BKN020 OVC031 05/04 A2973 RMK AO2 SFC VIS 3 SLP070 P0013 T00500044

KMRB Airport Info (Airnav.com)

KMRB Flight Activity (Flightaware)

Listeners: 0 out of 1349 total

Potomac Approach (BUFFR Sector): 133.850

KATL Approach (Center Final/South Sat) (Archives)
Atlanta, Georgia, United States

Feed Status: UP
Listen in your browser - HTML5 player(in browser, HTML5)
Click here to listen with your own player(launches your MP3 player)

KCCO 212215Z AUTO 31007G17KT 10SM SCT070 17/01 A2993 RMK AO2 T01670010

KCCO Airport Info (Airnav.com)

KCCO Flight Activity (Flightaware)

Listeners: 1 out of 1349 total

Atlanta Approach (ATL Center Final, Rwy 27L/9R): 124.600
Atlanta Approach (South Satellite): 119.800

KCLE App/Dep (Archives)
Cleveland, Ohio, United States

Feed Status: UP
Listen in your browser - HTML5 player(in browser, HTML5)
Click here to listen with your own player(launches your MP3 player)

KCLE 212151Z 31005KT 9SM BKN011 OVC015 07/04 A2986 RMK AO2 SLP116 T00670044

KCLE Airport Info (Airnav.com)

KCLE Flight Activity (Flightaware)

Listeners: 1 out of 1349 total

Cleveland Approach: 124.000
Cleveland Approach: 119.625
Cleveland Approach: 126.550
Cleveland Approach: 125.350
Cleveland Departure: 118.150
Cleveland Departure: 125.850
Cleveland Departure: 128.250
Cleveland Departure: 135.875

KCLE Tower (Archives)
Cleveland, Ohio, United States

Feed Status: UP
Listen in your browser - HTML5 player(in browser, HTML5)
Click here to listen with your own player(launches your MP3 player)

KCLE 212151Z 31005KT 9SM BKN011 OVC015 07/04 A2986 RMK AO2 SLP116 T00670044

KCLE Airport Info (Airnav.com)

KCLE Flight Activity (Flightaware)

Listeners: 4 out of 1349 total

Cleveland Tower: 124.500
Cleveland Tower: 120.900

KCLT Approach/Departure (Archives)
Charlotte, North Carolina, United States

Feed Status: UP
Listen in your browser - HTML5 player(in browser, HTML5)
Click here to listen with your own player(launches your MP3 player)

KCLT 212152Z 27008KT 10SM BKN065 OVC085 15/01 A2977 RMK AO2 SLP079 T01500011

KCLT Airport Info (Airnav.com)

KCLT Flight Activity (Flightaware)

Listeners: 2 out of 1349 total

Charlotte Approach/Departure: 120.500
Charlotte Approach/Departure: 120.050
Charlotte Approach/Departure: 124.000
Charlotte Approach/Departure: 128.325
Charlotte Approach/Departure: 134.750

Courtesy of: Sumpters Jewelry and LiveATC.net

KCLT Del/Gnd (Archives)
Charlotte, North Carolina, United States

Feed Status: UP
Listen in your browser - HTML5 player(in browser, HTML5)
Click here to listen with your own player(launches your MP3 player)

KCLT 212152Z 27008KT 10SM BKN065 OVC085 15/01 A2977 RMK AO2 SLP079 T01500011

KCLT Airport Info (Airnav.com)

KCLT Flight Activity (Flightaware)

Listeners: 0 out of 1349 total

Charlotte Clearance Delivery: 127.150
Charlotte Ground: 121.700
Charlotte Ground: 121.800
Charlotte Ground: 121.900

Courtesy of: Sumpters Jewelry and LiveATC.net

KCLT Del/Gnd/Twr (Archives)
Charlotte, North Carolina, United States

Feed Status: UP
Listen in your browser - HTML5 player(in browser, HTML5)
Click here to listen with your own player(launches your MP3 player)

KCLT 212152Z 27008KT 10SM BKN065 OVC085 15/01 A2977 RMK AO2 SLP079 T01500011

KCLT Airport Info (Airnav.com)

KCLT Flight Activity (Flightaware)

Listeners: 0 out of 1349 total

Charlotte Clearance Delivery: 127.150
Charlotte Ground: 121.800
Charlotte Ground: 121.700
Charlotte Ground: 121.900
Charlotte Tower: 118.100
Charlotte Tower: 126.400
Charlotte Tower (Rwy 18R/36L): 133.350

Courtesy of: Sumpters Jewelry and LiveATC.net

KCLT Tower (Archives)
Charlotte, North Carolina, United States

Feed Status: UP
Listen in your browser - HTML5 player(in browser, HTML5)
Click here to listen with your own player(launches your MP3 player)

KCLT 212152Z 27008KT 10SM BKN065 OVC085 15/01 A2977 RMK AO2 SLP079 T01500011

KCLT Airport Info (Airnav.com)

KCLT Flight Activity (Flightaware)

Listeners: 0 out of 1349 total

Charlotte Tower: 118.100
Charlotte Tower: 126.400
Charlotte Tower (Rwy 18R/36L): 133.350

Courtesy of: Sumpters Jewelry and LiveATC.net

KDAL App/Dep (East Side North Low) (Archives)
Dallas, Texas, United States

Feed Status: UP
Listen in your browser - HTML5 player(in browser, HTML5)
Click here to listen with your own player(launches your MP3 player)

KDFW 212153Z 33007G16KT 300V360 10SM BKN250 24/M01 A3011 RMK AO2 SLP193 T02441006

KDFW Airport Info (Airnav.com)

KDFW Flight Activity (Flightaware)

Listeners: 0 out of 1349 total

Regional Approach/Departure (East Side/North Low): 124.300

KDAL ATIS (Archives)
Dallas, Texas, United States

Feed Status: UP
Listen in your browser - HTML5 player(in browser, HTML5)
Click here to listen with your own player(launches your MP3 player)

KDAL 212153Z 35006KT 10SM BKN250 26/02 A3012 RMK AO2 SLP195 T02610022

KDAL Airport Info (Airnav.com)

KDAL Flight Activity (Flightaware)

Listeners: 0 out of 1349 total

Love ATIS: 120.150

KDAL Clearance Delivery (Archives)
Dallas, Texas, United States

Feed Status: UP
Listen in your browser - HTML5 player(in browser, HTML5)
Click here to listen with your own player(launches your MP3 player)

KDAL 212153Z 35006KT 10SM BKN250 26/02 A3012 RMK AO2 SLP195 T02610022

KDAL Airport Info (Airnav.com)

KDAL Flight Activity (Flightaware)

Listeners: 0 out of 1349 total

Love Clearance Delivery: 127.900

KDAL Emergency/Guard (Archives)
Dallas, Texas, United States

Feed Status: UP
Listen in your browser - HTML5 player(in browser, HTML5)
Click here to listen with your own player(launches your MP3 player)

KDAL 212153Z 35006KT 10SM BKN250 26/02 A3012 RMK AO2 SLP195 T02610022

KDAL Airport Info (Airnav.com)

KDAL Flight Activity (Flightaware)

Listeners: 0 out of 1349 total

Emergency/Guard: 121.500

KDAL Ground (Archives)
Dallas, Texas, United States

Feed Status: UP
Listen in your browser - HTML5 player(in browser, HTML5)
Click here to listen with your own player(launches your MP3 player)

KDAL 212153Z 35006KT 10SM BKN250 26/02 A3012 RMK AO2 SLP195 T02610022

KDAL Airport Info (Airnav.com)

KDAL Flight Activity (Flightaware)

Listeners: 0 out of 1349 total

Love Ground: 121.750

KDAL Tower (Archives)
Dallas, Texas, United States

Feed Status: UP
Listen in your browser - HTML5 player(in browser, HTML5)
Click here to listen with your own player(launches your MP3 player)

KDAL 212153Z 35006KT 10SM BKN250 26/02 A3012 RMK AO2 SLP195 T02610022

KDAL Airport Info (Airnav.com)

KDAL Flight Activity (Flightaware)

Listeners: 3 out of 1349 total

Love Tower: 123.700

KDCA Ground (Archives)
Washington, District of Columbia, United States

Feed Status: UP
Listen in your browser - HTML5 player(in browser, HTML5)
Click here to listen with your own player(launches your MP3 player)

KDCA 212228Z 32018G27KT 2 1/2SM +RA SCT012 OVC030 08/06 A2961 RMK AO2 PK WND 32028/2203 VIS N-E 1 1/2 P0020 T00830056

KDCA Airport Info (Airnav.com)

KDCA Flight Activity (Flightaware)

Listeners: 2 out of 1349 total

Washington Ground: 121.700

KDCA Potomac App/Dep (Archives)
Washington, District of Columbia, United States

Feed Status: UP
Listen in your browser - HTML5 player(in browser, HTML5)
Click here to listen with your own player(launches your MP3 player)

KDCA 212228Z 32018G27KT 2 1/2SM +RA SCT012 OVC030 08/06 A2961 RMK AO2 PK WND 32028/2203 VIS N-E 1 1/2 P0020 T00830056

KDCA Airport Info (Airnav.com)

KDCA Flight Activity (Flightaware)

Listeners: 0 out of 1349 total

Potomac Approach (DCA East Arrival): 124.200
Potomac Approach (DCA Final East): 118.300
Potomac Approach (DCA Final West): 124.700
Potomac Approach (DCA South East 19,000' down to 3000' Arrival): 123.850
Potomac Approach (KADW Arrival): 335.500
Potomac Approach (KADW Arrival): 119.300
Potomac Approach (TYSON - West 9500'/below): 118.950
Potomac Departure (DCA West up to 9500'): 121.050
Potomac Departure (East 10,000' up to FL190): 126.550
Potomac Departure (East up to 9500'): 125.650

Sponsored by LiveATC.net

KDCA Potomac App/Dep (KRANT) (Archives)
Washington, District of Columbia, United States

Feed Status: UP
Listen in your browser - HTML5 player(in browser, HTML5)
Click here to listen with your own player(launches your MP3 player)

KDCA 212228Z 32018G27KT 2 1/2SM +RA SCT012 OVC030 08/06 A2961 RMK AO2 PK WND 32028/2203 VIS N-E 1 1/2 P0020 T00830056

KDCA Airport Info (Airnav.com)

KDCA Flight Activity (Flightaware)

Listeners: 0 out of 1349 total

Potomac Approach/Departure (KRANT Sector): 125.650

KDCA Potomac Approach (DCA Final) (Archives)
Washington, District of Columbia, United States

Feed Status: UP
Listen in your browser - HTML5 player(in browser, HTML5)
Click here to listen with your own player(launches your MP3 player)

KDCA 212228Z 32018G27KT 2 1/2SM +RA SCT012 OVC030 08/06 A2961 RMK AO2 PK WND 32028/2203 VIS N-E 1 1/2 P0020 T00830056

KDCA Airport Info (Airnav.com)

KDCA Flight Activity (Flightaware)

Listeners: 1 out of 1349 total

Potomac Approach (DCA Final Radar): 124.700

KDCA Potomac Departure (Archives)
Washington, District of Columbia, United States

Feed Status: UP
Listen in your browser - HTML5 player(in browser, HTML5)
Click here to listen with your own player(launches your MP3 player)

KDCA 212228Z 32018G27KT 2 1/2SM +RA SCT012 OVC030 08/06 A2961 RMK AO2 PK WND 32028/2203 VIS N-E 1 1/2 P0020 T00830056

KDCA Airport Info (Airnav.com)

KDCA Flight Activity (Flightaware)

Listeners: 0 out of 1349 total

Potomac Departure (TYSON Sector): 118.950

KDCA Tower #1 (Archives)
Washington, District of Columbia, United States

Feed Status: UP
Listen in your browser - HTML5 player(in browser, HTML5)
Click here to listen with your own player(launches your MP3 player)

KDCA 212228Z 32018G27KT 2 1/2SM +RA SCT012 OVC030 08/06 A2961 RMK AO2 PK WND 32028/2203 VIS N-E 1 1/2 P0020 T00830056

KDCA Airport Info (Airnav.com)

KDCA Flight Activity (Flightaware)

Listeners: 4 out of 1349 total

Washington Tower: 119.100

KDCA Tower #2 (Archives)
Washington, District of Columbia, United States

Feed Status: UP
Listen in your browser - HTML5 player(in browser, HTML5)
Click here to listen with your own player(launches your MP3 player)

KDCA 212228Z 32018G27KT 2 1/2SM +RA SCT012 OVC030 08/06 A2961 RMK AO2 PK WND 32028/2203 VIS N-E 1 1/2 P0020 T00830056

KDCA Airport Info (Airnav.com)

KDCA Flight Activity (Flightaware)

Listeners: 0 out of 1349 total

Washington Tower: 119.100

KDCA Tower/Approach (Archives)
Washington, District of Columbia, United States

Feed Status: UP
Listen in your browser - HTML5 player(in browser, HTML5)
Click here to listen with your own player(launches your MP3 player)

KDCA 212228Z 32018G27KT 2 1/2SM +RA SCT012 OVC030 08/06 A2961 RMK AO2 PK WND 32028/2203 VIS N-E 1 1/2 P0020 T00830056

KDCA Airport Info (Airnav.com)

KDCA Flight Activity (Flightaware)

Listeners: 0 out of 1349 total

Emergency/Guard: 121.500
KDCA Final Approach (West): 124.700
Washington Tower: 119.100
Washington Tower (Helicopters): 134.350

KDEN Approach (Archives)
Denver, Colorado, United States

Feed Status: UP
Listen in your browser - HTML5 player(in browser, HTML5)
Click here to listen with your own player(launches your MP3 player)

KDEN 212153Z 16023KT 10SM FEW120 BKN200 13/M07 A3003 RMK AO2 PK WND 18032/2057 SLP145 T01331072

KDEN Airport Info (Airnav.com)

KDEN Flight Activity (Flightaware)

Listeners: 3 out of 1349 total

Denver Approach (Final FR-1): 123.850
Denver Approach (Final FR-2): 120.800
Denver Approach (Final FR-3): 125.750
Denver Approach (NE): 124.950
Denver Approach (NW): 119.300
Denver Approach (SE): 126.550
Denver Approach (SW): 120.350
Denver Approach (W): 133.625
Denver Class B (North): 134.850

KDEN Clearance/Ground (Archives)
Denver, Colorado, United States

Feed Status: UP
Listen in your browser - HTML5 player(in browser, HTML5)
Click here to listen with your own player(launches your MP3 player)

KDEN 212153Z 16023KT 10SM FEW120 BKN200 13/M07 A3003 RMK AO2 PK WND 18032/2057 SLP145 T01331072

KDEN Airport Info (Airnav.com)

KDEN Flight Activity (Flightaware)

Listeners: 0 out of 1349 total

Denver Clearance Delivery: 118.750
Denver Ground: 121.850
Denver Ground: 127.500
Denver Ground (alternate): 128.750

KDEN Departure (Archives)
Denver, Colorado, United States

Feed Status: UP
Listen in your browser - HTML5 player(in browser, HTML5)
Click here to listen with your own player(launches your MP3 player)

KDEN 212153Z 16023KT 10SM FEW120 BKN200 13/M07 A3003 RMK AO2 PK WND 18032/2057 SLP145 T01331072

KDEN Airport Info (Airnav.com)

KDEN Flight Activity (Flightaware)

Listeners: 0 out of 1349 total

Denver Class B (North): 134.850
Denver Departure (East): 128.250
Denver Departure (North): 127.050
Denver Departure (South): 128.450
Denver Departure (West): 126.100

KDEN Tower (Archives)
Denver, Colorado, United States

Feed Status: UP
Listen in your browser - HTML5 player(in browser, HTML5)
Click here to listen with your own player(launches your MP3 player)

KDEN 212153Z 16023KT 10SM FEW120 BKN200 13/M07 A3003 RMK AO2 PK WND 18032/2057 SLP145 T01331072

KDEN Airport Info (Airnav.com)

KDEN Flight Activity (Flightaware)

Listeners: 1 out of 1349 total

Denver Tower (Rwy 16/34): 135.300
Denver Tower (Rwy 17R/35L): 133.300
Denver Tower (Rwy 7/25): 132.350
Denver Tower (Rwy 8/26, 17L/35R): 124.300

KDFW ATIS (Arrival) (Archives)
Dallas, Texas, United States

Feed Status: UP
Listen in your browser - HTML5 player(in browser, HTML5)
Click here to listen with your own player(launches your MP3 player)

KDFW 212153Z 33007G16KT 300V360 10SM BKN250 24/M01 A3011 RMK AO2 SLP193 T02441006

KDFW Airport Info (Airnav.com)

KDFW Flight Activity (Flightaware)

Listeners: 0 out of 1349 total

DFW Arrival ATIS: 123.775

KDFW Clearance Delivery (Archives)
Dallas, Texas, United States

Feed Status: UP
Listen in your browser - HTML5 player(in browser, HTML5)
Click here to listen with your own player(launches your MP3 player)

KDFW 212153Z 33007G16KT 300V360 10SM BKN250 24/M01 A3011 RMK AO2 SLP193 T02441006

KDFW Airport Info (Airnav.com)

KDFW Flight Activity (Flightaware)

Listeners: 0 out of 1349 total

DFW Clearance Delivery: 128.250

KDFW Ground (East/121.65) (Archives)
Dallas, Texas, United States

Feed Status: UP
Listen in your browser - HTML5 player(in browser, HTML5)
Click here to listen with your own player(launches your MP3 player)

KDFW 212153Z 33007G16KT 300V360 10SM BKN250 24/M01 A3011 RMK AO2 SLP193 T02441006

KDFW Airport Info (Airnav.com)

KDFW Flight Activity (Flightaware)

Listeners: 0 out of 1349 total

DFW Ground (East): 121.650

KDFW Ground (East/121.8) (Archives)
Dallas, Texas, United States

Feed Status: UP
Listen in your browser - HTML5 player(in browser, HTML5)
Click here to listen with your own player(launches your MP3 player)

KDFW 212153Z 33007G16KT 300V360 10SM BKN250 24/M01 A3011 RMK AO2 SLP193 T02441006

KDFW Airport Info (Airnav.com)

KDFW Flight Activity (Flightaware)

Listeners: 0 out of 1349 total

DFW Ground (East): 121.800

KDFW Ground (West) (Archives)
Dallas, Texas, United States

Feed Status: UP
Listen in your browser - HTML5 player(in browser, HTML5)
Click here to listen with your own player(launches your MP3 player)

KDFW 212153Z 33007G16KT 300V360 10SM BKN250 24/M01 A3011 RMK AO2 SLP193 T02441006

KDFW Airport Info (Airnav.com)

KDFW Flight Activity (Flightaware)

Listeners: 1 out of 1349 total

DFW Ground (West): 121.850

KDFW Reg App 17/35C Final (Archives)
Dallas, Texas, United States

Feed Status: UP
Listen in your browser - HTML5 player(in browser, HTML5)
Click here to listen with your own player(launches your MP3 player)

KDFW 212153Z 33007G16KT 300V360 10SM BKN250 24/M01 A3011 RMK AO2 SLP193 T02441006

KDFW Airport Info (Airnav.com)

KDFW Flight Activity (Flightaware)

Listeners: 1 out of 1349 total

Regional Approach (Rwy 17C Final): 127.075

KDFW Reg App 17L/35R Final (Archives)
Dallas, Texas, United States

Feed Status: UP
Listen in your browser - HTML5 player(in browser, HTML5)
Click here to listen with your own player(launches your MP3 player)

KDFW 212153Z 33007G16KT 300V360 10SM BKN250 24/M01 A3011 RMK AO2 SLP193 T02441006

KDFW Airport Info (Airnav.com)

KDFW Flight Activity (Flightaware)

Listeners: 0 out of 1349 total

Regional Approach (Rwy 17L Final): 119.400

KDFW Reg App 18R/36L Final (Archives)
Dallas, Texas, United States

Feed Status: UP
Listen in your browser - HTML5 player(in browser, HTML5)
Click here to listen with your own player(launches your MP3 player)

KDFW 212153Z 33007G16KT 300V360 10SM BKN250 24/M01 A3011 RMK AO2 SLP193 T02441006

KDFW Airport Info (Airnav.com)

KDFW Flight Activity (Flightaware)

Listeners: 0 out of 1349 total

Regional Approach (Rwy 18R Final): 118.425

KDFW Reg App Feeder (East) (Archives)
Dallas, Texas, United States

Feed Status: UP
Listen in your browser - HTML5 player(in browser, HTML5)
Click here to listen with your own player(launches your MP3 player)

KDFW 212153Z 33007G16KT 300V360 10SM BKN250 24/M01 A3011 RMK AO2 SLP193 T02441006

KDFW Airport Info (Airnav.com)

KDFW Flight Activity (Flightaware)

Listeners: 1 out of 1349 total

Regional Approach (Feeder East): 125.025

KDFW Reg App Feeder (West) (Archives)
Dallas, Texas, United States

Feed Status: UP
Listen in your browser - HTML5 player(in browser, HTML5)
Click here to listen with your own player(launches your MP3 player)

KDFW 212153Z 33007G16KT 300V360 10SM BKN250 24/M01 A3011 RMK AO2 SLP193 T02441006

KDFW Airport Info (Airnav.com)

KDFW Flight Activity (Flightaware)

Listeners: 0 out of 1349 total

Regional Approach (DFW Feeder West): 119.875

KDFW Reg Dep (East) (Archives)
Dallas, Texas, United States

Feed Status: UP
Listen in your browser - HTML5 player(in browser, HTML5)
Click here to listen with your own player(launches your MP3 player)

KDFW 212153Z 33007G16KT 300V360 10SM BKN250 24/M01 A3011 RMK AO2 SLP193 T02441006

KDFW Airport Info (Airnav.com)

KDFW Flight Activity (Flightaware)

Listeners: 0 out of 1349 total

Regional Departure (East): 118.550

KDFW Reg Dep (North/South) (Archives)
Dallas, Texas, United States

Feed Status: UP
Listen in your browser - HTML5 player(in browser, HTML5)
Click here to listen with your own player(launches your MP3 player)

KDFW 212153Z 33007G16KT 300V360 10SM BKN250 24/M01 A3011 RMK AO2 SLP193 T02441006

KDFW Airport Info (Airnav.com)

KDFW Flight Activity (Flightaware)

Listeners: 0 out of 1349 total

Regional Departure (North/South): 125.125

KDFW Reg Dep (West) (Archives)
Dallas, Texas, United States

Feed Status: UP
Listen in your browser - HTML5 player(in browser, HTML5)
Click here to listen with your own player(launches your MP3 player)

KDFW 212153Z 33007G16KT 300V360 10SM BKN250 24/M01 A3011 RMK AO2 SLP193 T02441006

KDFW Airport Info (Airnav.com)

KDFW Flight Activity (Flightaware)

Listeners: 0 out of 1349 total

Regional Departure (West): 126.475

KDFW Tower (East) (Archives)
Dallas, Texas, United States

Feed Status: UP
Listen in your browser - HTML5 player(in browser, HTML5)
Click here to listen with your own player(launches your MP3 player)

KDFW 212153Z 33007G16KT 300V360 10SM BKN250 24/M01 A3011 RMK AO2 SLP193 T02441006

KDFW Airport Info (Airnav.com)

KDFW Flight Activity (Flightaware)

Listeners: 3 out of 1349 total

DFW Tower (East): 126.550
DFW Tower (East): 127.500

KDFW Tower (West) (Archives)
Dallas, Texas, United States

Feed Status: UP
Listen in your browser - HTML5 player(in browser, HTML5)
Click here to listen with your own player(launches your MP3 player)

KDFW 212153Z 33007G16KT 300V360 10SM BKN250 24/M01 A3011 RMK AO2 SLP193 T02441006

KDFW Airport Info (Airnav.com)

KDFW Flight Activity (Flightaware)

Listeners: 2 out of 1349 total

DFW Tower (West): 124.150

Regional Approach (Feeder 2/East) (Archives)
Dallas, Texas, United States

Feed Status: UP
Listen in your browser - HTML5 player(in browser, HTML5)
Click here to listen with your own player(launches your MP3 player)

KRBD 212153Z 31009KT 10SM CLR 23/02 A3012 RMK AO2 SLP195 T02330017

KRBD Airport Info (Airnav.com)

KRBD Flight Activity (Flightaware)

Listeners: 1 out of 1349 total

Regional Approach (Feeder 2/East): 133.525

KDPA Chicago Approach (Archives)
Chicago, Illinois, United States

Feed Status: UP
Listen in your browser - HTML5 player(in browser, HTML5)
Click here to listen with your own player(launches your MP3 player)

KORD 212151Z 30009KT 10SM OVC032 07/00 A2997 RMK AO2 SLP151 T00670000

KORD Airport Info (Airnav.com)

KORD Flight Activity (Flightaware)

Listeners: 0 out of 1349 total

Chicago Approach/Departure: 133.500

KEWR ATIS (Archives)
Newark, New York, United States

Feed Status: UP
Listen in your browser - HTML5 player(in browser, HTML5)
Click here to listen with your own player(launches your MP3 player)

KEWR 212151Z 05008KT 4SM RA BR FEW008 BKN022 OVC048 08/07 A2985 RMK AO2 SLP106 P0009 T00830067

KEWR Airport Info (Airnav.com)

KEWR Flight Activity (Flightaware)

Listeners: 0 out of 1349 total

Newark ATIS: 134.825

KEWR Clearance Delivery (Archives)
Newark, New Jersey, United States

Feed Status: UP
Listen in your browser - HTML5 player(in browser, HTML5)
Click here to listen with your own player(launches your MP3 player)

KEWR 212151Z 05008KT 4SM RA BR FEW008 BKN022 OVC048 08/07 A2985 RMK AO2 SLP106 P0009 T00830067

KEWR Airport Info (Airnav.com)

KEWR Flight Activity (Flightaware)

Listeners: 0 out of 1349 total

Newark Clearance Delivery: 118.850

KEWR Del/Gnd (Archives)
Newark, New Jersey, United States

Feed Status: UP
Listen in your browser - HTML5 player(in browser, HTML5)
Click here to listen with your own player(launches your MP3 player)

KEWR 212151Z 05008KT 4SM RA BR FEW008 BKN022 OVC048 08/07 A2985 RMK AO2 SLP106 P0009 T00830067

KEWR Airport Info (Airnav.com)

KEWR Flight Activity (Flightaware)

Listeners: 0 out of 1349 total

Newark Clearance Delivery: 118.850
Newark Gate Hold: 132.450
Newark Ground (Pre-Taxi): 126.150
Newark Ground (Primary): 121.800

Sponsored by LiveATC

KEWR Ground (Archives)
Newark, New Jersey, United States

Feed Status: UP
Listen in your browser - HTML5 player(in browser, HTML5)
Click here to listen with your own player(launches your MP3 player)

KEWR 212151Z 05008KT 4SM RA BR FEW008 BKN022 OVC048 08/07 A2985 RMK AO2 SLP106 P0009 T00830067

KEWR Airport Info (Airnav.com)

KEWR Flight Activity (Flightaware)

Listeners: 1 out of 1349 total

Newark Ground (Primary): 121.800

KEWR Ground (Pre-Taxi) (Archives)
Newark, New Jersey, United States

Feed Status: UP
Listen in your browser - HTML5 player(in browser, HTML5)
Click here to listen with your own player(launches your MP3 player)

KEWR 212151Z 05008KT 4SM RA BR FEW008 BKN022 OVC048 08/07 A2985 RMK AO2 SLP106 P0009 T00830067

KEWR Airport Info (Airnav.com)

KEWR Flight Activity (Flightaware)

Listeners: 0 out of 1349 total

Newark Ground (Pre-Taxi): 126.150

KEWR NY App (ARD Sector) #1 (Archives)
Newark, New York, United States

Feed Status: UP
Listen in your browser - HTML5 player(in browser, HTML5)
Click here to listen with your own player(launches your MP3 player)

KEWR 212151Z 05008KT 4SM RA BR FEW008 BKN022 OVC048 08/07 A2985 RMK AO2 SLP106 P0009 T00830067

KEWR Airport Info (Airnav.com)

KEWR Flight Activity (Flightaware)

Listeners: 0 out of 1349 total

New York Approach (ARD Sector): 128.550

KEWR NY App (ARD Sector) #2 (Archives)
Newark, New York, United States

Feed Status: UP
Listen in your browser - HTML5 player(in browser, HTML5)
Click here to listen with your own player(launches your MP3 player)

KEWR 212151Z 05008KT 4SM RA BR FEW008 BKN022 OVC048 08/07 A2985 RMK AO2 SLP106 P0009 T00830067

KEWR Airport Info (Airnav.com)

KEWR Flight Activity (Flightaware)

Listeners: 0 out of 1349 total

New York Approach (ARD Sector): 128.550

Sponsored by LiveATC

KEWR NY App (EWR Satellite) (Archives)
Newark, New Jersey, United States

Feed Status: UP
Listen in your browser - HTML5 player(in browser, HTML5)
Click here to listen with your own player(launches your MP3 player)

KEWR 212151Z 05008KT 4SM RA BR FEW008 BKN022 OVC048 08/07 A2985 RMK AO2 SLP106 P0009 T00830067

KEWR Airport Info (Airnav.com)

KEWR Flight Activity (Flightaware)

Listeners: 0 out of 1349 total

New York Approach (EWR Satellite): 126.700

KEWR NY App (MUGZY Sector) #1 (Archives)
Newark, New Jersey, United States

Feed Status: UP
Listen in your browser - HTML5 player(in browser, HTML5)
Click here to listen with your own player(launches your MP3 player)

KEWR 212151Z 05008KT 4SM RA BR FEW008 BKN022 OVC048 08/07 A2985 RMK AO2 SLP106 P0009 T00830067

KEWR Airport Info (Airnav.com)

KEWR Flight Activity (Flightaware)

Listeners: 0 out of 1349 total

New York Approach (MUGZY Sector): 127.600

KEWR NY App (N. Arrival) #1 (Archives)
Newark, New Jersey, United States

Feed Status: UP
Listen in your browser - HTML5 player(in browser, HTML5)
Click here to listen with your own player(launches your MP3 player)

KEWR 212151Z 05008KT 4SM RA BR FEW008 BKN022 OVC048 08/07 A2985 RMK AO2 SLP106 P0009 T00830067

KEWR Airport Info (Airnav.com)

KEWR Flight Activity (Flightaware)

Listeners: 0 out of 1349 total

New York Approach (North Arrival): 120.150

KEWR NY Departure #1 (Archives)
Newark, New Jersey, United States

Feed Status: UP
Listen in your browser - HTML5 player(in browser, HTML5)
Click here to listen with your own player(launches your MP3 player)

KEWR 212151Z 05008KT 4SM RA BR FEW008 BKN022 OVC048 08/07 A2985 RMK AO2 SLP106 P0009 T00830067

KEWR Airport Info (Airnav.com)

KEWR Flight Activity (Flightaware)

Listeners: 1 out of 1349 total

New York Departure: 119.200

Sponsored by LiveATC

KEWR NY Departure #2 (Archives)
Newark, New Jersey, United States

Feed Status: UP
Listen in your browser - HTML5 player(in browser, HTML5)
Click here to listen with your own player(launches your MP3 player)

KEWR 212151Z 05008KT 4SM RA BR FEW008 BKN022 OVC048 08/07 A2985 RMK AO2 SLP106 P0009 T00830067

KEWR Airport Info (Airnav.com)

KEWR Flight Activity (Flightaware)

Listeners: 0 out of 1349 total

New York Departure: 119.200

KEWR Tower #1 (Archives)
Newark, New Jersey, United States

Feed Status: UP
Listen in your browser - HTML5 player(in browser, HTML5)
Click here to listen with your own player(launches your MP3 player)

KEWR 212151Z 05008KT 4SM RA BR FEW008 BKN022 OVC048 08/07 A2985 RMK AO2 SLP106 P0009 T00830067

KEWR Airport Info (Airnav.com)

KEWR Flight Activity (Flightaware)

Listeners: 3 out of 1349 total

Newark Tower: 118.300
Newark Tower (Backup): 134.050
Newark Tower (TCA): 127.850

Sponsored by LiveATC

KEWR Tower #2 (Archives)
Newark, New Jersey, United States

Feed Status: UP
Listen in your browser - HTML5 player(in browser, HTML5)
Click here to listen with your own player(launches your MP3 player)

KEWR 212151Z 05008KT 4SM RA BR FEW008 BKN022 OVC048 08/07 A2985 RMK AO2 SLP106 P0009 T00830067

KEWR Airport Info (Airnav.com)

KEWR Flight Activity (Flightaware)

Listeners: 0 out of 1349 total

Newark Tower: 118.300

KEWR Tower (TCA) (Archives)
Newark, New Jersey, United States

Feed Status: UP
Listen in your browser - HTML5 player(in browser, HTML5)
Click here to listen with your own player(launches your MP3 player)

KEWR 212151Z 05008KT 4SM RA BR FEW008 BKN022 OVC048 08/07 A2985 RMK AO2 SLP106 P0009 T00830067

KEWR Airport Info (Airnav.com)

KEWR Flight Activity (Flightaware)

Listeners: 0 out of 1349 total

Newark Tower (TCA/2000' and below): 127.850

NY Departure (Liberty South) #1 (Archives)
Newark, New Jersey, United States

Feed Status: UP
Listen in your browser - HTML5 player(in browser, HTML5)
Click here to listen with your own player(launches your MP3 player)

KEWR 212151Z 05008KT 4SM RA BR FEW008 BKN022 OVC048 08/07 A2985 RMK AO2 SLP106 P0009 T00830067

KEWR Airport Info (Airnav.com)

KEWR Flight Activity (Flightaware)

Listeners: 0 out of 1349 total

New York Departure (Liberty South): 124.750

NY Departure (Liberty West) #1 (Archives)
Newark, New Jersey, United States

Feed Status: UP
Listen in your browser - HTML5 player(in browser, HTML5)
Click here to listen with your own player(launches your MP3 player)

KEWR 212151Z 05008KT 4SM RA BR FEW008 BKN022 OVC048 08/07 A2985 RMK AO2 SLP106 P0009 T00830067

KEWR Airport Info (Airnav.com)

KEWR Flight Activity (Flightaware)

Listeners: 0 out of 1349 total

New York Departure (Liberty West): 120.850

NY Departure (Liberty West) #2 (Archives)
Newark, New Jersey, United States

Feed Status: UP
Listen in your browser - HTML5 player(in browser, HTML5)
Click here to listen with your own player(launches your MP3 player)

KEWR 212151Z 05008KT 4SM RA BR FEW008 BKN022 OVC048 08/07 A2985 RMK AO2 SLP106 P0009 T00830067

KEWR Airport Info (Airnav.com)

KEWR Flight Activity (Flightaware)

Listeners: 0 out of 1349 total

New York Departure (Liberty West): 120.850

KFLL Departure (Archives)
Fort Lauderdale, Florida, United States

Feed Status: UP
Listen in your browser - HTML5 player(in browser, HTML5)
Click here to listen with your own player(launches your MP3 player)

KMIA 212153Z 30006KT 10SM SCT046 26/14 A2992 RMK AO2 SLP131 T02560144

KMIA Airport Info (Airnav.com)

KMIA Flight Activity (Flightaware)

Listeners: 0 out of 1349 total

Miami Departure (FLL): 126.050

KMIA Approach (KFLL) (Archives)
Miami, Florida, United States

Feed Status: UP
Listen in your browser - HTML5 player(in browser, HTML5)
Click here to listen with your own player(launches your MP3 player)

KMIA 212153Z 30006KT 10SM SCT046 26/14 A2992 RMK AO2 SLP131 T02560144

KMIA Airport Info (Airnav.com)

KMIA Flight Activity (Flightaware)

Listeners: 1 out of 1349 total

Miami Approach (KFLL): 133.775

KHOU Gnd/Twr/App (Archives)
Houston, Texas, United States

Feed Status: UP
Listen in your browser - HTML5 player(in browser, HTML5)
Click here to listen with your own player(launches your MP3 player)

KHOU 212217Z VRB04KT 10SM FEW250 25/01 A3012 RMK AO2 T02500006

KHOU Airport Info (Airnav.com)

KHOU Flight Activity (Flightaware)

Listeners: 3 out of 1349 total

Hobby Approach (Final): 133.050
Hobby Ground: 121.900
Hobby Tower: 118.700

NY Approach (NOBBI/NYACK/HAARP) (Archives)
New York, New York, United States

Feed Status: UP
Listen in your browser - HTML5 player(in browser, HTML5)
Click here to listen with your own player(launches your MP3 player)

KHPN 212156Z 10009G18KT 10SM SCT065 BKN080 06/03 A2986 RMK AO2 RAE35 SLP118 P0001 T00560033

KHPN Airport Info (Airnav.com)

KHPN Flight Activity (Flightaware)

Listeners: 1 out of 1349 total

New York Approach (HAARP Sector): 135.350
New York Approach (NOBBI Sector): 126.400
New York Approach (NYACK Sector): 120.550

Feed sponsored by: Academy of Aviation and LiveATC.net

KIAD App (Final Center) (Archives)
Washington, District of Columbia, United States

Feed Status: UP
Listen in your browser - HTML5 player(in browser, HTML5)
Click here to listen with your own player(launches your MP3 player)

KIAD 212228Z 32014G21KT 6SM -RA BR BKN011 BKN016 OVC042 06/04 A2966 RMK AO2 P0011 T00610044

KIAD Airport Info (Airnav.com)

KIAD Flight Activity (Flightaware)

Listeners: 0 out of 1349 total

Potomac Approach (IADFC, Final Center): 134.200

KIAD App (Final East) (Archives)
Washington, District of Columbia, United States

Feed Status: UP
Listen in your browser - HTML5 player(in browser, HTML5)
Click here to listen with your own player(launches your MP3 player)

KIAD 212228Z 32014G21KT 6SM -RA BR BKN011 BKN016 OVC042 06/04 A2966 RMK AO2 P0011 T00610044

KIAD Airport Info (Airnav.com)

KIAD Flight Activity (Flightaware)

Listeners: 2 out of 1349 total

Potomac Approach (IADFE KIAD Final East): 125.800

KIAD App (North Arr Hi) (Archives)
Washington, District of Columbia, United States

Feed Status: UP
Listen in your browser - HTML5 player(in browser, HTML5)
Click here to listen with your own player(launches your MP3 player)

KIAD 212228Z 32014G21KT 6SM -RA BR BKN011 BKN016 OVC042 06/04 A2966 RMK AO2 P0011 T00610044

KIAD Airport Info (Airnav.com)

KIAD Flight Activity (Flightaware)

Listeners: 1 out of 1349 total

Potomac Approach (BINNS, North Arrival High): 133.000

KIAD App (South Arrival) (Archives)
Washington, District of Columbia, United States

Feed Status: UP
Listen in your browser - HTML5 player(in browser, HTML5)
Click here to listen with your own player(launches your MP3 player)

KIAD 212228Z 32014G21KT 6SM -RA BR BKN011 BKN016 OVC042 06/04 A2966 RMK AO2 P0011 T00610044

KIAD Airport Info (Airnav.com)

KIAD Flight Activity (Flightaware)

Listeners: 1 out of 1349 total

Potomac Approach (BARIN Sector, South Arrival): 128.525
Potomac Approach (BRISTO Sector, South Satellite): 120.825

KIAD App (West Arrival MANNE) (Archives)
Washington, District of Columbia, United States

Feed Status: UP
Listen in your browser - HTML5 player(in browser, HTML5)
Click here to listen with your own player(launches your MP3 player)

KIAD 212228Z 32014G21KT 6SM -RA BR BKN011 BKN016 OVC042 06/04 A2966 RMK AO2 P0011 T00610044

KIAD Airport Info (Airnav.com)

KIAD Flight Activity (Flightaware)

Listeners: 0 out of 1349 total

Potomac Approach (MANNE Sector, West Arrival): 120.450

KIAD Approach (North Arrival MULRR) (Archives)
Washington, District of Columbia, United States

Feed Status: UP
Listen in your browser - HTML5 player(in browser, HTML5)
Click here to listen with your own player(launches your MP3 player)

KIAD 212228Z 32014G21KT 6SM -RA BR BKN011 BKN016 OVC042 06/04 A2966 RMK AO2 P0011 T00610044

KIAD Airport Info (Airnav.com)

KIAD Flight Activity (Flightaware)

Listeners: 0 out of 1349 total

Potomac Approach (North Arrival MULLR): 126.100

KIAD Area - SFRA West (Archives)
Washington, District of Columbia, United States

Feed Status: UP
Listen in your browser - HTML5 player(in browser, HTML5)
Click here to listen with your own player(launches your MP3 player)

KIAD 212228Z 32014G21KT 6SM -RA BR BKN011 BKN016 OVC042 06/04 A2966 RMK AO2 P0011 T00610044

KIAD Airport Info (Airnav.com)

KIAD Flight Activity (Flightaware)

Listeners: 0 out of 1349 total

Potomac Approach (SFRA West): 127.325

KIAD Del/Gnd (Archives)
Washington, District of Columbia, United States

Feed Status: UP
Listen in your browser - HTML5 player(in browser, HTML5)
Click here to listen with your own player(launches your MP3 player)

KIAD 212228Z 32014G21KT 6SM -RA BR BKN011 BKN016 OVC042 06/04 A2966 RMK AO2 P0011 T00610044

KIAD Airport Info (Airnav.com)

KIAD Flight Activity (Flightaware)

Listeners: 0 out of 1349 total

Dulles Clearance Delivery: 135.700
Dulles Ground (East): 121.900
Dulles Ground (West): 121.625
Dulles Ground (West): 132.450

KIAD Departure (Archives)
Washington, District of Columbia, United States

Feed Status: UP
Listen in your browser - HTML5 player(in browser, HTML5)
Click here to listen with your own player(launches your MP3 player)

KIAD 212228Z 32014G21KT 6SM -RA BR BKN011 BKN016 OVC042 06/04 A2966 RMK AO2 P0011 T00610044

KIAD Airport Info (Airnav.com)

KIAD Flight Activity (Flightaware)

Listeners: 1 out of 1349 total

Potomac Departure (KIAD North Dep ASPER): 125.050
Potomac Departure (KIAD South Dep ASPER): 126.650

KIAD Twr (Rwy 1C/19C) (Archives)
Washington, District of Columbia, United States

Feed Status: UP
Listen in your browser - HTML5 player(in browser, HTML5)
Click here to listen with your own player(launches your MP3 player)

KIAD 212228Z 32014G21KT 6SM -RA BR BKN011 BKN016 OVC042 06/04 A2966 RMK AO2 P0011 T00610044

KIAD Airport Info (Airnav.com)

KIAD Flight Activity (Flightaware)

Listeners: 0 out of 1349 total

Dulles Tower (Rwy 1C/19C): 120.250

KIAD Twr (Rwy 1L/19R/12/30) (Archives)
Washington, District of Columbia, United States

Feed Status: UP
Listen in your browser - HTML5 player(in browser, HTML5)
Click here to listen with your own player(launches your MP3 player)

KIAD 212228Z 32014G21KT 6SM -RA BR BKN011 BKN016 OVC042 06/04 A2966 RMK AO2 P0011 T00610044

KIAD Airport Info (Airnav.com)

KIAD Flight Activity (Flightaware)

Listeners: 0 out of 1349 total

Dulles Tower (Rwys 1L/19R/12/30): 134.425

KIAD Twr (Rwy 1L/1C/19R/19C) (Archives)
Washington, District of Columbia, United States

Feed Status: UP
Listen in your browser - HTML5 player(in browser, HTML5)
Click here to listen with your own player(launches your MP3 player)

KIAD 212228Z 32014G21KT 6SM -RA BR BKN011 BKN016 OVC042 06/04 A2966 RMK AO2 P0011 T00610044

KIAD Airport Info (Airnav.com)

KIAD Flight Activity (Flightaware)

Listeners: 0 out of 1349 total

Dulles Tower (Rwy 1C/19C): 120.250
Dulles Tower (Rwys 1L/19R/12/30): 134.425

KIAD Twr (Rwy 1R/19L) (Archives)
Washington, District of Columbia, United States

Feed Status: UP
Listen in your browser - HTML5 player(in browser, HTML5)
Click here to listen with your own player(launches your MP3 player)

KIAD 212228Z 32014G21KT 6SM -RA BR BKN011 BKN016 OVC042 06/04 A2966 RMK AO2 P0011 T00610044

KIAD Airport Info (Airnav.com)

KIAD Flight Activity (Flightaware)

Listeners: 0 out of 1349 total

Dulles Tower (Rwy 1R/19L): 120.100

KIAH Approach (Archives)
Houston, Texas, United States

Feed Status: UP
Listen in your browser - HTML5 player(in browser, HTML5)
Click here to listen with your own player(launches your MP3 player)

KIAH 212153Z 22004KT 10SM FEW250 26/02 A3013 RMK AO2 SLP202 T02560017

KIAH Airport Info (Airnav.com)

KIAH Flight Activity (Flightaware)

Listeners: 1 out of 1349 total

Houston Approach (backup): 121.250
Houston Approach (NE): 120.050
Houston Approach (NW): 124.350
Houston Approach (SE): 119.625
Houston Approach (SW): 119.175
Houston Departure (East, Low): 133.600
Houston Departure (NE High): 132.250
Houston Departure (North, Low): 119.700
Houston Departure (South High): 127.125
Houston Departure (South, Low): 134.450
Houston Departure (West High): 126.675
Houston Departure (West, Low): 123.800
Houston Final (8L/26R): 119.100
Houston Final (8R/26L): 120.650
Houston Final (9/27): 134.000

Sponsored by LiveATC.net

KIAH ATIS (Construction) (Archives)
Houston, Texas, United States

Feed Status: UP
Listen in your browser - HTML5 player(in browser, HTML5)
Click here to listen with your own player(launches your MP3 player)

KIAH 212153Z 22004KT 10SM FEW250 26/02 A3013 RMK AO2 SLP202 T02560017

KIAH Airport Info (Airnav.com)

KIAH Flight Activity (Flightaware)

Listeners: 0 out of 1349 total

Houston ATIS (Construction): 126.225

KIAH ATIS (Main) (Archives)
Houston, Texas, United States

Feed Status: UP
Listen in your browser - HTML5 player(in browser, HTML5)
Click here to listen with your own player(launches your MP3 player)

KIAH 212153Z 22004KT 10SM FEW250 26/02 A3013 RMK AO2 SLP202 T02560017

KIAH Airport Info (Airnav.com)

KIAH Flight Activity (Flightaware)

Listeners: 0 out of 1349 total

Houston D-ATIS: 124.050

KIAH Clearance Delivery (Archives)
Houston, Texas, United States

Feed Status: UP
Listen in your browser - HTML5 player(in browser, HTML5)
Click here to listen with your own player(launches your MP3 player)

KIAH 212153Z 22004KT 10SM FEW250 26/02 A3013 RMK AO2 SLP202 T02560017

KIAH Airport Info (Airnav.com)

KIAH Flight Activity (Flightaware)

Listeners: 0 out of 1349 total

Houston Clearance Delivery: 128.100

KIAH Gnd (North/Rwys 8/26LR) (Archives)
Houston, Texas, United States

Feed Status: UP
Listen in your browser - HTML5 player(in browser, HTML5)
Click here to listen with your own player(launches your MP3 player)

KIAH 212153Z 22004KT 10SM FEW250 26/02 A3013 RMK AO2 SLP202 T02560017

KIAH Airport Info (Airnav.com)

KIAH Flight Activity (Flightaware)

Listeners: 1 out of 1349 total

Houston Ground (North/Runways 8/26RL): 121.700

KIAH Gnd (South/Rwy 9/27) (Archives)
Houston, Texas, United States

Feed Status: UP
Listen in your browser - HTML5 player(in browser, HTML5)
Click here to listen with your own player(launches your MP3 player)

KIAH 212153Z 22004KT 10SM FEW250 26/02 A3013 RMK AO2 SLP202 T02560017

KIAH Airport Info (Airnav.com)

KIAH Flight Activity (Flightaware)

Listeners: 0 out of 1349 total

Houston Ground (South): 119.825

KIAH Gnd (West/Rwys 15/33LR) (Archives)
Houston, Texas, United States

Feed Status: UP
Listen in your browser - HTML5 player(in browser, HTML5)
Click here to listen with your own player(launches your MP3 player)

KIAH 212153Z 22004KT 10SM FEW250 26/02 A3013 RMK AO2 SLP202 T02560017

KIAH Airport Info (Airnav.com)

KIAH Flight Activity (Flightaware)

Listeners: 0 out of 1349 total

Houston Ground (West): 118.575

KIAH Metering (Archives)
Houston, Texas, United States

Feed Status: UP
Listen in your browser - HTML5 player(in browser, HTML5)
Click here to listen with your own player(launches your MP3 player)

KIAH 212153Z 22004KT 10SM FEW250 26/02 A3013 RMK AO2 SLP202 T02560017

KIAH Airport Info (Airnav.com)

KIAH Flight Activity (Flightaware)

Listeners: 0 out of 1349 total

Houston Metering: 119.950

KIAH Ramp (North) (Archives)
Houston, Texas, United States

Feed Status: UP
Listen in your browser - HTML5 player(in browser, HTML5)
Click here to listen with your own player(launches your MP3 player)

KIAH 212153Z 22004KT 10SM FEW250 26/02 A3013 RMK AO2 SLP202 T02560017

KIAH Airport Info (Airnav.com)

KIAH Flight Activity (Flightaware)

Listeners: 0 out of 1349 total

Houston Ramp (North): 130.825

KIAH Ramp (South) (Archives)
Houston, Texas, United States

Feed Status: UP
Listen in your browser - HTML5 player(in browser, HTML5)
Click here to listen with your own player(launches your MP3 player)

KIAH 212153Z 22004KT 10SM FEW250 26/02 A3013 RMK AO2 SLP202 T02560017

KIAH Airport Info (Airnav.com)

KIAH Flight Activity (Flightaware)

Listeners: 0 out of 1349 total

Houston Ramp (South): 131.275

KIAH Ramp (West) (Archives)
Houston, Texas, United States

Feed Status: UP
Listen in your browser - HTML5 player(in browser, HTML5)
Click here to listen with your own player(launches your MP3 player)

KIAH 212153Z 22004KT 10SM FEW250 26/02 A3013 RMK AO2 SLP202 T02560017

KIAH Airport Info (Airnav.com)

KIAH Flight Activity (Flightaware)

Listeners: 0 out of 1349 total

Houston Ramp (West): 121.625

KIAH Tower (Archives)
Houston, Texas, United States

Feed Status: UP
Listen in your browser - HTML5 player(in browser, HTML5)
Click here to listen with your own player(launches your MP3 player)

KIAH 212153Z 22004KT 10SM FEW250 26/02 A3013 RMK AO2 SLP202 T02560017

KIAH Airport Info (Airnav.com)

KIAH Flight Activity (Flightaware)

Listeners: 0 out of 1349 total

Houston Tower: 119.825
Houston Tower: 120.725
Houston Tower (15L/33R & 15R/33L): 127.300
Houston Tower (8R/26L): 125.350
Houston Tower (9/27): 135.150

Sponsored by LiveATC.net

KIAH Twr (Rwy 8L/26R) (Archives)
Houston, Texas, United States

Feed Status: UP
Listen in your browser - HTML5 player(in browser, HTML5)
Click here to listen with your own player(launches your MP3 player)

KIAH 212153Z 22004KT 10SM FEW250 26/02 A3013 RMK AO2 SLP202 T02560017

KIAH Airport Info (Airnav.com)

KIAH Flight Activity (Flightaware)

Listeners: 1 out of 1349 total

Houston Tower (Runway 8L/26R): 120.725

KIAH Twr (Rwy 8R/26L) (Archives)
Houston, Texas, United States

Feed Status: UP
Listen in your browser - HTML5 player(in browser, HTML5)
Click here to listen with your own player(launches your MP3 player)

KIAH 212153Z 22004KT 10SM FEW250 26/02 A3013 RMK AO2 SLP202 T02560017

KIAH Airport Info (Airnav.com)

KIAH Flight Activity (Flightaware)

Listeners: 0 out of 1349 total

Houston Tower (Runway 8R/26L): 125.350

KIAH Twr (Rwy 9/27) (Archives)
Houston, Texas, United States

Feed Status: UP
Listen in your browser - HTML5 player(in browser, HTML5)
Click here to listen with your own player(launches your MP3 player)

KIAH 212153Z 22004KT 10SM FEW250 26/02 A3013 RMK AO2 SLP202 T02560017

KIAH Airport Info (Airnav.com)

KIAH Flight Activity (Flightaware)

Listeners: 0 out of 1349 total

Houston Tower (Rwy 09/27): 135.150

KIAH Twr (Rwys 15/33RL) (Archives)
Houston, Texas, United States

Feed Status: UP
Listen in your browser - HTML5 player(in browser, HTML5)
Click here to listen with your own player(launches your MP3 player)

KIAH 212153Z 22004KT 10SM FEW250 26/02 A3013 RMK AO2 SLP202 T02560017

KIAH Airport Info (Airnav.com)

KIAH Flight Activity (Flightaware)

Listeners: 0 out of 1349 total

Houston Tower (Runways 15/33LR): 127.300

ARINC (JFK/LGA Area) (Archives)
New York, New York, United States

Feed Status: UP
Listen in your browser - HTML5 player(in browser, HTML5)
Click here to listen with your own player(launches your MP3 player)

KJFK 212151Z 09017G21KT 6SM RA BR FEW028 BKN037 OVC050 08/06 A2987 RMK AO2 SLP114 P0003 T00780061

KJFK Airport Info (Airnav.com)

KJFK Flight Activity (Flightaware)

Listeners: 2 out of 1349 total

ARINC (KJFK Ground Station): 129.900
ARINC (KLGA Ground Station): 129.400

KJFK Clearance Delivery (Archives)
New York, New York, United States

Feed Status: UP
Listen in your browser - HTML5 player(in browser, HTML5)
Click here to listen with your own player(launches your MP3 player)

KJFK 212151Z 09017G21KT 6SM RA BR FEW028 BKN037 OVC050 08/06 A2987 RMK AO2 SLP114 P0003 T00780061

KJFK Airport Info (Airnav.com)

KJFK Flight Activity (Flightaware)

Listeners: 3 out of 1349 total

JFK Clearance Delivery: 135.050

Sponsored by LiveATC

KJFK Company Channels (Archives)
New York, New York, United States

Feed Status: UP
Listen in your browser - HTML5 player(in browser, HTML5)
Click here to listen with your own player(launches your MP3 player)

KJFK 212151Z 09017G21KT 6SM RA BR FEW028 BKN037 OVC050 08/06 A2987 RMK AO2 SLP114 P0003 T00780061

KJFK Airport Info (Airnav.com)

KJFK Flight Activity (Flightaware)

Listeners: 1 out of 1349 total

Cargoitalia: 131.400
Chautauqua: 130.850
Chautauqua, Comair, Republic, Freedom Air: 129.475
Continental: 131.500
Delta: 129.650
Evergreen Intl: 129.625
JetBlue: 136.550
JetBlue: 129.100
JetBlue: 129.825
North American: 129.750
North American: 129.000
North American (Primary): 131.750
Sun Country: 131.950

Sponsored by LiveATC

KJFK D-ATIS (Archives)
New York, New York, United States

Feed Status: UP
Listen in your browser - HTML5 player(in browser, HTML5)
Click here to listen with your own player(launches your MP3 player)

KJFK 212151Z 09017G21KT 6SM RA BR FEW028 BKN037 OVC050 08/06 A2987 RMK AO2 SLP114 P0003 T00780061

KJFK Airport Info (Airnav.com)

KJFK Flight Activity (Flightaware)

Listeners: 2 out of 1349 total

KJFK D-ATIS: 128.725

KJFK Gnd/Twr #1 (Archives)
New York, New York, United States

Feed Status: UP
Listen in your browser - HTML5 player(in browser, HTML5)
Click here to listen with your own player(launches your MP3 player)

KJFK 212151Z 09017G21KT 6SM RA BR FEW028 BKN037 OVC050 08/06 A2987 RMK AO2 SLP114 P0003 T00780061

KJFK Airport Info (Airnav.com)

KJFK Flight Activity (Flightaware)

Listeners: 9 out of 1349 total

JFK Ground: 121.900
JFK Ground: 121.650
JFK Tower (4L/22R, 13R/31L): 123.900
JFK Tower (4R/22L, 13L/31R): 119.100
TCA (Class B 2000ft/below within 8nm): 125.250

KJFK Gnd/Twr #2 (Archives)
New York, New York, United States

Feed Status: UP
Listen in your browser - HTML5 player(in browser, HTML5)
Click here to listen with your own player(launches your MP3 player)

KJFK 212151Z 09017G21KT 6SM RA BR FEW028 BKN037 OVC050 08/06 A2987 RMK AO2 SLP114 P0003 T00780061

KJFK Airport Info (Airnav.com)

KJFK Flight Activity (Flightaware)

Listeners: 3 out of 1349 total

JFK Ground: 121.650
JFK Ground: 121.900
JFK Tower (4L/22R, 13R/31L): 123.900
JFK Tower (4R/22L, 13L/31R): 119.100
TCA (Class B 2000ft/below within 8nm): 125.250

KJFK Ground (Archives)
New York, New York, United States

Feed Status: UP
Listen in your browser - HTML5 player(in browser, HTML5)
Click here to listen with your own player(launches your MP3 player)

KJFK 212151Z 09017G21KT 6SM RA BR FEW028 BKN037 OVC050 08/06 A2987 RMK AO2 SLP114 P0003 T00780061

KJFK Airport Info (Airnav.com)

KJFK Flight Activity (Flightaware)

Listeners: 3 out of 1349 total

JFK Ground: 121.900
JFK Ground: 121.650

Sponsored by LiveATC

KJFK Ground #2 (Archives)
New York, New York, United States

Feed Status: UP
Listen in your browser - HTML5 player(in browser, HTML5)
Click here to listen with your own player(launches your MP3 player)

KJFK 212151Z 09017G21KT 6SM RA BR FEW028 BKN037 OVC050 08/06 A2987 RMK AO2 SLP114 P0003 T00780061

KJFK Airport Info (Airnav.com)

KJFK Flight Activity (Flightaware)

Listeners: 3 out of 1349 total

JFK Ground: 121.650
JFK Ground: 121.900

KJFK NY App (CAMRN) (Archives)
New York, New York, United States

Feed Status: UP
Listen in your browser - HTML5 player(in browser, HTML5)
Click here to listen with your own player(launches your MP3 player)

KJFK 212151Z 09017G21KT 6SM RA BR FEW028 BKN037 OVC050 08/06 A2987 RMK AO2 SLP114 P0003 T00780061

KJFK Airport Info (Airnav.com)

KJFK Flight Activity (Flightaware)

Listeners: 6 out of 1349 total

New York Approach (CAMRN Sector): 128.125
NY Approach (CAMRN sector backup): 118.400

Sponsored by LiveATC

KJFK NY App (Final) (Archives)
New York, New York, United States

Feed Status: UP
Listen in your browser - HTML5 player(in browser, HTML5)
Click here to listen with your own player(launches your MP3 player)

KJFK 212151Z 09017G21KT 6SM RA BR FEW028 BKN037 OVC050 08/06 A2987 RMK AO2 SLP114 P0003 T00780061

KJFK Airport Info (Airnav.com)

KJFK Flight Activity (Flightaware)

Listeners: 1 out of 1349 total

NY Approach (JFK Final Vectors): 132.400

Sponsored by LiveATC

KJFK NY App (ROBER) (Archives)
New York, New York, United States

Feed Status: UP
Listen in your browser - HTML5 player(in browser, HTML5)
Click here to listen with your own player(launches your MP3 player)

KJFK 212151Z 09017G21KT 6SM RA BR FEW028 BKN037 OVC050 08/06 A2987 RMK AO2 SLP114 P0003 T00780061

KJFK Airport Info (Airnav.com)

KJFK Flight Activity (Flightaware)

Listeners: 4 out of 1349 total

NY Approach (ROBER sector): 125.700

Sponsored by LiveATC

KJFK NY Dep (JFK) (Archives)
New York, New York, United States

Feed Status: UP
Listen in your browser - HTML5 player(in browser, HTML5)
Click here to listen with your own player(launches your MP3 player)

KJFK 212151Z 09017G21KT 6SM RA BR FEW028 BKN037 OVC050 08/06 A2987 RMK AO2 SLP114 P0003 T00780061

KJFK Airport Info (Airnav.com)

KJFK Flight Activity (Flightaware)

Listeners: 5 out of 1349 total

NY Departure (JFK): 135.900

Sponsored by LiveATC

KJFK Tower (Archives)
New York, New York, United States

Feed Status: UP
Listen in your browser - HTML5 player(in browser, HTML5)
Click here to listen with your own player(launches your MP3 player)

KJFK 212151Z 09017G21KT 6SM RA BR FEW028 BKN037 OVC050 08/06 A2987 RMK AO2 SLP114 P0003 T00780061

KJFK Airport Info (Airnav.com)

KJFK Flight Activity (Flightaware)

Listeners: 59 out of 1349 total

JFK Tower (4L/22R, 13R/31L): 123.900
JFK Tower (4R/22L, 13L/31R): 119.100
TCA (Class B 2000ft/below within 8nm): 125.250

Sponsored by LiveATC

KJFK Tower #2 (Archives)
New York, New York, United States

Feed Status: UP
Listen in your browser - HTML5 player(in browser, HTML5)
Click here to listen with your own player(launches your MP3 player)

KJFK 212151Z 09017G21KT 6SM RA BR FEW028 BKN037 OVC050 08/06 A2987 RMK AO2 SLP114 P0003 T00780061

KJFK Airport Info (Airnav.com)

KJFK Flight Activity (Flightaware)

Listeners: 0 out of 1349 total

JFK Tower (4L/22R, 13R/31L): 123.900
JFK Tower (4R/22L, 13L/31R): 119.100

KJFK Tower #3 (Archives)
New York, New York, United States

Feed Status: UP
Listen in your browser - HTML5 player(in browser, HTML5)
Click here to listen with your own player(launches your MP3 player)

KJFK 212151Z 09017G21KT 6SM RA BR FEW028 BKN037 OVC050 08/06 A2987 RMK AO2 SLP114 P0003 T00780061

KJFK Airport Info (Airnav.com)

KJFK Flight Activity (Flightaware)

Listeners: 3 out of 1349 total

JFK Tower (4L/22R, 13R/31L): 123.900
JFK Tower (4R/22L, 13L/31R): 119.100
TCA (Class B 2000ft/below within 8nm): 125.250

KJFK Tower 119.1 (Archives)
New York, New York, United States

Feed Status: UP
Listen in your browser - HTML5 player(in browser, HTML5)
Click here to listen with your own player(launches your MP3 player)

KJFK 212151Z 09017G21KT 6SM RA BR FEW028 BKN037 OVC050 08/06 A2987 RMK AO2 SLP114 P0003 T00780061

KJFK Airport Info (Airnav.com)

KJFK Flight Activity (Flightaware)

Listeners: 2 out of 1349 total

JFK Tower (4R/22L, 13L/31R): 119.100

KJFK Tower 123.9 (Archives)
New York, New York, United States

Feed Status: UP
Listen in your browser - HTML5 player(in browser, HTML5)
Click here to listen with your own player(launches your MP3 player)

KJFK 212151Z 09017G21KT 6SM RA BR FEW028 BKN037 OVC050 08/06 A2987 RMK AO2 SLP114 P0003 T00780061

KJFK Airport Info (Airnav.com)

KJFK Flight Activity (Flightaware)

Listeners: 2 out of 1349 total

JFK Tower (4L/22R, 13R/31L): 123.900

NY Dep (Liberty North) #1 (Archives)
New York, New York, United States

Feed Status: UP
Listen in your browser - HTML5 player(in browser, HTML5)
Click here to listen with your own player(launches your MP3 player)


Listeners: 0 out of 1349 total

New York Departure (Liberty/North): 118.175

NY Departure (Liberty East) (Archives)
New York, New York, United States

Feed Status: UP
Listen in your browser - HTML5 player(in browser, HTML5)
Click here to listen with your own player(launches your MP3 player)


Listeners: 0 out of 1349 total

New York Departure (Liberty East Sector 56): 126.800

Regional Approach (South/RBD) (Archives)
Midlothian/Waxahachie, Texas, United States

Feed Status: UP
Listen in your browser - HTML5 player(in browser, HTML5)
Click here to listen with your own player(launches your MP3 player)

KRBD 212153Z 31009KT 10SM CLR 23/02 A3012 RMK AO2 SLP195 T02330017

KRBD Airport Info (Airnav.com)

KRBD Flight Activity (Flightaware)

Listeners: 0 out of 1349 total

Regional Approach (South): 125.200

KLAS Approach (Final) (Archives)
Las Vegas, Nevada, United States

Feed Status: UP
Listen in your browser - HTML5 player(in browser, HTML5)
Click here to listen with your own player(launches your MP3 player)

KLAS 212156Z 20009G17KT 10SM SCT065 BKN110 BKN150 BKN220 16/M01 A2992 RMK AO2 SLP125 T01611011

KLAS Airport Info (Airnav.com)

KLAS Flight Activity (Flightaware)

Listeners: 5 out of 1349 total

Las Vegas Approach (Final): 135.000

KLAS Approach (NE) (Archives)
Las Vegas, Nevada, United States

Feed Status: UP
Listen in your browser - HTML5 player(in browser, HTML5)
Click here to listen with your own player(launches your MP3 player)

KLAS 212156Z 20009G17KT 10SM SCT065 BKN110 BKN150 BKN220 16/M01 A2992 RMK AO2 SLP125 T01611011

KLAS Airport Info (Airnav.com)

KLAS Flight Activity (Flightaware)

Listeners: 1 out of 1349 total

Las Vegas Approach (Northeast): 119.400

KLAS Approach (NW) (Archives)
Las Vegas, Nevada, United States

Feed Status: UP
Listen in your browser - HTML5 player(in browser, HTML5)
Click here to listen with your own player(launches your MP3 player)

KLAS 212156Z 20009G17KT 10SM SCT065 BKN110 BKN150 BKN220 16/M01 A2992 RMK AO2 SLP125 T01611011

KLAS Airport Info (Airnav.com)

KLAS Flight Activity (Flightaware)

Listeners: 0 out of 1349 total

Las Vegas Approach (Northwest): 125.025

KLAS Approach (SE) (Archives)
Las Vegas, Nevada, United States

Feed Status: UP
Listen in your browser - HTML5 player(in browser, HTML5)
Click here to listen with your own player(launches your MP3 player)

KLAS 212156Z 20009G17KT 10SM SCT065 BKN110 BKN150 BKN220 16/M01 A2992 RMK AO2 SLP125 T01611011

KLAS Airport Info (Airnav.com)

KLAS Flight Activity (Flightaware)

Listeners: 0 out of 1349 total

Las Vegas Approach (Southeast): 118.400

KLAS Approach (SW) (Archives)
Las Vegas, Nevada, United States

Feed Status: UP
Listen in your browser - HTML5 player(in browser, HTML5)
Click here to listen with your own player(launches your MP3 player)

KLAS 212156Z 20009G17KT 10SM SCT065 BKN110 BKN150 BKN220 16/M01 A2992 RMK AO2 SLP125 T01611011

KLAS Airport Info (Airnav.com)

KLAS Flight Activity (Flightaware)

Listeners: 0 out of 1349 total

Las Vegas Approach (SouthWEST): 125.600

KLAS ATIS (Archives)
Las Vegas, Nevada, United States

Feed Status: UP
Listen in your browser - HTML5 player(in browser, HTML5)
Click here to listen with your own player(launches your MP3 player)

KLAS 212156Z 20009G17KT 10SM SCT065 BKN110 BKN150 BKN220 16/M01 A2992 RMK AO2 SLP125 T01611011

KLAS Airport Info (Airnav.com)

KLAS Flight Activity (Flightaware)

Listeners: 0 out of 1349 total

Las Vegas ATIS: 132.400

KLAS Clearance Delivery (Archives)
Las Vegas, Nevada, United States

Feed Status: UP
Listen in your browser - HTML5 player(in browser, HTML5)
Click here to listen with your own player(launches your MP3 player)

KLAS 212156Z 20009G17KT 10SM SCT065 BKN110 BKN150 BKN220 16/M01 A2992 RMK AO2 SLP125 T01611011

KLAS Airport Info (Airnav.com)

KLAS Flight Activity (Flightaware)

Listeners: 0 out of 1349 total

Las Vegas Clearance Delivery: 118.000

KLAS Departure (Rwys 01/08) (Archives)
Las Vegas, Nevada, United States

Feed Status: UP
Listen in your browser - HTML5 player(in browser, HTML5)
Click here to listen with your own player(launches your MP3 player)

KLAS 212156Z 20009G17KT 10SM SCT065 BKN110 BKN150 BKN220 16/M01 A2992 RMK AO2 SLP125 T01611011

KLAS Airport Info (Airnav.com)

KLAS Flight Activity (Flightaware)

Listeners: 0 out of 1349 total

Las Vegas Departure (Rwys 01/08): 133.950

KLAS Departure (Rwys 19/26) (Archives)
Las Vegas, Nevada, United States

Feed Status: UP
Listen in your browser - HTML5 player(in browser, HTML5)
Click here to listen with your own player(launches your MP3 player)

KLAS 212156Z 20009G17KT 10SM SCT065 BKN110 BKN150 BKN220 16/M01 A2992 RMK AO2 SLP125 T01611011

KLAS Airport Info (Airnav.com)

KLAS Flight Activity (Flightaware)

Listeners: 2 out of 1349 total

Las Vegas Departure (Rwys 19/26): 125.900

KLAS Ground (East) (Archives)
Las Vegas, Nevada, United States

Feed Status: UP
Listen in your browser - HTML5 player(in browser, HTML5)
Click here to listen with your own player(launches your MP3 player)

KLAS 212156Z 20009G17KT 10SM SCT065 BKN110 BKN150 BKN220 16/M01 A2992 RMK AO2 SLP125 T01611011

KLAS Airport Info (Airnav.com)

KLAS Flight Activity (Flightaware)

Listeners: 2 out of 1349 total

Las Vegas Ground (East of 1R/19L): 121.100

KLAS Ground (West) (Archives)
Las Vegas, Nevada, United States

Feed Status: UP
Listen in your browser - HTML5 player(in browser, HTML5)
Click here to listen with your own player(launches your MP3 player)

KLAS 212156Z 20009G17KT 10SM SCT065 BKN110 BKN150 BKN220 16/M01 A2992 RMK AO2 SLP125 T01611011

KLAS Airport Info (Airnav.com)

KLAS Flight Activity (Flightaware)

Listeners: 0 out of 1349 total

Las Vegas Ground (West of 1R/19L): 121.900

KLAS Helicopter Control (Archives)
Las Vegas, Nevada, United States

Feed Status: UP
Listen in your browser - HTML5 player(in browser, HTML5)
Click here to listen with your own player(launches your MP3 player)

KLAS 212156Z 20009G17KT 10SM SCT065 BKN110 BKN150 BKN220 16/M01 A2992 RMK AO2 SLP125 T01611011

KLAS Airport Info (Airnav.com)

KLAS Flight Activity (Flightaware)

Listeners: 0 out of 1349 total

Las Vegas Helicopter Control: 123.825

KLAS Ramp Control (Archives)
Las Vegas, Nevada, United States

Feed Status: UP
Listen in your browser - HTML5 player(in browser, HTML5)
Click here to listen with your own player(launches your MP3 player)

KLAS 212156Z 20009G17KT 10SM SCT065 BKN110 BKN150 BKN220 16/M01 A2992 RMK AO2 SLP125 T01611011

KLAS Airport Info (Airnav.com)

KLAS Flight Activity (Flightaware)

Listeners: 0 out of 1349 total

Las Vegas Ramp Control A/B/C Gates/Int'l Charter: 124.400
Las Vegas Ramp Control D/E Gates/Cargo Ramp: 127.900

KLAS Ramp Control (Archives)
Las Vegas, Nevada, United States

Feed Status: UP
Listen in your browser - HTML5 player(in browser, HTML5)
Click here to listen with your own player(launches your MP3 player)

KLAS 212156Z 20009G17KT 10SM SCT065 BKN110 BKN150 BKN220 16/M01 A2992 RMK AO2 SLP125 T01611011

KLAS Airport Info (Airnav.com)

KLAS Flight Activity (Flightaware)

Listeners: 0 out of 1349 total

Las Vegas Ramp Control A/B/C Gates/Int'l Charter: 124.400
Las Vegas Ramp Control D/E Gates/Cargo Ramp: 127.900

KLAS Tower (Both) (Archives)
Las Vegas, Nevada, United States

Feed Status: UP
Listen in your browser - HTML5 player(in browser, HTML5)
Click here to listen with your own player(launches your MP3 player)

KLAS 212156Z 20009G17KT 10SM SCT065 BKN110 BKN150 BKN220 16/M01 A2992 RMK AO2 SLP125 T01611011

KLAS Airport Info (Airnav.com)

KLAS Flight Activity (Flightaware)

Listeners: 2 out of 1349 total

Las Vegas Tower (Rwy 01L/19R, 01R/19L): 118.750
Las Vegas Tower (Rwy 08L/26R,08R/26L): 119.900

KLAS Tower (Rwys 01/19) (Archives)
Las Vegas, Nevada, United States

Feed Status: UP
Listen in your browser - HTML5 player(in browser, HTML5)
Click here to listen with your own player(launches your MP3 player)

KLAS 212156Z 20009G17KT 10SM SCT065 BKN110 BKN150 BKN220 16/M01 A2992 RMK AO2 SLP125 T01611011

KLAS Airport Info (Airnav.com)

KLAS Flight Activity (Flightaware)

Listeners: 0 out of 1349 total

Las Vegas Tower (Rwy 01L/19R, 01R/19L): 118.750

KLAS Tower (Rwys 08/26) (Archives)
Las Vegas, Nevada, United States

Feed Status: UP
Listen in your browser - HTML5 player(in browser, HTML5)
Click here to listen with your own player(launches your MP3 player)

KLAS 212156Z 20009G17KT 10SM SCT065 BKN110 BKN150 BKN220 16/M01 A2992 RMK AO2 SLP125 T01611011

KLAS Airport Info (Airnav.com)

KLAS Flight Activity (Flightaware)

Listeners: 3 out of 1349 total

Las Vegas Tower (Rwy 08L/26R,08R/26L): 119.900

KLAX App (East Feeder) (Archives)
Los Angeles, California, United States

Feed Status: UP
Listen in your browser - HTML5 player(in browser, HTML5)
Click here to listen with your own player(launches your MP3 player)

KPOC 212147Z 22008KT 10SM BKN046 13/07 A3010

KPOC Airport Info (Airnav.com)

KPOC Flight Activity (Flightaware)

Listeners: 2 out of 1349 total

SOCAL Approach East LAX Arrival Feeder, 10000-17000) : 124.050

KLAX App (Zuma/NW Arr) (Archives)
Los Angeles, California, United States

Feed Status: UP
Listen in your browser - HTML5 player(in browser, HTML5)
Click here to listen with your own player(launches your MP3 player)

KLAX 212153Z 23010KT 200V270 10SM FEW020 FEW055 16/09 A3011 RMK AO2 SLP194 T01560089

KLAX Airport Info (Airnav.com)

KLAX Flight Activity (Flightaware)

Listeners: 0 out of 1349 total

SOCAL Approach Zuma Sector (Northwest LAX Arrival Feeder, 7000-13000) : 124.500

KLAX ATIS (Arrival) (Archives)
Los Angeles, California, United States

Feed Status: UP
Listen in your browser - HTML5 player(in browser, HTML5)
Click here to listen with your own player(launches your MP3 player)

KLAX 212153Z 23010KT 200V270 10SM FEW020 FEW055 16/09 A3011 RMK AO2 SLP194 T01560089

KLAX Airport Info (Airnav.com)

KLAX Flight Activity (Flightaware)

Listeners: 0 out of 1349 total

Los Angeles ATIS (Arrival): 133.800

KLAX ATIS (Departure) (Archives)
Los Angeles, California, United States

Feed Status: UP
Listen in your browser - HTML5 player(in browser, HTML5)
Click here to listen with your own player(launches your MP3 player)

KLAX 212153Z 23010KT 200V270 10SM FEW020 FEW055 16/09 A3011 RMK AO2 SLP194 T01560089

KLAX Airport Info (Airnav.com)

KLAX Flight Activity (Flightaware)

Listeners: 0 out of 1349 total

Los Angeles ATIS (Departure): 135.650

KLAX Clearance Delivery (Archives)
Los Angeles, California, United States

Feed Status: UP
Listen in your browser - HTML5 player(in browser, HTML5)
Click here to listen with your own player(launches your MP3 player)

KLAX 212153Z 23010KT 200V270 10SM FEW020 FEW055 16/09 A3011 RMK AO2 SLP194 T01560089

KLAX Airport Info (Airnav.com)

KLAX Flight Activity (Flightaware)

Listeners: 1 out of 1349 total

Los Angeles Clearance Delivery: 120.350

KLAX Dep/West App (Archives)
Los Angeles, California, United States

Feed Status: UP
Listen in your browser - HTML5 player(in browser, HTML5)
Click here to listen with your own player(launches your MP3 player)

KLAX 212153Z 23010KT 200V270 10SM FEW020 FEW055 16/09 A3011 RMK AO2 SLP194 T01560089

KLAX Airport Info (Airnav.com)

KLAX Flight Activity (Flightaware)

Listeners: 2 out of 1349 total

SOCAL Approach Zuma Sector (Northwest LAX Arrival Feeder, 7000-13000) : 124.500
SoCal Departure (SW->NE): 124.300
SoCal Departure (W->N): 125.200

KLAX Final App (North) (Archives)
Los Angeles, California, United States

Feed Status: UP
Listen in your browser - HTML5 player(in browser, HTML5)
Click here to listen with your own player(launches your MP3 player)

KLAX 212153Z 23010KT 200V270 10SM FEW020 FEW055 16/09 A3011 RMK AO2 SLP194 T01560089

KLAX Airport Info (Airnav.com)

KLAX Flight Activity (Flightaware)

Listeners: 2 out of 1349 total

SOCAL Approach (Stadium/North Final): 128.500

KLAX Final App (North/South) (Archives)
Los Angeles, California, United States

Feed Status: UP
Listen in your browser - HTML5 player(in browser, HTML5)
Click here to listen with your own player(launches your MP3 player)

KLAX 212153Z 23010KT 200V270 10SM FEW020 FEW055 16/09 A3011 RMK AO2 SLP194 T01560089

KLAX Airport Info (Airnav.com)

KLAX Flight Activity (Flightaware)

Listeners: 12 out of 1349 total

SoCal Approach (Downey/South Final): 124.900
SoCal Approach (Stadium/North Final): 128.500

KLAX Final App (South) (Archives)
Los Angeles, California, United States

Feed Status: UP
Listen in your browser - HTML5 player(in browser, HTML5)
Click here to listen with your own player(launches your MP3 player)

KLAX 212153Z 23010KT 200V270 10SM FEW020 FEW055 16/09 A3011 RMK AO2 SLP194 T01560089

KLAX Airport Info (Airnav.com)

KLAX Flight Activity (Flightaware)

Listeners: 0 out of 1349 total

SOCAL Approach (Downey Sector, South Final): 132.375

KLAX Ground (North) (Archives)
Los Angeles, California, United States

Feed Status: UP
Listen in your browser - HTML5 player(in browser, HTML5)
Click here to listen with your own player(launches your MP3 player)

KLAX 212153Z 23010KT 200V270 10SM FEW020 FEW055 16/09 A3011 RMK AO2 SLP194 T01560089

KLAX Airport Info (Airnav.com)

KLAX Flight Activity (Flightaware)

Listeners: 0 out of 1349 total

Los Angeles Ground (North Complex): 121.650

KLAX Ground (North/South) (Archives)
Los Angeles, California, United States

Feed Status: UP
Listen in your browser - HTML5 player(in browser, HTML5)
Click here to listen with your own player(launches your MP3 player)

KLAX 212153Z 23010KT 200V270 10SM FEW020 FEW055 16/09 A3011 RMK AO2 SLP194 T01560089

KLAX Airport Info (Airnav.com)

KLAX Flight Activity (Flightaware)

Listeners: 1 out of 1349 total

Los Angeles Ground (North Complex): 121.650
Los Angeles Ground (South Complex): 121.750
Los Angeles Ground (West): 121.400

KLAX Ground (South) (Archives)
Los Angeles, California, United States

Feed Status: UP
Listen in your browser - HTML5 player(in browser, HTML5)
Click here to listen with your own player(launches your MP3 player)

KLAX 212153Z 23010KT 200V270 10SM FEW020 FEW055 16/09 A3011 RMK AO2 SLP194 T01560089

KLAX Airport Info (Airnav.com)

KLAX Flight Activity (Flightaware)

Listeners: 2 out of 1349 total

Los Angeles Ground (South Complex): 121.750
Los Angeles Ground (West): 121.400

KLAX Tower (North) (Archives)
Los Angeles, California, United States

Feed Status: UP
Listen in your browser - HTML5 player(in browser, HTML5)
Click here to listen with your own player(launches your MP3 player)

KLAX 212153Z 23010KT 200V270 10SM FEW020 FEW055 16/09 A3011 RMK AO2 SLP194 T01560089

KLAX Airport Info (Airnav.com)

KLAX Flight Activity (Flightaware)

Listeners: 1 out of 1349 total

Los Angeles Tower (North): 133.900

KLAX Tower (North/South) (Archives)
Los Angeles, California, United States

Feed Status: UP
Listen in your browser - HTML5 player(in browser, HTML5)
Click here to listen with your own player(launches your MP3 player)

KLAX 212153Z 23010KT 200V270 10SM FEW020 FEW055 16/09 A3011 RMK AO2 SLP194 T01560089

KLAX Airport Info (Airnav.com)

KLAX Flight Activity (Flightaware)

Listeners: 8 out of 1349 total

Los Angeles Tower (North): 133.900
Los Angeles Tower (South): 120.950

KLAX Tower (South) (Archives)
Los Angeles, California, United States

Feed Status: UP
Listen in your browser - HTML5 player(in browser, HTML5)
Click here to listen with your own player(launches your MP3 player)

KLAX 212153Z 23010KT 200V270 10SM FEW020 FEW055 16/09 A3011 RMK AO2 SLP194 T01560089

KLAX Airport Info (Airnav.com)

KLAX Flight Activity (Flightaware)

Listeners: 9 out of 1349 total

Los Angeles Tower (South): 120.950

KLAX Twr (Heli)/SFRA (Archives)
Los Angeles, California, United States

Feed Status: UP
Listen in your browser - HTML5 player(in browser, HTML5)
Click here to listen with your own player(launches your MP3 player)

KLAX 212153Z 23010KT 200V270 10SM FEW020 FEW055 16/09 A3011 RMK AO2 SLP194 T01560089

KLAX Airport Info (Airnav.com)

KLAX Flight Activity (Flightaware)

Listeners: 0 out of 1349 total

LAWA/LAFD Discrete: 127.850
Los Angles Tower (Helicopter): 119.800
SFRA (VFR Corridor): 128.550

KLGA ATIS (Archives)
New York, New York, United States

Feed Status: UP
Listen in your browser - HTML5 player(in browser, HTML5)
Click here to listen with your own player(launches your MP3 player)

KLGA 212151Z 04015KT 6SM -RA BR BKN019 BKN043 OVC055 05/03 A2987 RMK AO2 SLP114 P0003 T00500033 $

KLGA Airport Info (Airnav.com)

KLGA Flight Activity (Flightaware)

Listeners: 0 out of 1349 total

LaGuardia ATIS: 127.050

KLGA Del/ARINC/TCA (Archives)
New York, New York, United States

Feed Status: UP
Listen in your browser - HTML5 player(in browser, HTML5)
Click here to listen with your own player(launches your MP3 player)

KLGA 212151Z 04015KT 6SM -RA BR BKN019 BKN043 OVC055 05/03 A2987 RMK AO2 SLP114 P0003 T00500033 $

KLGA Airport Info (Airnav.com)

KLGA Flight Activity (Flightaware)

Listeners: 0 out of 1349 total

ARINC: 129.400
LaGuardia Clearance Delivery: 135.200
LaGuardia Clearance Delivery (Helicopters): 121.875
LaGuardia Tower (TCA): 126.050

KLGA Ground (Archives)
New York, New York, United States

Feed Status: UP
Listen in your browser - HTML5 player(in browser, HTML5)
Click here to listen with your own player(launches your MP3 player)

KLGA 212151Z 04015KT 6SM -RA BR BKN019 BKN043 OVC055 05/03 A2987 RMK AO2 SLP114 P0003 T00500033 $

KLGA Airport Info (Airnav.com)

KLGA Flight Activity (Flightaware)

Listeners: 1 out of 1349 total

LaGuardia Ground: 121.700
LaGuardia Ground: 121.850
LaGuardia Ground: 127.675

KLGA NY App (EMPYR) #1 (Archives)
New York, New York, United States

Feed Status: UP
Listen in your browser - HTML5 player(in browser, HTML5)
Click here to listen with your own player(launches your MP3 player)

KEWR 212151Z 05008KT 4SM RA BR FEW008 BKN022 OVC048 08/07 A2985 RMK AO2 SLP106 P0009 T00830067

KEWR Airport Info (Airnav.com)

KEWR Flight Activity (Flightaware)

Listeners: 1 out of 1349 total

New York Approach (EMPYR Sector): 127.300

KLGA NY App (EMPYR) #2 (Archives)
New York, New York, United States

Feed Status: UP
Listen in your browser - HTML5 player(in browser, HTML5)
Click here to listen with your own player(launches your MP3 player)

KLGA 212151Z 04015KT 6SM -RA BR BKN019 BKN043 OVC055 05/03 A2987 RMK AO2 SLP114 P0003 T00500033 $

KLGA Airport Info (Airnav.com)

KLGA Flight Activity (Flightaware)

Listeners: 0 out of 1349 total

New York Approach (EMPYR Sector): 127.300

KLGA NY App (Final) #1 (Archives)
New York, New York, United States

Feed Status: UP
Listen in your browser - HTML5 player(in browser, HTML5)
Click here to listen with your own player(launches your MP3 player)

KLGA 212151Z 04015KT 6SM -RA BR BKN019 BKN043 OVC055 05/03 A2987 RMK AO2 SLP114 P0003 T00500033 $

KLGA Airport Info (Airnav.com)

KLGA Flight Activity (Flightaware)

Listeners: 0 out of 1349 total

New York Approach (LGA Final): 134.900

KLGA NY App (Final) #2 (Archives)
New York, New York, United States

Feed Status: UP
Listen in your browser - HTML5 player(in browser, HTML5)
Click here to listen with your own player(launches your MP3 player)

KLGA 212151Z 04015KT 6SM -RA BR BKN019 BKN043 OVC055 05/03 A2987 RMK AO2 SLP114 P0003 T00500033 $

KLGA Airport Info (Airnav.com)

KLGA Flight Activity (Flightaware)

Listeners: 0 out of 1349 total

New York Approach (LGA Final): 134.900

KLGA NY App (Final) #3 (Archives)
New York, New York, United States

Feed Status: UP
Listen in your browser - HTML5 player(in browser, HTML5)
Click here to listen with your own player(launches your MP3 player)

KEWR 212151Z 05008KT 4SM RA BR FEW008 BKN022 OVC048 08/07 A2985 RMK AO2 SLP106 P0009 T00830067

KEWR Airport Info (Airnav.com)

KEWR Flight Activity (Flightaware)

Listeners: 0 out of 1349 total

New York Approach (LGA Final): 134.900

KLGA NY App (HAARP) (Archives)
New York, New York, United States

Feed Status: UP
Listen in your browser - HTML5 player(in browser, HTML5)
Click here to listen with your own player(launches your MP3 player)

KLGA 212151Z 04015KT 6SM -RA BR BKN019 BKN043 OVC055 05/03 A2987 RMK AO2 SLP114 P0003 T00500033 $

KLGA Airport Info (Airnav.com)

KLGA Flight Activity (Flightaware)

Listeners: 0 out of 1349 total

New York Approach: 124.950
New York Approach (HAARP Sector): 120.800
New York Approach (HAARP Sector): 124.650

KLGA NY Dep (Archives)
New York, New York, United States

Feed Status: UP
Listen in your browser - HTML5 player(in browser, HTML5)
Click here to listen with your own player(launches your MP3 player)

KLGA 212151Z 04015KT 6SM -RA BR BKN019 BKN043 OVC055 05/03 A2987 RMK AO2 SLP114 P0003 T00500033 $

KLGA Airport Info (Airnav.com)

KLGA Flight Activity (Flightaware)

Listeners: 1 out of 1349 total

New York Departure (LGA): 120.400

KLGA Tower (Archives)
New York, New York, United States

Feed Status: UP
Listen in your browser - HTML5 player(in browser, HTML5)
Click here to listen with your own player(launches your MP3 player)

KLGA 212151Z 04015KT 6SM -RA BR BKN019 BKN043 OVC055 05/03 A2987 RMK AO2 SLP114 P0003 T00500033 $

KLGA Airport Info (Airnav.com)

KLGA Flight Activity (Flightaware)

Listeners: 4 out of 1349 total

LaGuardia Tower: 118.700

KLGA Tower (TCA/Heli) (Archives)
New York, New York, United States

Feed Status: UP
Listen in your browser - HTML5 player(in browser, HTML5)
Click here to listen with your own player(launches your MP3 player)

KLGA 212151Z 04015KT 6SM -RA BR BKN019 BKN043 OVC055 05/03 A2987 RMK AO2 SLP114 P0003 T00500033 $

KLGA Airport Info (Airnav.com)

KLGA Flight Activity (Flightaware)

Listeners: 0 out of 1349 total

LaGuardia Tower (TCA/Heli): 126.050

NY Dep (Liberty North) (Archives)
New York, New York, United States

Feed Status: UP
Listen in your browser - HTML5 player(in browser, HTML5)
Click here to listen with your own player(launches your MP3 player)


Listeners: 0 out of 1349 total

New York Departure (Liberty/North): 118.175

KMCI App/Dep (Archives)
Kansas City, Missouri, United States

Feed Status: UP
Listen in your browser - HTML5 player(in browser, HTML5)
Click here to listen with your own player(launches your MP3 player)

KMCI 212153Z 31008KT 10SM CLR 14/00 A3016 RMK AO2 SLP214 T01390000

KMCI Airport Info (Airnav.com)

KMCI Flight Activity (Flightaware)

Listeners: 0 out of 1349 total

Kanasa City Approach: 118.900
Kansas City Approach: 118.400
Kansas City Approach (Primary): 120.950
Kansas City Departure (010-190): 123.950
Kansas City Departure (191-009): 124.700

KMCI Del/Gnd/Twr (Archives)
Kansas City, Missouri, United States

Feed Status: UP
Listen in your browser - HTML5 player(in browser, HTML5)
Click here to listen with your own player(launches your MP3 player)

KMCI 212153Z 31008KT 10SM CLR 14/00 A3016 RMK AO2 SLP214 T01390000

KMCI Airport Info (Airnav.com)

KMCI Flight Activity (Flightaware)

Listeners: 0 out of 1349 total

KMCI Clearance Delivery: 135.700
KMCI Ground: 121.650
KMCI Ground: 121.800
KMCI Tower: 125.750
KMCI Tower (Primary): 128.200
KMCI UNICOM: 122.950

KMCI Del/Gnd/Twr/App (Archives)
Kansas City, Missouri, United States

Feed Status: UP
Listen in your browser - HTML5 player(in browser, HTML5)
Click here to listen with your own player(launches your MP3 player)

KMCI 212153Z 31008KT 10SM CLR 14/00 A3016 RMK AO2 SLP214 T01390000

KMCI Airport Info (Airnav.com)

KMCI Flight Activity (Flightaware)

Listeners: 1 out of 1349 total

Kanasa City Approach (Primary): 120.950
Kansas City Approach: 118.400
Kansas City Approach: 118.900
Kansas City Departure (010-190): 123.950
Kansas City Departure (191-009): 124.700
KMCI Clearance Delivery: 135.700
KMCI Ground: 121.650
KMCI Ground: 121.800
KMCI Tower: 125.750
KMCI Tower (Primary): 128.200
KMCI UNICOM: 122.950

KMCO App (Disney Sector) (Archives)
Orlando, Florida, United States

Feed Status: UP
Listen in your browser - HTML5 player(in browser, HTML5)
Click here to listen with your own player(launches your MP3 player)

KMCO 212153Z 29016G22KT 10SM CLR 23/03 A2992 RMK AO2 SLP131 T02280033

KMCO Airport Info (Airnav.com)

KMCO Flight Activity (Flightaware)

Listeners: 0 out of 1349 total

Orlando Approach (Disney Satellite Sector): 119.400

KMCO App (Disney/OVIDO Sectors) #1 (Archives)
Orlando, Florida, United States

Feed Status: UP
Listen in your browser - HTML5 player(in browser, HTML5)
Click here to listen with your own player(launches your MP3 player)

KMCO 212153Z 29016G22KT 10SM CLR 23/03 A2992 RMK AO2 SLP131 T02280033

KMCO Airport Info (Airnav.com)

KMCO Flight Activity (Flightaware)

Listeners: 1 out of 1349 total

Orlando Approach (Disney Satellite Sector): 119.400
Orlando Approach (OVIDO Satellite Sector): 119.775

Sponsored by LiveATC.net and Flight Training Professionals

KMCO App (Disney/OVIDO Sectors) #2 (Archives)
Orlando, Florida, United States

Feed Status: UP
Listen in your browser - HTML5 player(in browser, HTML5)
Click here to listen with your own player(launches your MP3 player)

KMCO 212153Z 29016G22KT 10SM CLR 23/03 A2992 RMK AO2 SLP131 T02280033

KMCO Airport Info (Airnav.com)

KMCO Flight Activity (Flightaware)

Listeners: 1 out of 1349 total

Orlando Approach (Disney Satellite Sector): 119.400
Orlando Approach (OVIDO Satellite Sector): 119.775

KMCO App (North Satellite) (Archives)
Orlando, Florida, United States

Feed Status: UP
Listen in your browser - HTML5 player(in browser, HTML5)
Click here to listen with your own player(launches your MP3 player)

KORL 212153Z 27019G23KT 10SM CLR 23/03 A2992 RMK AO2 SLP135 T02280033

KORL Airport Info (Airnav.com)

KORL Flight Activity (Flightaware)

Listeners: 0 out of 1349 total

Orlando Approach (North Satellite): 121.100
Orlando Approach (North Satellite): 135.300

Sponsored by LiveATC.net and Flight Training Professionals

KMCO App (OVIDO Sector) (Archives)
Orlando, Florida, United States

Feed Status: UP
Listen in your browser - HTML5 player(in browser, HTML5)
Click here to listen with your own player(launches your MP3 player)

KMCO 212153Z 29016G22KT 10SM CLR 23/03 A2992 RMK AO2 SLP131 T02280033

KMCO Airport Info (Airnav.com)

KMCO Flight Activity (Flightaware)

Listeners: 0 out of 1349 total

Orlando Approach (OVIDO Satellite Sector): 119.775

KMCO Approach (Final) (Archives)
Orlando, Florida, United States

Feed Status: UP
Listen in your browser - HTML5 player(in browser, HTML5)
Click here to listen with your own player(launches your MP3 player)

KMCO 212153Z 29016G22KT 10SM CLR 23/03 A2992 RMK AO2 SLP131 T02280033

KMCO Airport Info (Airnav.com)

KMCO Flight Activity (Flightaware)

Listeners: 0 out of 1349 total

Orlando Approach (Final): 127.750

Sponsored by LiveATC.net and Flight Training Professionals

KMCO Arrival (West) (Archives)
Orlando, Florida, United States

Feed Status: UP
Listen in your browser - HTML5 player(in browser, HTML5)
Click here to listen with your own player(launches your MP3 player)

KMCO 212153Z 29016G22KT 10SM CLR 23/03 A2992 RMK AO2 SLP131 T02280033

KMCO Airport Info (Airnav.com)

KMCO Flight Activity (Flightaware)

Listeners: 0 out of 1349 total

Orlando Approach (West Arrival): 134.050
Orlando Approach (West Arrival): 125.550

Sponsored by LiveATC.net and Flight Training Professionals

KMCO Arrival ATIS (Archives)
Orlando, Florida, United States

Feed Status: UP
Listen in your browser - HTML5 player(in browser, HTML5)
Click here to listen with your own player(launches your MP3 player)

KMCO 212153Z 29016G22KT 10SM CLR 23/03 A2992 RMK AO2 SLP131 T02280033

KMCO Airport Info (Airnav.com)

KMCO Flight Activity (Flightaware)

Listeners: 0 out of 1349 total

Orlando Arrival ATIS: 121.250

Sponsored by LiveATC.net and Flight Training Professionals

KMCO Del/Gnd/Guard (Archives)
Orlando, Florida, United States

Feed Status: UP
Listen in your browser - HTML5 player(in browser, HTML5)
Click here to listen with your own player(launches your MP3 player)

KMCO 212153Z 29016G22KT 10SM CLR 23/03 A2992 RMK AO2 SLP131 T02280033

KMCO Airport Info (Airnav.com)

KMCO Flight Activity (Flightaware)

Listeners: 0 out of 1349 total

Emergency/Guard: 121.500
Orlando Clearance Delivery: 134.700
Orlando Ground (East): 126.400
Orlando Ground (West): 121.800

Sponsored by LiveATC.net and Flight Training Professionals

KMCO Departure (East) (Archives)
Orlando, Florida, United States

Feed Status: UP
Listen in your browser - HTML5 player(in browser, HTML5)
Click here to listen with your own player(launches your MP3 player)

KMCO 212153Z 29016G22KT 10SM CLR 23/03 A2992 RMK AO2 SLP131 T02280033

KMCO Airport Info (Airnav.com)

KMCO Flight Activity (Flightaware)

Listeners: 0 out of 1349 total

Orlando Departure (East): 124.800

Sponsored by LiveATC.net and Flight Training Professionals

KMCO Departure (East/West) (Archives)
Orlando, Florida, United States

Feed Status: UP
Listen in your browser - HTML5 player(in browser, HTML5)
Click here to listen with your own player(launches your MP3 player)

KMCO 212153Z 29016G22KT 10SM CLR 23/03 A2992 RMK AO2 SLP131 T02280033

KMCO Airport Info (Airnav.com)

KMCO Flight Activity (Flightaware)

Listeners: 0 out of 1349 total

Orlando Departure (East): 124.800
Orlando Departure (West): 120.150

Sponsored by LiveATC.net and Flight Training Professionals

KMCO Departure (West) (Archives)
Orlando, Florida, United States

Feed Status: UP
Listen in your browser - HTML5 player(in browser, HTML5)
Click here to listen with your own player(launches your MP3 player)

KMCO 212153Z 29016G22KT 10SM CLR 23/03 A2992 RMK AO2 SLP131 T02280033

KMCO Airport Info (Airnav.com)

KMCO Flight Activity (Flightaware)

Listeners: 0 out of 1349 total

Orlando Departure (West): 120.150

Sponsored by LiveATC.net and Flight Training Professionals

KMCO Tower (Archives)
Orlando, Florida, United States

Feed Status: UP
Listen in your browser - HTML5 player(in browser, HTML5)
Click here to listen with your own player(launches your MP3 player)

KMCO 212153Z 29016G22KT 10SM CLR 23/03 A2992 RMK AO2 SLP131 T02280033

KMCO Airport Info (Airnav.com)

KMCO Flight Activity (Flightaware)

Listeners: 2 out of 1349 total

Orlando Tower (East/Rwys 17L-35R, 17R-35L): 118.450
Orlando Tower (West/Rwys 18L-36R, 18R-36L): 124.300

Sponsored by LiveATC.net and Flight Training Professionals

KMCO Tower (East) (Archives)
Orlando, Florida, United States

Feed Status: UP
Listen in your browser - HTML5 player(in browser, HTML5)
Click here to listen with your own player(launches your MP3 player)

KMCO 212153Z 29016G22KT 10SM CLR 23/03 A2992 RMK AO2 SLP131 T02280033

KMCO Airport Info (Airnav.com)

KMCO Flight Activity (Flightaware)

Listeners: 0 out of 1349 total

Orlando Tower (East/Rwys 17L-35R, 17R-35L): 118.450

Sponsored by LiveATC.net and Flight Training Professionals

KMCO Tower (West) (Archives)
Orlando, Florida, United States

Feed Status: UP
Listen in your browser - HTML5 player(in browser, HTML5)
Click here to listen with your own player(launches your MP3 player)

KMCO 212153Z 29016G22KT 10SM CLR 23/03 A2992 RMK AO2 SLP131 T02280033

KMCO Airport Info (Airnav.com)

KMCO Flight Activity (Flightaware)

Listeners: 1 out of 1349 total

Orlando Tower (West/Rwys 18L-36R, 18R-36L): 124.300

Sponsored by LiveATC.net and Flight Training Professionals

KMCO Tower/App (Archives)
Orlando, Florida, United States

Feed Status: UP
Listen in your browser - HTML5 player(in browser, HTML5)
Click here to listen with your own player(launches your MP3 player)

KMCO 212153Z 29016G22KT 10SM CLR 23/03 A2992 RMK AO2 SLP131 T02280033

KMCO Airport Info (Airnav.com)

KMCO Flight Activity (Flightaware)

Listeners: 0 out of 1349 total

Orlando Approach (Final Vector): 127.750
Orlando Tower (East): 118.450
Orlando Tower (West, Priority): 124.300

KMEM Approach (Archives)
Memphis, Tennessee, United States

Feed Status: UP
Listen in your browser - HTML5 player(in browser, HTML5)
Click here to listen with your own player(launches your MP3 player)

KMEM 212154Z 35010KT 10SM FEW044 14/04 A3009 RMK AO2 SLP188 T01440039

KMEM Airport Info (Airnav.com)

KMEM Flight Activity (Flightaware)

Listeners: 1 out of 1349 total

Emergency/Guard: 121.500
Memphis Approach (East): 125.800
Memphis Approach (East): 126.050
Memphis Approach (Final): 120.925
Memphis Approach (Final): 126.700
Memphis Approach (West): 119.100
Memphis Departure (East): 124.150
Memphis Departure (West): 124.650

KMEM Tower (Archives)
Memphis, Tennessee, United States

Feed Status: UP
Listen in your browser - HTML5 player(in browser, HTML5)
Click here to listen with your own player(launches your MP3 player)

KMEM 212154Z 35010KT 10SM FEW044 14/04 A3009 RMK AO2 SLP188 T01440039

KMEM Airport Info (Airnav.com)

KMEM Flight Activity (Flightaware)

Listeners: 0 out of 1349 total

Memphis Tower (Rwy 18C/36C, 18L/36R): 119.700
Memphis Tower (Rwy 18R/36L): 128.425
Memphis Tower (Rwy 9/27): 118.300

KMEM Tower/Approach (Archives)
Memphis, Tennessee, United States

Feed Status: UP
Listen in your browser - HTML5 player(in browser, HTML5)
Click here to listen with your own player(launches your MP3 player)

KMEM 212154Z 35010KT 10SM FEW044 14/04 A3009 RMK AO2 SLP188 T01440039

KMEM Airport Info (Airnav.com)

KMEM Flight Activity (Flightaware)

Listeners: 1 out of 1349 total

Emergency/Guard: 121.500
Memphis Approach (East): 125.800
Memphis Approach (East): 126.050
Memphis Approach (Final): 120.925
Memphis Approach (Final): 126.700
Memphis Approach (West): 119.100
Memphis Departure (East): 124.150
Memphis Departure (West): 124.650
Memphis Tower (Rwy 18C/36C, 18L/36R): 119.700
Memphis Tower (Rwy 18R/36L): 128.425
Memphis Tower (Rwy 9/27): 118.300

KMIA Approach #1 (Archives)
Miami, Florida, United States

Feed Status: UP
Listen in your browser - HTML5 player(in browser, HTML5)
Click here to listen with your own player(launches your MP3 player)

KMIA 212153Z 30006KT 10SM SCT046 26/14 A2992 RMK AO2 SLP131 T02560144

KMIA Airport Info (Airnav.com)

KMIA Flight Activity (Flightaware)

Listeners: 5 out of 1349 total

Miami Approach (Final): 133.050
Miami Approach (KFLL): 133.775
Miami Approach (KFXE/KPMP): 119.700
Miami Approach (North arrivals backup): 125.750
Miami Approach (South Arrivals): 120.500

Sponsored by:
AdamJets and LiveATC.net

KMIA Approach #2 (Archives)
Miami, Florida, United States

Feed Status: UP
Listen in your browser - HTML5 player(in browser, HTML5)
Click here to listen with your own player(launches your MP3 player)

KMIA 212153Z 30006KT 10SM SCT046 26/14 A2992 RMK AO2 SLP131 T02560144

KMIA Airport Info (Airnav.com)

KMIA Flight Activity (Flightaware)

Listeners: 0 out of 1349 total

Miami Approach (KFLL Final): 133.725
Miami Approach (KFXE/KPMP): 119.700

KMIA Approach (KFLL) (Archives)
Miami, Florida, United States

Feed Status: UP
Listen in your browser - HTML5 player(in browser, HTML5)
Click here to listen with your own player(launches your MP3 player)

KMIA 212153Z 30006KT 10SM SCT046 26/14 A2992 RMK AO2 SLP131 T02560144

KMIA Airport Info (Airnav.com)

KMIA Flight Activity (Flightaware)

Listeners: 1 out of 1349 total

Miami Approach (KFLL): 133.775

KMIA Approach (North Arr Backup) (Archives)
Miami, Florida, United States

Feed Status: UP
Listen in your browser - HTML5 player(in browser, HTML5)
Click here to listen with your own player(launches your MP3 player)

KMIA 212153Z 30006KT 10SM SCT046 26/14 A2992 RMK AO2 SLP131 T02560144

KMIA Airport Info (Airnav.com)

KMIA Flight Activity (Flightaware)

Listeners: 0 out of 1349 total

Miami Approach (North arrivals backup): 125.750

KMIA Approach (North Arr) (Archives)
Miami, Florida, United States

Feed Status: UP
Listen in your browser - HTML5 player(in browser, HTML5)
Click here to listen with your own player(launches your MP3 player)

KMIA 212153Z 30006KT 10SM SCT046 26/14 A2992 RMK AO2 SLP131 T02560144

KMIA Airport Info (Airnav.com)

KMIA Flight Activity (Flightaware)

Listeners: 1 out of 1349 total

Miami Approach (North Arrivals): 124.850

KMIA Approach (South Arr) (Archives)
Miami, Florida, United States

Feed Status: UP
Listen in your browser - HTML5 player(in browser, HTML5)
Click here to listen with your own player(launches your MP3 player)

KMIA 212153Z 30006KT 10SM SCT046 26/14 A2992 RMK AO2 SLP131 T02560144

KMIA Airport Info (Airnav.com)

KMIA Flight Activity (Flightaware)

Listeners: 1 out of 1349 total

Miami Approach (South Arrivals): 120.500

KMIA ATIS (Arrival) (Archives)
Miami, Florida, United States

Feed Status: UP
Listen in your browser - HTML5 player(in browser, HTML5)
Click here to listen with your own player(launches your MP3 player)

KMIA 212153Z 30006KT 10SM SCT046 26/14 A2992 RMK AO2 SLP131 T02560144

KMIA Airport Info (Airnav.com)

KMIA Flight Activity (Flightaware)

Listeners: 0 out of 1349 total

Miami Arrival ATIS: 119.150

KMIA ATIS (Departure) (Archives)
Miami, Florida, United States

Feed Status: UP
Listen in your browser - HTML5 player(in browser, HTML5)
Click here to listen with your own player(launches your MP3 player)

KMIA 212153Z 30006KT 10SM SCT046 26/14 A2992 RMK AO2 SLP131 T02560144

KMIA Airport Info (Airnav.com)

KMIA Flight Activity (Flightaware)

Listeners: 0 out of 1349 total

Miami Departure ATIS: 133.675

KMIA Clearance Delivery (Archives)
Miami, Florida, United States

Feed Status: UP
Listen in your browser - HTML5 player(in browser, HTML5)
Click here to listen with your own player(launches your MP3 player)

KMIA 212153Z 30006KT 10SM SCT046 26/14 A2992 RMK AO2 SLP131 T02560144

KMIA Airport Info (Airnav.com)

KMIA Flight Activity (Flightaware)

Listeners: 0 out of 1349 total

Miami Clearance Delivery: 135.350

KMIA Departure (North) (Archives)
Miami, Florida, United States

Feed Status: UP
Listen in your browser - HTML5 player(in browser, HTML5)
Click here to listen with your own player(launches your MP3 player)

KMIA 212153Z 30006KT 10SM SCT046 26/14 A2992 RMK AO2 SLP131 T02560144

KMIA Airport Info (Airnav.com)

KMIA Flight Activity (Flightaware)

Listeners: 3 out of 1349 total

Miami Departure North (primary night freq): 119.450

KMIA Departure (South) (Archives)
Miami, Florida, United States

Feed Status: UP
Listen in your browser - HTML5 player(in browser, HTML5)
Click here to listen with your own player(launches your MP3 player)

KMIA 212153Z 30006KT 10SM SCT046 26/14 A2992 RMK AO2 SLP131 T02560144

KMIA Airport Info (Airnav.com)

KMIA Flight Activity (Flightaware)

Listeners: 2 out of 1349 total

Miami Departure South: 125.500

KMIA Departure/Approach (Archives)
Miami, Florida, United States

Feed Status: UP
Listen in your browser - HTML5 player(in browser, HTML5)
Click here to listen with your own player(launches your MP3 player)

KMIA 212153Z 30006KT 10SM SCT046 26/14 A2992 RMK AO2 SLP131 T02560144

KMIA Airport Info (Airnav.com)

KMIA Flight Activity (Flightaware)

Listeners: 1 out of 1349 total

Miami Approach (KFLL Final): 118.100
Miami Approach (North Arrivals): 124.850
Miami Departure North (primary night freq): 119.450
Miami Departure South: 125.500

Sponsored by:
AdamJets and LiveATC.net

KMIA Gate Hold (Archives)
Miami, Florida, United States

Feed Status: UP
Listen in your browser - HTML5 player(in browser, HTML5)
Click here to listen with your own player(launches your MP3 player)

KMIA 212153Z 30006KT 10SM SCT046 26/14 A2992 RMK AO2 SLP131 T02560144

KMIA Airport Info (Airnav.com)

KMIA Flight Activity (Flightaware)

Listeners: 0 out of 1349 total

KMIA Gate Hold: 120.350

KMIA Ground (8L/8R/12/26L/26R) (Archives)
Miami, Florida, United States

Feed Status: UP
Listen in your browser - HTML5 player(in browser, HTML5)
Click here to listen with your own player(launches your MP3 player)

KMIA 212153Z 30006KT 10SM SCT046 26/14 A2992 RMK AO2 SLP131 T02560144

KMIA Airport Info (Airnav.com)

KMIA Flight Activity (Flightaware)

Listeners: 0 out of 1349 total

Miami Ground (Rwys 8L/8R/12/26L/26R): 121.800

KMIA Tower #1 (Archives)
Miami, Florida, United States

Feed Status: UP
Listen in your browser - HTML5 player(in browser, HTML5)
Click here to listen with your own player(launches your MP3 player)

KMIA 212153Z 30006KT 10SM SCT046 26/14 A2992 RMK AO2 SLP131 T02560144

KMIA Airport Info (Airnav.com)

KMIA Flight Activity (Flightaware)

Listeners: 6 out of 1349 total

Miami Tower (North): 118.300
Miami Tower (South): 123.900

Sponsored by:
AdamJets and LiveATC.net

KMIA Tower #2 (Archives)
Miami, Florida, United States

Feed Status: UP
Listen in your browser - HTML5 player(in browser, HTML5)
Click here to listen with your own player(launches your MP3 player)

KMIA 212153Z 30006KT 10SM SCT046 26/14 A2992 RMK AO2 SLP131 T02560144

KMIA Airport Info (Airnav.com)

KMIA Flight Activity (Flightaware)

Listeners: 0 out of 1349 total

Miami Tower (North): 118.300
Miami Tower (South): 123.900

KMIA Tower (North) (Archives)
Miami, Florida, United States

Feed Status: UP
Listen in your browser - HTML5 player(in browser, HTML5)
Click here to listen with your own player(launches your MP3 player)

KMIA 212153Z 30006KT 10SM SCT046 26/14 A2992 RMK AO2 SLP131 T02560144

KMIA Airport Info (Airnav.com)

KMIA Flight Activity (Flightaware)

Listeners: 0 out of 1349 total

Miami Tower (North): 118.300

KMIA Tower (South) (Archives)
Miami, Florida, United States

Feed Status: UP
Listen in your browser - HTML5 player(in browser, HTML5)
Click here to listen with your own player(launches your MP3 player)

KMIA 212153Z 30006KT 10SM SCT046 26/14 A2992 RMK AO2 SLP131 T02560144

KMIA Airport Info (Airnav.com)

KMIA Flight Activity (Flightaware)

Listeners: 0 out of 1349 total

Miami Tower (South): 123.900

Miami FSS/Misc (Archives)
Miami, Florida, United States

Feed Status: UP
Listen in your browser - HTML5 player(in browser, HTML5)
Click here to listen with your own player(launches your MP3 player)

KMIA 212153Z 30006KT 10SM SCT046 26/14 A2992 RMK AO2 SLP131 T02560144

KMIA Airport Info (Airnav.com)

KMIA Flight Activity (Flightaware)

Listeners: 0 out of 1349 total

Miami Flight Service Station (FSS): 122.400
Miami Flight Service Station (FSS): 122.600
Miami Flight Service Station (FSS): 123.650
Miami Flight Service Station (FSS): 122.550
Miami Flight Service Station (FSS): 126.900
Miami Flight Service Station (FSS): 126.700
Miami Flight Service Station (FSS): 122.300
Miami Flight Service Station (FSS): 122.650
Miami Flight Watch (High): 132.725
Miami Flight Watch (Low): 122.000
Misc Company Frequencies:

Miami FSS/Misc/App (Archives)
Miami, Florida, United States

Feed Status: UP
Listen in your browser - HTML5 player(in browser, HTML5)
Click here to listen with your own player(launches your MP3 player)

KMIA 212153Z 30006KT 10SM SCT046 26/14 A2992 RMK AO2 SLP131 T02560144

KMIA Airport Info (Airnav.com)

KMIA Flight Activity (Flightaware)

Listeners: 0 out of 1349 total

Miami Approach (KFLL Final): 133.725
Miami Approach (KFXE/KPMP): 119.700
Miami Flight Service Station (FSS): 123.650
Miami Flight Service Station (FSS): 122.650
Miami Flight Service Station (FSS): 122.600
Miami Flight Service Station (FSS): 122.550
Miami Flight Service Station (FSS): 122.400
Miami Flight Service Station (FSS): 122.300
Miami Flight Watch (Low): 122.000
Misc Company Frequencies:

KMRB Potomac App/Dep (LUCKE) (Archives)
Martinsburg, West Virginia, United States

Feed Status: UP
Listen in your browser - HTML5 player(in browser, HTML5)
Click here to listen with your own player(launches your MP3 player)

KMRB 212153Z 34008KT 2 1/2SM RA BR FEW008 BKN020 OVC031 05/04 A2973 RMK AO2 SFC VIS 3 SLP070 P0013 T00500044

KMRB Airport Info (Airnav.com)

KMRB Flight Activity (Flightaware)

Listeners: 0 out of 1349 total

Potomac Approach (LUCKE Sector): 126.825

Potomac App/Dep (BUFFR) (Archives)
Martinsburg, West Virginia, United States

Feed Status: UP
Listen in your browser - HTML5 player(in browser, HTML5)
Click here to listen with your own player(launches your MP3 player)

KMRB 212153Z 34008KT 2 1/2SM RA BR FEW008 BKN020 OVC031 05/04 A2973 RMK AO2 SFC VIS 3 SLP070 P0013 T00500044

KMRB Airport Info (Airnav.com)

KMRB Flight Activity (Flightaware)

Listeners: 0 out of 1349 total

Potomac Approach (BUFFR Sector): 133.850

KMSP Approach (121.2) (Archives)
Minneapolis, Minnesota, United States

Feed Status: UP
Listen in your browser - HTML5 player(in browser, HTML5)
Click here to listen with your own player(launches your MP3 player)

KMSP 212153Z 28017G24KT 10SM FEW250 09/01 A3000 RMK AO2 SLP166 T00940011

KMSP Airport Info (Airnav.com)

KMSP Flight Activity (Flightaware)

Listeners: 1 out of 1349 total

Minneapolis Approach: 121.200

KMSP Approach (Feeder North) (Archives)
Minneapolis, Minnesota, United States

Feed Status: UP
Listen in your browser - HTML5 player(in browser, HTML5)
Click here to listen with your own player(launches your MP3 player)

KMSP 212153Z 28017G24KT 10SM FEW250 09/01 A3000 RMK AO2 SLP166 T00940011

KMSP Airport Info (Airnav.com)

KMSP Flight Activity (Flightaware)

Listeners: 2 out of 1349 total

Minneapolis Approach (Feeder North): 126.350

KMSP Approach (Feeder South) (Archives)
Minneapolis, Minnesota, United States

Feed Status: UP
Listen in your browser - HTML5 player(in browser, HTML5)
Click here to listen with your own player(launches your MP3 player)

KMSP 212153Z 28017G24KT 10SM FEW250 09/01 A3000 RMK AO2 SLP166 T00940011

KMSP Airport Info (Airnav.com)

KMSP Flight Activity (Flightaware)

Listeners: 0 out of 1349 total

Minneapolis Approach (Feeder South): 135.475

KMSP Approach (North Low) (Archives)
Minneapolis, Minnesota, United States

Feed Status: UP
Listen in your browser - HTML5 player(in browser, HTML5)
Click here to listen with your own player(launches your MP3 player)

KMSP 212153Z 28017G24KT 10SM FEW250 09/01 A3000 RMK AO2 SLP166 T00940011

KMSP Airport Info (Airnav.com)

KMSP Flight Activity (Flightaware)

Listeners: 1 out of 1349 total

Minneapolis Approach (North/Low <4500'): 126.500

KMSP Approach (North/East) (Archives)
Minneapolis, Minnesota, United States

Feed Status: UP
Listen in your browser - HTML5 player(in browser, HTML5)
Click here to listen with your own player(launches your MP3 player)

KMSP 212153Z 28017G24KT 10SM FEW250 09/01 A3000 RMK AO2 SLP166 T00940011

KMSP Airport Info (Airnav.com)

KMSP Flight Activity (Flightaware)

Listeners: 1 out of 1349 total

Minneapolis Approach (North/East): 119.300

KMSP Approach (South/West) (Archives)
Minneapolis, Minnesota, United States

Feed Status: UP
Listen in your browser - HTML5 player(in browser, HTML5)
Click here to listen with your own player(launches your MP3 player)

KMSP 212153Z 28017G24KT 10SM FEW250 09/01 A3000 RMK AO2 SLP166 T00940011

KMSP Airport Info (Airnav.com)

KMSP Flight Activity (Flightaware)

Listeners: 0 out of 1349 total

Minneapolis Approach (South/West): 126.950

KMSP ATIS (Arrival) (Archives)
Minneapolis, Minnesota, United States

Feed Status: UP
Listen in your browser - HTML5 player(in browser, HTML5)
Click here to listen with your own player(launches your MP3 player)

KMSP 212153Z 28017G24KT 10SM FEW250 09/01 A3000 RMK AO2 SLP166 T00940011

KMSP Airport Info (Airnav.com)

KMSP Flight Activity (Flightaware)

Listeners: 0 out of 1349 total

Minneapolis ATIS (Arrival): 135.350

KMSP ATIS (Departure) (Archives)
Minneapolis, Minnesota, United States

Feed Status: UP
Listen in your browser - HTML5 player(in browser, HTML5)
Click here to listen with your own player(launches your MP3 player)

KMSP 212153Z 28017G24KT 10SM FEW250 09/01 A3000 RMK AO2 SLP166 T00940011

KMSP Airport Info (Airnav.com)

KMSP Flight Activity (Flightaware)

Listeners: 0 out of 1349 total

Minneapolis ATIS (Departure): 120.800

KMSP Clearance Delivery (Archives)
Minneapolis, Minnesota, United States

Feed Status: UP
Listen in your browser - HTML5 player(in browser, HTML5)
Click here to listen with your own player(launches your MP3 player)

KMSP 212153Z 28017G24KT 10SM FEW250 09/01 A3000 RMK AO2 SLP166 T00940011

KMSP Airport Info (Airnav.com)

KMSP Flight Activity (Flightaware)

Listeners: 0 out of 1349 total

Minneapolis Clearance Delivery: 133.200

KMSP Departure (North/East) (Archives)
Minneapolis, Minnesota, United States

Feed Status: UP
Listen in your browser - HTML5 player(in browser, HTML5)
Click here to listen with your own player(launches your MP3 player)

KMSP 212153Z 28017G24KT 10SM FEW250 09/01 A3000 RMK AO2 SLP166 T00940011

KMSP Airport Info (Airnav.com)

KMSP Flight Activity (Flightaware)

Listeners: 0 out of 1349 total

Minneapolis Departure (North/East): 125.750

KMSP Departure (South/West) (Archives)
Minneapolis, Minnesota, United States

Feed Status: UP
Listen in your browser - HTML5 player(in browser, HTML5)
Click here to listen with your own player(launches your MP3 player)

KMSP 212153Z 28017G24KT 10SM FEW250 09/01 A3000 RMK AO2 SLP166 T00940011

KMSP Airport Info (Airnav.com)

KMSP Flight Activity (Flightaware)

Listeners: 0 out of 1349 total

Minneapolis Departure (South/West): 124.700

KMSP Emergency/Guard (Archives)
Minneapolis, Minnesota, United States

Feed Status: UP
Listen in your browser - HTML5 player(in browser, HTML5)
Click here to listen with your own player(launches your MP3 player)

KMSP 212153Z 28017G24KT 10SM FEW250 09/01 A3000 RMK AO2 SLP166 T00940011

KMSP Airport Info (Airnav.com)

KMSP Flight Activity (Flightaware)

Listeners: 0 out of 1349 total

Emergency/Guard: 121.500

KMSP Ground (North) (Archives)
Minneapolis, Minnesota, United States

Feed Status: UP
Listen in your browser - HTML5 player(in browser, HTML5)
Click here to listen with your own player(launches your MP3 player)

KMSP 212153Z 28017G24KT 10SM FEW250 09/01 A3000 RMK AO2 SLP166 T00940011

KMSP Airport Info (Airnav.com)

KMSP Flight Activity (Flightaware)

Listeners: 0 out of 1349 total

Minneapolis Ground (North): 121.800

KMSP Ground (South) (Archives)
Minneapolis, Minnesota, United States

Feed Status: UP
Listen in your browser - HTML5 player(in browser, HTML5)
Click here to listen with your own player(launches your MP3 player)

KMSP 212153Z 28017G24KT 10SM FEW250 09/01 A3000 RMK AO2 SLP166 T00940011

KMSP Airport Info (Airnav.com)

KMSP Flight Activity (Flightaware)

Listeners: 1 out of 1349 total

Minneapolis Ground (South): 121.900

KMSP Ground (West) (Archives)
Minneapolis, Minnesota, United States

Feed Status: UP
Listen in your browser - HTML5 player(in browser, HTML5)
Click here to listen with your own player(launches your MP3 player)

KMSP 212153Z 28017G24KT 10SM FEW250 09/01 A3000 RMK AO2 SLP166 T00940011

KMSP Airport Info (Airnav.com)

KMSP Flight Activity (Flightaware)

Listeners: 0 out of 1349 total

Minneapolis Ground (West): 127.925

KMSP Metering (Archives)
Minneapolis, Minnesota, United States

Feed Status: UP
Listen in your browser - HTML5 player(in browser, HTML5)
Click here to listen with your own player(launches your MP3 player)

KMSP 212153Z 28017G24KT 10SM FEW250 09/01 A3000 RMK AO2 SLP166 T00940011

KMSP Airport Info (Airnav.com)

KMSP Flight Activity (Flightaware)

Listeners: 0 out of 1349 total

Minneapolis Metering: 133.575

KMSP Tower (Rwy 12L/30R) (Archives)
Minneapolis, Minnesota, United States

Feed Status: UP
Listen in your browser - HTML5 player(in browser, HTML5)
Click here to listen with your own player(launches your MP3 player)

KMSP 212153Z 28017G24KT 10SM FEW250 09/01 A3000 RMK AO2 SLP166 T00940011

KMSP Airport Info (Airnav.com)

KMSP Flight Activity (Flightaware)

Listeners: 2 out of 1349 total

Minneapolis Tower (Runway 12L/30R): 123.950

KMSP Tower (Rwy 17/35) (Archives)
Minneapolis, Minnesota, United States

Feed Status: UP
Listen in your browser - HTML5 player(in browser, HTML5)
Click here to listen with your own player(launches your MP3 player)

KMSP 212153Z 28017G24KT 10SM FEW250 09/01 A3000 RMK AO2 SLP166 T00940011

KMSP Airport Info (Airnav.com)

KMSP Flight Activity (Flightaware)

Listeners: 1 out of 1349 total

Minneapolis Tower (Rwy 17/35): 123.675

KMSP Tower (Rwys 12R/30L,4/22) (Archives)
Minneapolis, Minnesota, United States

Feed Status: UP
Listen in your browser - HTML5 player(in browser, HTML5)
Click here to listen with your own player(launches your MP3 player)

KMSP 212153Z 28017G24KT 10SM FEW250 09/01 A3000 RMK AO2 SLP166 T00940011

KMSP Airport Info (Airnav.com)

KMSP Flight Activity (Flightaware)

Listeners: 2 out of 1349 total

Minneapolis Tower (Runways 12R/30L, 4/22): 126.700

KMSY Gnd/Twr/App (Archives)
New Orleans, Louisiana, United States

Feed Status: UP
Listen in your browser - HTML5 player(in browser, HTML5)
Click here to listen with your own player(launches your MP3 player)

KMSY 212153Z 30009KT 10SM CLR 22/03 A3007 RMK AO2 SLP186 T02220028

KMSY Airport Info (Airnav.com)

KMSY Flight Activity (Flightaware)

Listeners: 0 out of 1349 total

New Orleans Approach (North-East): 133.150
New Orleans Approach (SE-South): 123.850
New Orleans Approach (West): 125.500
New Orleans Ground: 121.900
New Orleans Tower: 119.500

KORD App (10R/28C) (Archives)
Chicago, Illinois, United States

Feed Status: UP
Listen in your browser - HTML5 player(in browser, HTML5)
Click here to listen with your own player(launches your MP3 player)

KORD 212151Z 30009KT 10SM OVC032 07/00 A2997 RMK AO2 SLP151 T00670000

KORD Airport Info (Airnav.com)

KORD Flight Activity (Flightaware)

Listeners: 2 out of 1349 total

Chicago Approach (NW Feeder): 135.075
Chicago Approach (SE Feeder) : 118.925
Chicago Approach (W Arrival): 133.625

Feed sponsored by LiveATC.net and Aviation Universe

KORD App (27L/09R/10C) (Archives)
Chicago, Illinois, United States

Feed Status: UP
Listen in your browser - HTML5 player(in browser, HTML5)
Click here to listen with your own player(launches your MP3 player)

KORD 212151Z 30009KT 10SM OVC032 07/00 A2997 RMK AO2 SLP151 T00670000

KORD Airport Info (Airnav.com)

KORD Flight Activity (Flightaware)

Listeners: 0 out of 1349 total

Chicago Approach (Z Arrival): 119.000

Feed sponsored by LiveATC.net and Aviation Universe

KORD App (27R/9L) (Archives)
Chicago, Illinois, United States

Feed Status: UP
Listen in your browser - HTML5 player(in browser, HTML5)
Click here to listen with your own player(launches your MP3 player)

KORD 212151Z 30009KT 10SM OVC032 07/00 A2997 RMK AO2 SLP151 T00670000

KORD Airport Info (Airnav.com)

KORD Flight Activity (Flightaware)

Listeners: 1 out of 1349 total

Chicago Approach (F Arrival): 124.350
Chicago Approach (NE Feeder): 125.700
Chicago Approach (SW Feeder): 135.025

Feed sponsored by LiveATC.net and Aviation Universe

KORD Clearance/Metering (Archives)
Chicago, Illinois, United States

Feed Status: UP
Listen in your browser - HTML5 player(in browser, HTML5)
Click here to listen with your own player(launches your MP3 player)

KORD 212151Z 30009KT 10SM OVC032 07/00 A2997 RMK AO2 SLP151 T00670000

KORD Airport Info (Airnav.com)

KORD Flight Activity (Flightaware)

Listeners: 1 out of 1349 total

American Airlines Ramp: 131.875
O'Hare Clearance: 121.600
O'Hare Clearance: 119.250
O'Hare Concourse C: 129.075
O'Hare Concourse C: 128.900
O'Hare Concourse H & K: 129.675
O'Hare F Alley: 130.375
O'Hare H Alley: 128.975
O'Hare Ramp/Metering: 121.675
O'Hare Ramp/Metering (North/South): 131.300
O'Hare Y Alley Concourse E & F: 130.375

Feed sponsored by LiveATC.net and Aviation Universe

KORD Departure (Archives)
Chicago, Illinois, United States

Feed Status: UP
Listen in your browser - HTML5 player(in browser, HTML5)
Click here to listen with your own player(launches your MP3 player)

KORD 212151Z 30009KT 10SM OVC032 07/00 A2997 RMK AO2 SLP151 T00670000

KORD Airport Info (Airnav.com)

KORD Flight Activity (Flightaware)

Listeners: 0 out of 1349 total

Chicago Departure (East Departure): 125.000
Chicago Departure (N/E Backup): 134.400
Chicago Departure (N/E/Loop, combined w/ 125.0): 118.275
Chicago Departure (South): 126.625
Chicago Departure (West): 125.400
Chicago Departure (West): 135.275

Feed sponsored by LiveATC.net and Aviation Universe

KORD Ground (Archives)
Chicago, Illinois, United States

Feed Status: UP
Listen in your browser - HTML5 player(in browser, HTML5)
Click here to listen with your own player(launches your MP3 player)

KORD 212151Z 30009KT 10SM OVC032 07/00 A2997 RMK AO2 SLP151 T00670000

KORD Airport Info (Airnav.com)

KORD Flight Activity (Flightaware)

Listeners: 4 out of 1349 total

O'Hare Ground (Center): 134.150
O'Hare Ground (Inbound): 121.900
O'Hare Ground (North Twr): 124.125
O'Hare Ground (Outbound): 121.750

Feed sponsored by LiveATC.net and Aviation Universe

KORD Tower (Archives)
Chicago, Illinois, United States

Feed Status: UP
Listen in your browser - HTML5 player(in browser, HTML5)
Click here to listen with your own player(launches your MP3 player)

KORD 212151Z 30009KT 10SM OVC032 07/00 A2997 RMK AO2 SLP151 T00670000

KORD Airport Info (Airnav.com)

KORD Flight Activity (Flightaware)

Listeners: 7 out of 1349 total

O'Hare Tower (Aux - Runway Switch): 118.450
O'Hare Tower (Aux): 127.925
O'Hare Tower (Center): 132.700
O'Hare Tower (Center): 121.150
O'Hare Tower (Emergency): 119.250
O'Hare Tower (North): 126.900
O'Hare Tower (North): 128.150
O'Hare Tower (South 10R/28L): 133.000
O'Hare Tower (South): 120.750

Feed sponsored by LiveATC.net and Aviation Universe

KORD Tower (Center) (Archives)
Chicago, Illinois, United States

Feed Status: UP
Listen in your browser - HTML5 player(in browser, HTML5)
Click here to listen with your own player(launches your MP3 player)

KORD 212151Z 30009KT 10SM OVC032 07/00 A2997 RMK AO2 SLP151 T00670000

KORD Airport Info (Airnav.com)

KORD Flight Activity (Flightaware)

Listeners: 2 out of 1349 total

O'Hare Tower (Center): 132.700
O'Hare Tower (Center): 121.150
O'Hare Tower (Center/Aux): 127.925

Feed sponsored by LiveATC.net and Aviation Universe

KORD Tower (North) (Archives)
Chicago, Illinois, United States

Feed Status: UP
Listen in your browser - HTML5 player(in browser, HTML5)
Click here to listen with your own player(launches your MP3 player)

KORD 212151Z 30009KT 10SM OVC032 07/00 A2997 RMK AO2 SLP151 T00670000

KORD Airport Info (Airnav.com)

KORD Flight Activity (Flightaware)

Listeners: 1 out of 1349 total

O'Hare Tower (North): 128.150
O'Hare Tower (North): 126.900

Feed sponsored by LiveATC.net and Aviation Universe

KORD Tower (South) (Archives)
Chicago, Illinois, United States

Feed Status: UP
Listen in your browser - HTML5 player(in browser, HTML5)
Click here to listen with your own player(launches your MP3 player)

KORD 212151Z 30009KT 10SM OVC032 07/00 A2997 RMK AO2 SLP151 T00670000

KORD Airport Info (Airnav.com)

KORD Flight Activity (Flightaware)

Listeners: 0 out of 1349 total

O'Hare Tower (South 10R/28L): 133.000
O'Hare Tower (South): 120.750

Feed sponsored by LiveATC.net and Aviation Universe

KMCO App (Disney/Ovido Sectors) (Archives)
Orlando, Florida, United States

Feed Status: UP
Listen in your browser - HTML5 player(in browser, HTML5)
Click here to listen with your own player(launches your MP3 player)

KMCO 212153Z 29016G22KT 10SM CLR 23/03 A2992 RMK AO2 SLP131 T02280033

KMCO Airport Info (Airnav.com)

KMCO Flight Activity (Flightaware)

Listeners: 1 out of 1349 total

Orlando Approach (Disney Satellite Sector): 119.400
Orlando Approach (OVIDO Satellite Sector): 119.775

Sponsored by LiveATC.net and Flight Training Professionals

KMCO App (North Satellite) (Archives)
Orlando, Florida, United States

Feed Status: UP
Listen in your browser - HTML5 player(in browser, HTML5)
Click here to listen with your own player(launches your MP3 player)

KORL 212153Z 27019G23KT 10SM CLR 23/03 A2992 RMK AO2 SLP135 T02280033

KORL Airport Info (Airnav.com)

KORL Flight Activity (Flightaware)

Listeners: 0 out of 1349 total

Orlando Approach (North Satellite): 121.100
Orlando Approach (North Satellite): 135.300

Sponsored by LiveATC.net and Flight Training Professionals

KPHL App (Final) (Archives)
Philadelphia, Pennsylvania, United States

Feed Status: UP
Listen in your browser - HTML5 player(in browser, HTML5)
Click here to listen with your own player(launches your MP3 player)

KPHL 212228Z 08017G21KT 8SM -RA OVC013 11/08 A2970 RMK AO2 RAB19 P0000 T01060083 $

KPHL Airport Info (Airnav.com)

KPHL Flight Activity (Flightaware)

Listeners: 1 out of 1349 total

Philly Approach (Final): 125.400
Philly Approach (Final2 - Landing Rwy 27L): 132.675

Sponsored by LiveATC.net and phl.org

KPHL App (N. Arrival) (Archives)
Philadelphia, Pennsylvania, United States

Feed Status: UP
Listen in your browser - HTML5 player(in browser, HTML5)
Click here to listen with your own player(launches your MP3 player)

KPHL 212228Z 08017G21KT 8SM -RA OVC013 11/08 A2970 RMK AO2 RAB19 P0000 T01060083 $

KPHL Airport Info (Airnav.com)

KPHL Flight Activity (Flightaware)

Listeners: 1 out of 1349 total

Philadelphia Approach (North Arrival) : 128.400

KPHL App (N/S Arrival) (Archives)
Philadelphia, Pennsylvania, United States

Feed Status: UP
Listen in your browser - HTML5 player(in browser, HTML5)
Click here to listen with your own player(launches your MP3 player)

KPHL 212228Z 08017G21KT 8SM -RA OVC013 11/08 A2970 RMK AO2 RAB19 P0000 T01060083 $

KPHL Airport Info (Airnav.com)

KPHL Flight Activity (Flightaware)

Listeners: 1 out of 1349 total

Philadelphia Approach (North Arrival) : 128.400
Philadelphia Approach (South Arrival): 133.875
Philly Approach (Woodstown - Rwy 35 Final) : 127.350

Sponsored by LiveATC.net and phl.org

KPHL App (S. Arrival) (Archives)
Philadelphia, Pennsylvania, United States

Feed Status: UP
Listen in your browser - HTML5 player(in browser, HTML5)
Click here to listen with your own player(launches your MP3 player)

KPHL 212228Z 08017G21KT 8SM -RA OVC013 11/08 A2970 RMK AO2 RAB19 P0000 T01060083 $

KPHL Airport Info (Airnav.com)

KPHL Flight Activity (Flightaware)

Listeners: 0 out of 1349 total

Philadelphia Approach (South Arrival): 133.875
Philly Approach (Woodstown - Rwy 35 Final) : 127.350

KPHL Clearance (Archives)
Philadelphia, Pennsylvania, United States

Feed Status: UP
Listen in your browser - HTML5 player(in browser, HTML5)
Click here to listen with your own player(launches your MP3 player)

KPHL 212228Z 08017G21KT 8SM -RA OVC013 11/08 A2970 RMK AO2 RAB19 P0000 T01060083 $

KPHL Airport Info (Airnav.com)

KPHL Flight Activity (Flightaware)

Listeners: 0 out of 1349 total

Emergency (Guard): 121.500
Philly Clearance Delivery: 118.850

Sponsored by LiveATC.net and phl.org

KPHL Dep (N. Departure) (Archives)
Philadelphia, Pennsylvania, United States

Feed Status: UP
Listen in your browser - HTML5 player(in browser, HTML5)
Click here to listen with your own player(launches your MP3 player)

KPHL 212228Z 08017G21KT 8SM -RA OVC013 11/08 A2970 RMK AO2 RAB19 P0000 T01060083 $

KPHL Airport Info (Airnav.com)

KPHL Flight Activity (Flightaware)

Listeners: 0 out of 1349 total

Philadelpha Approach (Pottstown - summer or Rwy 17 Final): 126.850
Philadelpha Approach (Yardley Sector, North Satellite): 123.800
Philadelphia Departure (North High Departure): 126.075
Philly Departure (North Departure): 124.350

KPHL Dep (N/S Dep) (Archives)
Philadelphia, Pennsylvania, United States

Feed Status: UP
Listen in your browser - HTML5 player(in browser, HTML5)
Click here to listen with your own player(launches your MP3 player)

KPHL 212228Z 08017G21KT 8SM -RA OVC013 11/08 A2970 RMK AO2 RAB19 P0000 T01060083 $

KPHL Airport Info (Airnav.com)

KPHL Flight Activity (Flightaware)

Listeners: 0 out of 1349 total

Philadelpha Approach (Pottstown - summer or Rwy 17 Final): 126.850
Philadelpha Approach (Yardley Sector, North Satellite): 123.800
Philadelphia Approach (Dupont): 118.350
Philadelphia Departure (North High Departure): 126.075
Philly Departure (North Departure): 124.350
Philly Departure (South Departure): 119.750

Sponsored by LiveATC.net and phl.org

KPHL Dep (S. Departure) (Archives)
Philadelphia, Pennsylvania, United States

Feed Status: UP
Listen in your browser - HTML5 player(in browser, HTML5)
Click here to listen with your own player(launches your MP3 player)

KPHL 212228Z 08017G21KT 8SM -RA OVC013 11/08 A2970 RMK AO2 RAB19 P0000 T01060083 $

KPHL Airport Info (Airnav.com)

KPHL Flight Activity (Flightaware)

Listeners: 0 out of 1349 total

Philadelphia Approach (Dupont): 118.350
Philly Departure (South Departure): 119.750

KPHL Ground/Ramp Control (Archives)
Philadelphia, Pennsylvania, United States

Feed Status: UP
Listen in your browser - HTML5 player(in browser, HTML5)
Click here to listen with your own player(launches your MP3 player)

KPHL 212228Z 08017G21KT 8SM -RA OVC013 11/08 A2970 RMK AO2 RAB19 P0000 T01060083 $

KPHL Airport Info (Airnav.com)

KPHL Flight Activity (Flightaware)

Listeners: 2 out of 1349 total

Philly Ground: 121.650
Philly Ground: 121.900
US Airways (Ramp Control): 130.050

Sponsored by LiveATC.net and phl.org

KPHL Tower (Archives)
Philadelphia, Pennsylvania, United States

Feed Status: UP
Listen in your browser - HTML5 player(in browser, HTML5)
Click here to listen with your own player(launches your MP3 player)

KPHL 212228Z 08017G21KT 8SM -RA OVC013 11/08 A2970 RMK AO2 RAB19 P0000 T01060083 $

KPHL Airport Info (Airnav.com)

KPHL Flight Activity (Flightaware)

Listeners: 2 out of 1349 total

Philadelphia Tower (East): 118.500
Philadelphia Tower (West): 135.100
Tower (Sequencer during SWAP): 123.600

Sponsored by LiveATC.net and phl.org

KPHL Tower (East) (Archives)
Philadelphia, Pennsylvania, United States

Feed Status: UP
Listen in your browser - HTML5 player(in browser, HTML5)
Click here to listen with your own player(launches your MP3 player)

KPHL 212228Z 08017G21KT 8SM -RA OVC013 11/08 A2970 RMK AO2 RAB19 P0000 T01060083 $

KPHL Airport Info (Airnav.com)

KPHL Flight Activity (Flightaware)

Listeners: 1 out of 1349 total

Philadelphia Tower (East): 118.500

KPHL Tower (West) (Archives)
Philadelphia, Pennsylvania, United States

Feed Status: UP
Listen in your browser - HTML5 player(in browser, HTML5)
Click here to listen with your own player(launches your MP3 player)

KPHL 212228Z 08017G21KT 8SM -RA OVC013 11/08 A2970 RMK AO2 RAB19 P0000 T01060083 $

KPHL Airport Info (Airnav.com)

KPHL Flight Activity (Flightaware)

Listeners: 0 out of 1349 total

Philadelphia Tower (West): 135.100
Tower (Sequencer during SWAP): 123.600

KPHX Approach (N/S)/S Final (Archives)
Phoenix, Arizona, United States

Feed Status: UP
Listen in your browser - HTML5 player(in browser, HTML5)
Click here to listen with your own player(launches your MP3 player)

KPHX 212151Z 25008KT 10SM FEW075 BKN170 BKN270 20/03 A3001 RMK AO2 SLP152 T02000028

KPHX Airport Info (Airnav.com)

KPHX Flight Activity (Flightaware)

Listeners: 2 out of 1349 total

Phoenix Approach (North Arrival): 128.650
Phoenix Approach (Rwy 7R/L/25L/R Final): 120.400
Phoenix Approach (South Arrival): 124.100

KPHX Approach (North Final) (Archives)
Phoenix, Arizona, United States

Feed Status: UP
Listen in your browser - HTML5 player(in browser, HTML5)
Click here to listen with your own player(launches your MP3 player)

KPHX 212151Z 25008KT 10SM FEW075 BKN170 BKN270 20/03 A3001 RMK AO2 SLP152 T02000028

KPHX Airport Info (Airnav.com)

KPHX Flight Activity (Flightaware)

Listeners: 1 out of 1349 total

Phoenix Approach (Rwy 8/26 Final): 126.600

KPHX Approach (SDL/Tempe/West) (Archives)
Phoenix, Arizona, United States

Feed Status: UP
Listen in your browser - HTML5 player(in browser, HTML5)
Click here to listen with your own player(launches your MP3 player)

KPHX 212151Z 25008KT 10SM FEW075 BKN170 BKN270 20/03 A3001 RMK AO2 SLP152 T02000028

KPHX Airport Info (Airnav.com)

KPHX Flight Activity (Flightaware)

Listeners: 1 out of 1349 total

Phoenix Approach (East Tempe Sector): 123.700
Phoenix Approach (North Biltmore Sector/KSDL): 120.700
Phoenix Approach (West): 134.250

KPHX Departure (Archives)
Phoenix, Arizona, United States

Feed Status: UP
Listen in your browser - HTML5 player(in browser, HTML5)
Click here to listen with your own player(launches your MP3 player)

KPHX 212151Z 25008KT 10SM FEW075 BKN170 BKN270 20/03 A3001 RMK AO2 SLP152 T02000028

KPHX Airport Info (Airnav.com)

KPHX Flight Activity (Flightaware)

Listeners: 2 out of 1349 total

Phoenix Departure (North): 119.200
Phoenix Departure (South): 126.800

KPHX Ground (North/Pri) (Archives)
Phoenix, Arizona, United States

Feed Status: UP
Listen in your browser - HTML5 player(in browser, HTML5)
Click here to listen with your own player(launches your MP3 player)

KPHX 212151Z 25008KT 10SM FEW075 BKN170 BKN270 20/03 A3001 RMK AO2 SLP152 T02000028

KPHX Airport Info (Airnav.com)

KPHX Flight Activity (Flightaware)

Listeners: 1 out of 1349 total

Phoenix Ground (North/Primary): 119.750

KPHX Ground (North/Sec) (Archives)
Phoenix, Arizona, United States

Feed Status: UP
Listen in your browser - HTML5 player(in browser, HTML5)
Click here to listen with your own player(launches your MP3 player)

KPHX 212151Z 25008KT 10SM FEW075 BKN170 BKN270 20/03 A3001 RMK AO2 SLP152 T02000028

KPHX Airport Info (Airnav.com)

KPHX Flight Activity (Flightaware)

Listeners: 0 out of 1349 total

Phoenix Ground (North/Secondary): 133.700

KPHX Ground (South) (Archives)
Phoenix, Arizona, United States

Feed Status: UP
Listen in your browser - HTML5 player(in browser, HTML5)
Click here to listen with your own player(launches your MP3 player)

KPHX 212151Z 25008KT 10SM FEW075 BKN170 BKN270 20/03 A3001 RMK AO2 SLP152 T02000028

KPHX Airport Info (Airnav.com)

KPHX Flight Activity (Flightaware)

Listeners: 2 out of 1349 total

Phoenix Ground (South): 132.550

KPHX Tower (North) (Archives)
Phoenix, Arizona, United States

Feed Status: UP
Listen in your browser - HTML5 player(in browser, HTML5)
Click here to listen with your own player(launches your MP3 player)

KPHX 212151Z 25008KT 10SM FEW075 BKN170 BKN270 20/03 A3001 RMK AO2 SLP152 T02000028

KPHX Airport Info (Airnav.com)

KPHX Flight Activity (Flightaware)

Listeners: 1 out of 1349 total

Phoenix Tower (Rwy 8/26): 118.700

KPHX Tower (South) (Archives)
Phoenix, Arizona, United States

Feed Status: UP
Listen in your browser - HTML5 player(in browser, HTML5)
Click here to listen with your own player(launches your MP3 player)

KPHX 212151Z 25008KT 10SM FEW075 BKN170 BKN270 20/03 A3001 RMK AO2 SLP152 T02000028

KPHX Airport Info (Airnav.com)

KPHX Flight Activity (Flightaware)

Listeners: 1 out of 1349 total

Phoenix Tower (Rwys 7L/25R, 7R/25L): 120.900

KPNE Gnd/Twr/App (Archives)
Philadelphia, Pennsylvania, United States

Feed Status: UP
Listen in your browser - HTML5 player(in browser, HTML5)
Click here to listen with your own player(launches your MP3 player)

KPNE 212154Z 09013KT 10SM OVC013 11/08 A2975 RMK AO2 RAE33 SLP075 P0002 T01060078

KPNE Airport Info (Airnav.com)

KPNE Flight Activity (Flightaware)

Listeners: 0 out of 1349 total

Emergency/Guard: 121.500
Northeast Ground: 121.700
Northeast Tower: 126.900
Philly Approach (Yardley Sector): 123.800

KPTK App/Dep (Archives)
Pontiac, Michigan, United States

Feed Status: UP
Listen in your browser - HTML5 player(in browser, HTML5)
Click here to listen with your own player(launches your MP3 player)

KPTK 212153Z 27011KT 10SM OVC012 03/01 A2986 RMK AO2 SLP120 T00280006

KPTK Airport Info (Airnav.com)

KPTK Flight Activity (Flightaware)

Listeners: 0 out of 1349 total

Detroit Approach/Departure: 127.500

Regional Approach (Feeder 2/East) (Archives)
Dallas, Texas, United States

Feed Status: UP
Listen in your browser - HTML5 player(in browser, HTML5)
Click here to listen with your own player(launches your MP3 player)

KRBD 212153Z 31009KT 10SM CLR 23/02 A3012 RMK AO2 SLP195 T02330017

KRBD Airport Info (Airnav.com)

KRBD Flight Activity (Flightaware)

Listeners: 1 out of 1349 total

Regional Approach (Feeder 2/East): 133.525

Regional Approach (South/RBD) (Archives)
Dallas, Texas, United States

Feed Status: UP
Listen in your browser - HTML5 player(in browser, HTML5)
Click here to listen with your own player(launches your MP3 player)

KRBD 212153Z 31009KT 10SM CLR 23/02 A3012 RMK AO2 SLP195 T02330017

KRBD Airport Info (Airnav.com)

KRBD Flight Activity (Flightaware)

Listeners: 0 out of 1349 total

Regional Approach (South): 125.200

KSAN Clearance Delivery (Archives)
San Diego, California, United States

Feed Status: UP
Listen in your browser - HTML5 player(in browser, HTML5)
Click here to listen with your own player(launches your MP3 player)

KSAN 212231Z 24018G23KT 4SM R09/5000VP6000FT RA BKN026 BKN036 OVC048 16/10 A3014 RMK AO2 RAB03 VIS SE 2 1/2 VIS SW 2 1/2 VIS W 2 P0000 T01610100

KSAN Airport Info (Airnav.com)

KSAN Flight Activity (Flightaware)

Listeners: 0 out of 1349 total

Lindbergh Clearance Delivery: 125.900

KSAN Ground (Archives)
San Diego, California, United States

Feed Status: UP
Listen in your browser - HTML5 player(in browser, HTML5)
Click here to listen with your own player(launches your MP3 player)

KSAN 212231Z 24018G23KT 4SM R09/5000VP6000FT RA BKN026 BKN036 OVC048 16/10 A3014 RMK AO2 RAB03 VIS SE 2 1/2 VIS SW 2 1/2 VIS W 2 P0000 T01610100

KSAN Airport Info (Airnav.com)

KSAN Flight Activity (Flightaware)

Listeners: 1 out of 1349 total

Lindbergh Ground: 123.900

KSAN Ramp (Archives)
San Diego, California, United States

Feed Status: UP
Listen in your browser - HTML5 player(in browser, HTML5)
Click here to listen with your own player(launches your MP3 player)

KSAN 212231Z 24018G23KT 4SM R09/5000VP6000FT RA BKN026 BKN036 OVC048 16/10 A3014 RMK AO2 RAB03 VIS SE 2 1/2 VIS SW 2 1/2 VIS W 2 P0000 T01610100

KSAN Airport Info (Airnav.com)

KSAN Flight Activity (Flightaware)

Listeners: 0 out of 1349 total

Lindbergh Ramp: 129.775

KSAN SOCAL App/Dep (East) (Archives)
San Diego, California, United States

Feed Status: UP
Listen in your browser - HTML5 player(in browser, HTML5)
Click here to listen with your own player(launches your MP3 player)

KSAN 212231Z 24018G23KT 4SM R09/5000VP6000FT RA BKN026 BKN036 OVC048 16/10 A3014 RMK AO2 RAB03 VIS SE 2 1/2 VIS SW 2 1/2 VIS W 2 P0000 T01610100

KSAN Airport Info (Airnav.com)

KSAN Flight Activity (Flightaware)

Listeners: 4 out of 1349 total

SOCAL Approach/Departure (SAN East): 124.350

KSAN SOCAL App/Dep (West) (Archives)
San Diego, California, United States

Feed Status: UP
Listen in your browser - HTML5 player(in browser, HTML5)
Click here to listen with your own player(launches your MP3 player)

KSAN 212231Z 24018G23KT 4SM R09/5000VP6000FT RA BKN026 BKN036 OVC048 16/10 A3014 RMK AO2 RAB03 VIS SE 2 1/2 VIS SW 2 1/2 VIS W 2 P0000 T01610100

KSAN Airport Info (Airnav.com)

KSAN Flight Activity (Flightaware)

Listeners: 0 out of 1349 total

SOCAL Approach/Departure (SAN West): 119.600

KSAN SOCAL Dep (South Bay) (Archives)
San Diego, California, United States

Feed Status: UP
Listen in your browser - HTML5 player(in browser, HTML5)
Click here to listen with your own player(launches your MP3 player)

KSAN 212231Z 24018G23KT 4SM R09/5000VP6000FT RA BKN026 BKN036 OVC048 16/10 A3014 RMK AO2 RAB03 VIS SE 2 1/2 VIS SW 2 1/2 VIS W 2 P0000 T01610100

KSAN Airport Info (Airnav.com)

KSAN Flight Activity (Flightaware)

Listeners: 0 out of 1349 total

SOCAL Departure (Southbay Sector): 125.150

KSAN Tower #1 (Archives)
San Diego, California, United States

Feed Status: UP
Listen in your browser - HTML5 player(in browser, HTML5)
Click here to listen with your own player(launches your MP3 player)

KSAN 212231Z 24018G23KT 4SM R09/5000VP6000FT RA BKN026 BKN036 OVC048 16/10 A3014 RMK AO2 RAB03 VIS SE 2 1/2 VIS SW 2 1/2 VIS W 2 P0000 T01610100

KSAN Airport Info (Airnav.com)

KSAN Flight Activity (Flightaware)

Listeners: 2 out of 1349 total

Lindbergh Tower: 118.300

KSAN Tower #2 (Archives)
San Diego, California, United States

Feed Status: UP
Listen in your browser - HTML5 player(in browser, HTML5)
Click here to listen with your own player(launches your MP3 player)

KSAN 212231Z 24018G23KT 4SM R09/5000VP6000FT RA BKN026 BKN036 OVC048 16/10 A3014 RMK AO2 RAB03 VIS SE 2 1/2 VIS SW 2 1/2 VIS W 2 P0000 T01610100

KSAN Airport Info (Airnav.com)

KSAN Flight Activity (Flightaware)

Listeners: 2 out of 1349 total

Lindbergh Tower: 118.300

KSEA App/Center
Seattle, Washington, United States

Feed Status: DOWN
Offline since: 2019-03-12 00:18:03 UTC

KSEA 212153Z 24006KT 10SM FEW028 FEW140 BKN250 14/07 A3004 RMK AO2 SLP180 T01440067

KSEA Airport Info (Airnav.com)

McChord Tower: 124.800
McChord Tower: 125.150
McChord Tower: 259.300
Seattle Approach: 126.500
Seattle Approach: 391.900
Seattle Center: 126.600
Seattle Center: 343.600

KSEA Approach (Archives)
Seattle, Washington, United States

Feed Status: UP
Listen in your browser - HTML5 player(in browser, HTML5)
Click here to listen with your own player(launches your MP3 player)

KSEA 212153Z 24006KT 10SM FEW028 FEW140 BKN250 14/07 A3004 RMK AO2 SLP180 T01440067

KSEA Airport Info (Airnav.com)

KSEA Flight Activity (Flightaware)

Listeners: 3 out of 1349 total

Seattle Approach: 125.900
Seattle Approach: 133.650

KSEA Del/Ramp (Archives)
Seattle, Washington, United States

Feed Status: UP
Listen in your browser - HTML5 player(in browser, HTML5)
Click here to listen with your own player(launches your MP3 player)

KSEA 212153Z 24006KT 10SM FEW028 FEW140 BKN250 14/07 A3004 RMK AO2 SLP180 T01440067

KSEA Airport Info (Airnav.com)

KSEA Flight Activity (Flightaware)

Listeners: 0 out of 1349 total

Seattle Clearance Delivery: 128.000
Seattle Gate Control: 126.250
Seattle Ramp (North): 126.875
Seattle Ramp (South): 122.275

KSEA Departure (Archives)
Seattle, Washington, United States

Feed Status: UP
Listen in your browser - HTML5 player(in browser, HTML5)
Click here to listen with your own player(launches your MP3 player)

KSEA 212153Z 24006KT 10SM FEW028 FEW140 BKN250 14/07 A3004 RMK AO2 SLP180 T01440067

KSEA Airport Info (Airnav.com)

KSEA Flight Activity (Flightaware)

Listeners: 0 out of 1349 total

Seattle Departure: 120.400
Seattle Departure: 119.200

KSEA Departure (Rwy 16) (Archives)
Seattle, Washington, United States

Feed Status: UP
Listen in your browser - HTML5 player(in browser, HTML5)
Click here to listen with your own player(launches your MP3 player)

KSEA 212153Z 24006KT 10SM FEW028 FEW140 BKN250 14/07 A3004 RMK AO2 SLP180 T01440067

KSEA Airport Info (Airnav.com)

KSEA Flight Activity (Flightaware)

Listeners: 0 out of 1349 total

Seattle Departure: 119.200

KSEA Departure (Rwy 34) (Archives)
Seattle, Washington, United States

Feed Status: UP
Listen in your browser - HTML5 player(in browser, HTML5)
Click here to listen with your own player(launches your MP3 player)

KSEA 212153Z 24006KT 10SM FEW028 FEW140 BKN250 14/07 A3004 RMK AO2 SLP180 T01440067

KSEA Airport Info (Airnav.com)

KSEA Flight Activity (Flightaware)

Listeners: 1 out of 1349 total

Seattle Departure: 120.400

KSEA Ground (Archives)
Seattle, Washington, United States

Feed Status: UP
Listen in your browser - HTML5 player(in browser, HTML5)
Click here to listen with your own player(launches your MP3 player)

KSEA 212153Z 24006KT 10SM FEW028 FEW140 BKN250 14/07 A3004 RMK AO2 SLP180 T01440067

KSEA Airport Info (Airnav.com)

KSEA Flight Activity (Flightaware)

Listeners: 0 out of 1349 total

Seattle Ground: 121.700

KSEA Tower (Archives)
Seattle, Washington, United States

Feed Status: UP
Listen in your browser - HTML5 player(in browser, HTML5)
Click here to listen with your own player(launches your MP3 player)

KSEA 212153Z 24006KT 10SM FEW028 FEW140 BKN250 14/07 A3004 RMK AO2 SLP180 T01440067

KSEA Airport Info (Airnav.com)

KSEA Flight Activity (Flightaware)

Listeners: 2 out of 1349 total

Seattle Tower (East): 119.900
Seattle Tower (West): 120.950

KSEA Tower (16L/34R,16C/34C) (Archives)
Seattle, Washington, United States

Feed Status: UP
Listen in your browser - HTML5 player(in browser, HTML5)
Click here to listen with your own player(launches your MP3 player)

KBFI 212153Z 21007KT 10SM CLR 15/07 A3004 RMK AO2 SLP172 T01500067

KBFI Airport Info (Airnav.com)

KBFI Flight Activity (Flightaware)

Listeners: 1 out of 1349 total

Seattle Tower (16L/34R, 16C/34C): 119.900

KSEA Tower (16R/34L) (Archives)
Seattle, Washington, United States

Feed Status: UP
Listen in your browser - HTML5 player(in browser, HTML5)
Click here to listen with your own player(launches your MP3 player)

KBFI 212153Z 21007KT 10SM CLR 15/07 A3004 RMK AO2 SLP172 T01500067

KBFI Airport Info (Airnav.com)

KBFI Flight Activity (Flightaware)

Listeners: 0 out of 1349 total

Seattle Tower (16R/34L): 120.950

KMCO App (Disney/Ovido Sectors) (Archives)
Orlando, Florida, United States

Feed Status: UP
Listen in your browser - HTML5 player(in browser, HTML5)
Click here to listen with your own player(launches your MP3 player)

KMCO 212153Z 29016G22KT 10SM CLR 23/03 A2992 RMK AO2 SLP131 T02280033

KMCO Airport Info (Airnav.com)

KMCO Flight Activity (Flightaware)

Listeners: 1 out of 1349 total

Orlando Approach (Disney Satellite Sector): 119.400
Orlando Approach (OVIDO Satellite Sector): 119.775

Sponsored by LiveATC.net and Flight Training Professionals

KMCO App (North Satellite) (Archives)
Orlando, Florida, United States

Feed Status: UP
Listen in your browser - HTML5 player(in browser, HTML5)
Click here to listen with your own player(launches your MP3 player)

KORL 212153Z 27019G23KT 10SM CLR 23/03 A2992 RMK AO2 SLP135 T02280033

KORL Airport Info (Airnav.com)

KORL Flight Activity (Flightaware)

Listeners: 0 out of 1349 total

Orlando Approach (North Satellite): 121.100
Orlando Approach (North Satellite): 135.300

Sponsored by LiveATC.net and Flight Training Professionals

KSFO D-ATIS (Archives)
San Francisco, California, United States

Feed Status: UP
Listen in your browser - HTML5 player(in browser, HTML5)
Click here to listen with your own player(launches your MP3 player)

KSFO 212156Z 28013KT 10SM FEW015 16/07 A3010 RMK AO2 SLP193 T01560072

KSFO Airport Info (Airnav.com)

KSFO Flight Activity (Flightaware)

Listeners: 1 out of 1349 total

KSFO Digital ATIS: 118.850

KSFO Dep 120.9/127.0 (Archives)
San Francisco, California, United States

Feed Status: UP
Listen in your browser - HTML5 player(in browser, HTML5)
Click here to listen with your own player(launches your MP3 player)

KSFO 212156Z 28013KT 10SM FEW015 16/07 A3010 RMK AO2 SLP193 T01560072

KSFO Airport Info (Airnav.com)

KSFO Flight Activity (Flightaware)

Listeners: 1 out of 1349 total

NORCAL Approach: 127.000
NORCAL Departure: 120.900

KSFO Dep 135.1 (Archives)
San Francisco, California, United States

Feed Status: UP
Listen in your browser - HTML5 player(in browser, HTML5)
Click here to listen with your own player(launches your MP3 player)

KSFO 212156Z 28013KT 10SM FEW015 16/07 A3010 RMK AO2 SLP193 T01560072

KSFO Airport Info (Airnav.com)

KSFO Flight Activity (Flightaware)

Listeners: 1 out of 1349 total

NORCAL Departure: 127.975
NORCAL Departure: 135.100

KSFO Ground (Archives)
San Francisco, California, United States

Feed Status: UP
Listen in your browser - HTML5 player(in browser, HTML5)
Click here to listen with your own player(launches your MP3 player)

KSFO 212156Z 28013KT 10SM FEW015 16/07 A3010 RMK AO2 SLP193 T01560072

KSFO Airport Info (Airnav.com)

KSFO Flight Activity (Flightaware)

Listeners: 2 out of 1349 total

San Francisco Ground: 121.800
San Francisco Ground/Gate Hold: 124.250

KSFO Ground 121.8 (Archives)
San Francisco, California, United States

Feed Status: UP
Listen in your browser - HTML5 player(in browser, HTML5)
Click here to listen with your own player(launches your MP3 player)

KSFO 212156Z 28013KT 10SM FEW015 16/07 A3010 RMK AO2 SLP193 T01560072

KSFO Airport Info (Airnav.com)

KSFO Flight Activity (Flightaware)

Listeners: 2 out of 1349 total

San Francisco Ground: 121.800

KSFO Ground 124.25 (Archives)
San Francisco, California, United States

Feed Status: UP
Listen in your browser - HTML5 player(in browser, HTML5)
Click here to listen with your own player(launches your MP3 player)

KSFO 212156Z 28013KT 10SM FEW015 16/07 A3010 RMK AO2 SLP193 T01560072

KSFO Airport Info (Airnav.com)

KSFO Flight Activity (Flightaware)

Listeners: 1 out of 1349 total

San Francisco Ground/Gate Hold: 124.250

KSFO NORCAL App 28L/R (Archives)
San Francisco, California, United States

Feed Status: UP
Listen in your browser - HTML5 player(in browser, HTML5)
Click here to listen with your own player(launches your MP3 player)

KSFO 212156Z 28013KT 10SM FEW015 16/07 A3010 RMK AO2 SLP193 T01560072

KSFO Airport Info (Airnav.com)

KSFO Flight Activity (Flightaware)

Listeners: 3 out of 1349 total

NORCAL Approach (Foster Sector, SFO 28R Final): 120.350
NORCAL Approach (Woodside Sector, SFO 28L Final): 135.650

KSFO NORCAL App 28L/R + BSR/MOD STARs (Archives)
San Francisco, California, United States

Feed Status: UP
Listen in your browser - HTML5 player(in browser, HTML5)
Click here to listen with your own player(launches your MP3 player)

KSFO 212156Z 28013KT 10SM FEW015 16/07 A3010 RMK AO2 SLP193 T01560072

KSFO Airport Info (Airnav.com)

KSFO Flight Activity (Flightaware)

Listeners: 0 out of 1349 total

NORCAL Approach (Boulder Sector, BSR2 STAR): 133.950
NORCAL Approach (Foster Sector, SFO 28R Final): 120.350
NORCAL Approach (Niles Sector, MOD2 STAR): 128.325
NORCAL Approach (Woodside Sector, SFO 28L Final): 135.650

KSFO NORCAL BSR2/MOD2 Arrivals (Archives)
San Francisco, California, United States

Feed Status: UP
Listen in your browser - HTML5 player(in browser, HTML5)
Click here to listen with your own player(launches your MP3 player)

KSFO 212156Z 28013KT 10SM FEW015 16/07 A3010 RMK AO2 SLP193 T01560072

KSFO Airport Info (Airnav.com)

KSFO Flight Activity (Flightaware)

Listeners: 1 out of 1349 total

NORCAL Approach (Boulder Sector, BSR2 STAR): 133.950
NORCAL Approach (Niles Sector, MOD2 STAR): 128.325

KSFO Ramp (Archives)
San Francisco, California, United States

Feed Status: UP
Listen in your browser - HTML5 player(in browser, HTML5)
Click here to listen with your own player(launches your MP3 player)

KSFO 212156Z 28013KT 10SM FEW015 16/07 A3010 RMK AO2 SLP193 T01560072

KSFO Airport Info (Airnav.com)

KSFO Flight Activity (Flightaware)

Listeners: 1 out of 1349 total

KSFO Ramp A (East): 127.575
KSFO Ramp G (West): 119.225
KSFO Shadow Ramp: 131.000

KSFO Tower (Archives)
San Francisco, California, United States

Feed Status: UP
Listen in your browser - HTML5 player(in browser, HTML5)
Click here to listen with your own player(launches your MP3 player)

KSFO 212156Z 28013KT 10SM FEW015 16/07 A3010 RMK AO2 SLP193 T01560072

KSFO Airport Info (Airnav.com)

KSFO Flight Activity (Flightaware)

Listeners: 6 out of 1349 total

San Francisco Tower: 120.500
San Francisco Tower (secondary): 128.650

KSFO Tower/Ground (Archives)
San Francisco, California, United States

Feed Status: UP
Listen in your browser - HTML5 player(in browser, HTML5)
Click here to listen with your own player(launches your MP3 player)

KSFO 212156Z 28013KT 10SM FEW015 16/07 A3010 RMK AO2 SLP193 T01560072

KSFO Airport Info (Airnav.com)

KSFO Flight Activity (Flightaware)

Listeners: 1 out of 1349 total

San Francisco Ground: 121.800
San Francisco Ground/Gate Hold: 124.250
San Francisco Tower: 120.500
San Francisco Tower (secondary): 128.650

KSLC Approach/Departure (Archives)
Salt Lake City, Utah, United States

Feed Status: UP
Listen in your browser - HTML5 player(in browser, HTML5)
Click here to listen with your own player(launches your MP3 player)

KSLC 212154Z 36006KT 10SM FEW055 SCT110 BKN150 BKN210 12/00 A2988 RMK AO2 SLP095 VIRGA DSNT NW-N T01170000

KSLC Airport Info (Airnav.com)

KSLC Flight Activity (Flightaware)

Listeners: 0 out of 1349 total

Salt Lake Approach: 125.700
Salt Lake Approach: 124.300
Salt Lake Approach: 124.900
Salt Lake Approach: 128.100
Salt Lake Approach: 126.250
Salt Lake Approach: 135.500

KSLC Ground (Archives)
Salt Lake City, Utah, United States

Feed Status: UP
Listen in your browser - HTML5 player(in browser, HTML5)
Click here to listen with your own player(launches your MP3 player)

KSLC 212154Z 36006KT 10SM FEW055 SCT110 BKN150 BKN210 12/00 A2988 RMK AO2 SLP095 VIRGA DSNT NW-N T01170000

KSLC Airport Info (Airnav.com)

KSLC Flight Activity (Flightaware)

Listeners: 0 out of 1349 total

Salt Lake Ground (East): 121.900
Salt Lake Ground (West): 123.775

KSLC Tower (Main) (Archives)
Salt Lake City, Utah, United States

Feed Status: UP
Listen in your browser - HTML5 player(in browser, HTML5)
Click here to listen with your own player(launches your MP3 player)

KSLC 212154Z 36006KT 10SM FEW055 SCT110 BKN150 BKN210 12/00 A2988 RMK AO2 SLP095 VIRGA DSNT NW-N T01170000

KSLC Airport Info (Airnav.com)

KSLC Flight Activity (Flightaware)

Listeners: 1 out of 1349 total

Salt Lake Tower (Rwy 16L/34R): 119.050
Salt Lake Tower (Rwy 16R/34L): 132.650

KSLC Tower (Rwy 34L/16R) (Archives)
Salt Lake City, Utah, United States

Feed Status: UP
Listen in your browser - HTML5 player(in browser, HTML5)
Click here to listen with your own player(launches your MP3 player)

KSLC 212154Z 36006KT 10SM FEW055 SCT110 BKN150 BKN210 12/00 A2988 RMK AO2 SLP095 VIRGA DSNT NW-N T01170000

KSLC Airport Info (Airnav.com)

KSLC Flight Activity (Flightaware)

Listeners: 0 out of 1349 total

Salt Lake Tower (Rwy 16R/34L): 132.650

KSLC Tower (Rwy 34R/16L) (Archives)
Salt Lake City, Utah, United States

Feed Status: UP
Listen in your browser - HTML5 player(in browser, HTML5)
Click here to listen with your own player(launches your MP3 player)

KSLC 212154Z 36006KT 10SM FEW055 SCT110 BKN150 BKN210 12/00 A2988 RMK AO2 SLP095 VIRGA DSNT NW-N T01170000

KSLC Airport Info (Airnav.com)

KSLC Flight Activity (Flightaware)

Listeners: 0 out of 1349 total

Salt Lake Tower (Rwy 16L/34R): 119.050

KSLC Twr/App (Archives)
Salt Lake City, Utah, United States

Feed Status: UP
Listen in your browser - HTML5 player(in browser, HTML5)
Click here to listen with your own player(launches your MP3 player)

KSLC 212154Z 36006KT 10SM FEW055 SCT110 BKN150 BKN210 12/00 A2988 RMK AO2 SLP095 VIRGA DSNT NW-N T01170000

KSLC Airport Info (Airnav.com)

KSLC Flight Activity (Flightaware)

Listeners: 0 out of 1349 total

Salt Lake Approach (<8000 MSL N of 41deg lat) : 121.100
Salt Lake Approach (<8000 MSL S of 41deg lat) : 120.900
Salt Lake Tower (East): 120.200
Salt Lake Tower (Rwys 17/35 & 14/32): 118.300

KSTL Approach
St. Louis, Missouri, United States

Feed Status: DOWN
Offline since: 2019-03-21 22:34:03 UTC

KSTL 212151Z 33012G20KT 10SM FEW045 12/M01 A3009 RMK AO2 SLP192 T01221006 $

KSTL Airport Info (Airnav.com)

St. Louis Approach: 119.150
St. Louis Approach: 132.125
St. Louis Approach: 128.100
St. Louis Approach: 126.550
St. Louis Approach: 126.500
St. Louis Approach: 124.250
St. Louis Approach: 124.200
St. Louis Approach: 123.700
St. Louis Approach: 121.025
St. Louis Approach: 125.200

KSTL Del/Gnd/Twr (Archives)
St. Louis, Missouri, United States

Feed Status: UP
Listen in your browser - HTML5 player(in browser, HTML5)
Click here to listen with your own player(launches your MP3 player)

KSTL 212151Z 33012G20KT 10SM FEW045 12/M01 A3009 RMK AO2 SLP192 T01221006 $

KSTL Airport Info (Airnav.com)

KSTL Flight Activity (Flightaware)

Listeners: 0 out of 1349 total

St. Louis Clearance Delivery: 119.500
St. Louis Clearance Delivery: 363.100
St. Louis Clearance Metering: 121.075
St. Louis Clearance Metering: 127.550
St. Louis Clearance Metering: 360.200
St. Louis Ground: 121.900
St. Louis Ground: 118.925
St. Louis Tower: 118.500
St. Louis Tower: 120.050
St. Louis Tower: 132.475
St. Louis Tower: 239.275
St. Louis Tower: 257.700
St. Louis Tower: 284.600

NY Approach (Liberty/Catskills) (Archives)
Newburgh, New York, United States

Feed Status: UP
Listen in your browser - HTML5 player(in browser, HTML5)
Click here to listen with your own player(launches your MP3 player)


Listeners: 0 out of 1349 total

New York Approach (Liberty Area/Catskills Sector): 132.750

Sponsored by LiveATC.net and Poughkeepsie Pilots Association

KTPA Gnd/Twr/App (Archives)
Tampa, Florida, United States

Feed Status: UP
Listen in your browser - HTML5 player(in browser, HTML5)
Click here to listen with your own player(launches your MP3 player)

KTPA 212153Z 28010KT 10SM CLR 21/09 A2998 RMK AO2 SLP152 T02110089

KTPA Airport Info (Airnav.com)

KTPA Flight Activity (Flightaware)

Listeners: 2 out of 1349 total

KMCF Mac Dill AFB : 123.700
KSPG Albert Whitted Tower: 127.400
Tampa Approach/Departure: 135.500
Tampa Approach/Departure: 118.800
Tampa Approach/Departure: 119.650
Tampa Approach/Departure: 125.300
Tampa Approach/Departure: 118.500
Tampa Approach/Departure: 119.900

Chicago Approach (North) (Archives)
Chicago/Waukegan, Illinois, United States

Feed Status: UP
Listen in your browser - HTML5 player(in browser, HTML5)
Click here to listen with your own player(launches your MP3 player)

KUGN 212155Z 10SM SCT030 07/M01 A2994 RMK AO2 SLP145 T00721006

KUGN Airport Info (Airnav.com)

KUGN Flight Activity (Flightaware)

Listeners: 0 out of 1349 total

Chicago Approach (North): 120.550

L70 CTAF/Misc (Archives)
Agua Dulce, California, United States

Feed Status: UP
Listen in your browser - HTML5 player(in browser, HTML5)
Click here to listen with your own player(launches your MP3 player)

KVNY 212151Z 12006KT 10SM BKN030 BKN037 BKN049 14/07 A3007 RMK AO2 SLP181 T01390072

KVNY Airport Info (Airnav.com)

KVNY Flight Activity (Flightaware)

Listeners: 0 out of 1349 total

Agua Dulce CTAF: 122.800
Emergency/Guard: 121.500
LA County Fire Air/Ground : 131.425
Practice Areas: 122.775
SOCAL Helicopters: 123.025

PHNL App/Dep West (Archives)
Honolulu, Hawaii, United States

Feed Status: UP
Listen in your browser - HTML5 player(in browser, HTML5)
Click here to listen with your own player(launches your MP3 player)

PHNL 212153Z 05012KT 10SM FEW025 SCT035 29/14 A3011 RMK AO2 SLP194 T02890139

PHNL Airport Info (Airnav.com)

PHNL Flight Activity (Flightaware)

Listeners: 1 out of 1349 total

Emergency/Guard: 121.500
HCF (ZHN) SW/W/NW: 119.900
HCF Approach: 118.300

PHNL Clearance/Ground (Archives)
Honolulu, Hawaii, United States

Feed Status: UP
Listen in your browser - HTML5 player(in browser, HTML5)
Click here to listen with your own player(launches your MP3 player)

PHNL 212153Z 05012KT 10SM FEW025 SCT035 29/14 A3011 RMK AO2 SLP194 T02890139

PHNL Airport Info (Airnav.com)

PHNL Flight Activity (Flightaware)

Listeners: 1 out of 1349 total

HIK Advisory Ramp: 133.600
Honolulu Clearance: 121.400
Honolulu Ground: 121.900
Honolulu Ramp: 121.800
San Francisco Radio: 131.950

PHNL Dep/App (Archives)
Honolulu, Hawaii, United States

Feed Status: UP
Listen in your browser - HTML5 player(in browser, HTML5)
Click here to listen with your own player(launches your MP3 player)

PHNL 212153Z 05012KT 10SM FEW025 SCT035 29/14 A3011 RMK AO2 SLP194 T02890139

PHNL Airport Info (Airnav.com)

PHNL Flight Activity (Flightaware)

Listeners: 1 out of 1349 total

HCF Departure (East): 124.800
HCF Departure NW/App E/NW: 119.100

PHNL Tower (Archives)
Honolulu, Hawaii, United States

Feed Status: UP
Listen in your browser - HTML5 player(in browser, HTML5)
Click here to listen with your own player(launches your MP3 player)

PHNL 212153Z 05012KT 10SM FEW025 SCT035 29/14 A3011 RMK AO2 SLP194 T02890139

PHNL Airport Info (Airnav.com)

PHNL Flight Activity (Flightaware)

Listeners: 5 out of 1349 total

Honolulu Tower: 118.100
Honolulu Tower: 123.900